GFSMA_925_spd_000.txt.gz
Wind_Speed
5 6 8 10 11 11 11 10 13 14 13 15 16 13 13 15 17 17 14 16 16 15 15 14 15 16 17 17 17 16 16 13 14 16 24 28 24 23 23 25 25 25 25
6 7 10 12 13 13 12 15 18 18 16 15 14 17 17 16 18 17 17 17 19 18 17 17 15 15 15 16 17 17 16 15 13 13 18 26 25 25 23 25 25 26 26
7 9 10 12 13 15 14 18 19 18 20 20 19 18 19 22 22 19 20 20 21 21 20 20 18 15 15 15 16 16 16 16 16 16 13 17 27 24 22 24 26 28 27
7 9 12 16 17 19 19 20 22 23 22 21 22 21 22 23 24 25 23 24 23 24 23 22 21 20 18 16 15 14 13 13 14 15 16 16 17 20 24 26 28 29 29
8 9 14 18 20 22 23 24 25 25 22 21 23 24 26 24 27 26 26 28 28 26 26 26 25 24 22 19 18 17 16 15 13 12 13 14 16 18 22 24 24 27 30
10 13 17 19 20 21 21 22 23 25 27 28 27 26 28 32 32 29 29 30 30 31 33 27 29 28 25 23 21 20 17 17 16 14 14 13 13 17 19 23 27 24 31
13 17 21 19 20 22 21 22 25 27 27 26 28 25 26 28 28 30 34 35 34 35 37 40 31 32 30 27 23 22 19 16 14 14 13 14 14 14 17 19 22 27 25
22 25 21 18 16 18 21 23 24 27 28 28 25 23 11 21 24 25 30 32 37 35 38 41 35 31 29 30 28 24 21 19 17 15 15 15 16 14 15 16 19 21 26
25 19 17 18 18 16 19 23 24 23 20 25 23 19 10 11 17 23 27 30 31 29 20 19 32 37 34 27 28 25 23 20 18 15 14 14 17 17 15 15 16 17 19
16 15 18 19 20 17 19 22 20 22 21 21 19 15 20 20 4 8 13 22 25 24 21 24 23 23 36 29 13 20 22 21 18 15 13 14 16 17 15 14 15 15 16
17 19 18 19 19 21 22 24 20 21 15 12 12 15 17 23 21 6 8 13 29 28 24 21 15 13 11 6 8 18 18 19 17 16 15 15 16 17 18 16 14 14 14
18 18 20 21 18 18 20 21 14 15 14 10 10 10 10 5 12 10 8 13 12 19 28 20 18 16 7 14 10 12 18 20 19 17 14 15 17 18 18 17 17 16 14
16 20 19 19 17 18 17 15 14 11 10 10 13 14 13 11 13 13 13 14 10 17 14 24 17 16 13 18 14 15 20 18 17 16 17 15 16 16 18 18 18 19 17
17 20 18 19 15 12 12 12 11 11 11 12 14 14 16 17 16 14 11 8 7 5 17 22 22 18 21 21 22 14 18 14 14 15 16 15 14 12 14 18 20 20 19
13 18 20 19 18 16 14 14 14 16 17 20 23 17 18 18 19 18 17 17 13 6 7 16 12 19 14 18 22 18 24 19 15 16 16 14 13 11 9 10 13 16 18
19 19 17 18 20 18 16 19 20 18 19 18 17 16 20 20 20 20 19 20 21 16 9 15 22 19 18 18 20 17 22 16 12 15 14 13 14 15 14 11 9 9 11
18 19 20 20 20 20 20 18 20 17 16 19 19 18 17 19 20 20 20 22 24 20 11 18 20 19 18 18 16 20 19 16 14 16 18 20 21 24 23 22 17 13 11
15 17 19 20 20 20 20 19 20 18 20 19 22 23 23 20 21 20 18 21 21 21 21 16 19 20 22 21 21 20 15 15 18 20 21 22 24 22 22 21 22 24 23
17 18 19 20 20 21 21 19 19 15 15 19 22 26 26 24 23 22 21 20 19 17 19 19 18 20 22 22 22 21 19 18 16 16 18 18 15 20 23 21 23 24 25
19 19 19 18 19 20 20 13 13 17 19 20 22 28 30 28 26 26 20 16 14 19 21 21 21 21 21 21 22 24 24 22 22 18 17 16 17 20 24 26 27 27 27
17 17 19 20 21 19 11 16 15 16 19 22 24 26 28 29 29 24 19 20 19 17 17 18 19 20 19 19 17 16 17 15 14 11 10 12 13 13 24 26 27 28 29
16 19 19 20 18 13 16 16 20 23 21 23 26 27 28 29 28 24 15 18 21 22 21 19 18 17 20 21 20 18 19 14 4 13 13 13 11 14 15 9 18 24 25
19 19 20 18 13 14 12 19 20 21 18 23 26 27 26 24 25 20 16 16 14 14 20 22 21 22 22 25 24 22 19 18 15 15 17 18 16 18 17 13 7 5 7
20 21 18 14 13 12 20 25 21 19 20 21 24 27 26 25 22 21 20 18 18 20 19 19 22 27 25 25 23 21 19 18 21 21 18 14 19 22 21 19 18 21 17
21 14 14 14 17 22 24 21 17 16 18 21 24 25 25 25 25 23 23 20 20 21 21 22 26 28 27 28 29 24 21 17 13 14 16 20 20 23 24 26 25 23 26
16 14 12 14 17 24 20 15 14 15 19 22 23 23 23 23 10 10 12 14 16 17 15 18 21 20 20 21 22 21 24 20 18 14 23 19 16 15 9 22 23 27 28

GFSMA_925_spd_003.txt.gz
Wind_Speed
3 2 4 6 9 10 11 9 13 20 20 21 21 19 16 16 15 13 15 16 16 18 20 20 19 17 17 19 20 19 17 17 16 18 21 24 25 27 24 23 25 26 25
2 4 9 11 12 14 14 14 19 21 22 22 24 22 21 20 20 18 18 19 20 19 20 21 20 22 19 18 21 22 21 19 17 16 19 23 27 27 23 25 25 27 27
5 7 9 12 15 16 18 21 22 24 26 26 26 27 25 26 27 27 23 22 24 25 24 23 24 24 24 20 20 22 22 21 19 18 18 21 20 23 24 26 26 27 28
8 8 12 16 18 20 23 25 24 26 27 25 24 25 22 26 28 31 32 28 27 28 28 26 25 26 26 25 20 19 20 20 20 19 18 18 19 21 22 25 26 30 30
9 12 16 17 17 19 19 21 21 23 27 29 30 29 28 27 30 29 31 30 33 35 34 31 29 29 27 25 23 19 18 18 18 18 19 19 19 18 19 26 27 29 30
10 12 17 21 16 19 19 18 21 23 26 28 30 30 27 25 24 28 28 27 31 37 41 40 34 33 30 28 26 21 19 19 17 17 17 18 19 19 19 19 24 29 26
11 13 24 15 10 11 15 18 22 26 29 29 30 31 30 30 29 29 28 28 24 27 32 41 43 36 35 33 31 28 23 21 20 18 16 17 17 18 17 17 18 23 25
19 17 13 11 13 14 16 17 18 21 21 25 20 19 5 16 23 21 25 24 25 23 22 17 30 36 35 32 35 32 29 23 21 18 16 17 17 18 18 18 18 17 21
12 11 12 13 14 13 14 16 19 23 25 25 16 6 4 4 10 11 21 22 29 27 28 26 12 15 30 42 39 34 33 27 23 18 15 14 15 18 18 17 18 18 19
12 14 15 17 18 17 16 16 18 19 19 14 11 8 5 4 2 4 17 26 25 33 30 25 22 20 12 12 25 37 34 27 24 20 17 13 12 14 15 15 16 16 17
18 17 18 22 22 19 18 19 17 16 16 12 11 10 10 13 6 4 9 10 23 23 26 28 27 19 13 3 4 10 17 17 23 19 16 14 13 12 13 15 15 15 14
16 19 20 17 16 14 14 11 12 12 12 11 8 9 11 4 6 6 4 16 16 21 29 28 23 15 19 16 10 9 11 11 19 17 14 13 15 14 13 15 18 17 15
16 16 12 13 15 15 14 13 12 10 10 11 12 15 13 17 19 21 15 17 10 20 11 18 20 22 18 17 18 21 23 18 17 15 14 11 14 14 14 16 18 21 20
7 10 15 14 12 14 13 16 18 20 21 22 23 22 23 24 23 21 18 12 10 9 19 14 24 19 21 17 15 18 22 21 22 19 17 13 15 15 14 15 18 17 19
12 13 15 16 18 19 20 22 25 26 24 19 18 19 17 16 19 18 18 20 14 7 8 13 20 27 24 19 17 13 16 18 20 19 20 15 13 11 10 12 14 16 20
18 17 18 19 20 21 20 21 21 20 20 20 21 19 19 20 17 20 18 20 19 15 9 17 21 24 23 18 16 15 16 12 19 22 22 12 10 10 9 9 11 11 13
17 16 16 18 19 18 17 18 19 21 21 22 21 19 20 22 23 25 24 20 18 17 14 23 23 18 17 20 20 15 12 19 14 17 21 16 15 15 14 13 15 13 10
8 8 13 16 17 17 19 18 15 10 9 14 17 20 24 25 26 26 26 23 22 20 13 11 13 18 20 21 22 20 11 12 13 22 26 17 15 14 18 16 13 15 17
8 10 10 11 14 16 15 14 10 12 15 17 20 23 26 29 30 28 29 27 15 8 12 9 8 16 20 22 27 26 22 17 13 12 10 19 17 18 17 20 17 15 16
12 10 8 14 18 17 15 12 11 12 15 19 22 25 28 28 28 28 28 25 19 19 17 14 12 12 16 23 23 18 22 19 17 11 13 10 6 12 15 17 20 20 18
9 8 14 15 16 12 13 12 11 14 19 23 24 25 25 25 25 26 22 18 20 15 14 13 15 14 14 16 15 15 17 22 20 13 13 11 9 5 2 10 22 24 22
8 13 15 16 14 10 12 10 14 21 23 20 23 27 25 21 20 22 16 14 11 13 15 15 15 12 14 15 18 19 18 16 5 10 20 18 13 10 7 6 8 10 13
11 17 17 8 7 9 9 17 21 19 18 18 20 25 25 20 23 21 20 19 17 15 13 13 13 16 18 21 21 22 18 13 13 16 18 20 20 19 15 9 7 9 8
15 14 4 8 7 13 17 16 15 16 15 18 20 24 22 23 24 21 23 22 20 20 19 19 19 22 22 23 21 20 19 19 21 21 17 12 21 22 21 19 15 13 15
11 7 5 9 15 17 15 13 17 16 15 18 19 21 22 23 22 20 15 17 18 22 21 16 17 17 17 20 21 20 19 15 14 18 23 18 16 18 19 22 22 22 22
13 5 10 14 15 14 12 16 14 14 18 19 20 21 22 21 21 15 13 17 19 22 20 20 19 20 21 22 21 19 19 15 15 7 20 11 19 18 7 17 17 17 20

GFSMA_925_spd_006.txt.gz
Wind_Speed
2 3 2 4 7 10 12 10 12 17 20 22 22 23 24 22 19 16 15 15 16 16 19 22 21 20 19 21 21 21 20 20 19 19 19 22 25 26 28 28 27 26 25
4 2 3 6 9 12 15 16 19 22 25 25 26 25 26 27 26 24 23 22 21 21 20 21 22 23 23 23 22 22 23 22 21 21 20 21 23 27 29 29 28 28 27
2 2 5 9 12 15 18 19 20 20 19 18 21 20 19 21 23 26 27 30 30 27 27 26 26 24 24 26 26 24 24 23 23 22 22 22 24 25 27 29 30 30 29
3 4 7 11 13 15 18 20 17 14 15 18 21 20 23 23 23 25 27 30 28 34 32 32 31 28 27 26 26 24 21 20 20 21 23 22 22 23 24 29 30 30 29
7 9 11 14 16 14 15 16 15 15 19 20 23 23 26 28 29 29 28 25 25 29 33 38 37 36 33 30 28 25 24 20 19 19 19 22 23 23 22 24 27 27 30
6 10 16 15 10 8 10 13 15 18 20 23 26 27 27 27 26 20 20 16 20 17 15 20 31 38 40 35 31 28 24 22 19 18 17 17 21 23 23 22 21 25 28
15 17 14 9 9 10 12 14 15 16 18 22 25 28 25 26 20 24 17 14 17 18 21 25 25 22 34 37 35 33 29 23 22 20 18 18 19 21 22 22 21 20 24
10 10 11 13 14 14 16 17 19 19 16 18 12 14 7 19 20 17 17 18 25 24 28 25 22 22 18 24 29 36 34 30 24 22 21 20 21 21 21 20 19 18 19
6 9 14 17 18 18 16 16 18 19 16 15 11 5 3 3 6 11 23 20 29 27 30 26 22 22 22 22 21 23 30 31 32 26 22 21 21 19 19 20 19 18 18
12 15 16 16 14 12 14 15 17 17 18 15 13 10 6 3 2 7 6 25 24 33 31 28 28 19 15 18 20 19 19 24 30 26 22 17 16 15 14 16 17 17 17
14 16 18 16 15 17 16 15 15 15 14 10 10 9 8 10 4 4 10 11 21 26 32 27 19 18 14 14 17 19 21 10 11 15 16 19 18 15 13 13 13 15 16
14 11 10 11 13 15 15 14 14 16 19 19 18 16 12 7 7 4 5 16 19 19 22 20 14 19 17 17 16 17 19 21 13 10 7 11 16 17 17 14 12 14 15
9 6 7 11 11 12 13 16 19 22 24 21 21 21 19 21 21 20 14 13 10 22 15 18 17 19 19 21 18 15 20 19 20 12 6 8 12 13 11 11 14 14 16
4 6 6 8 10 13 14 15 15 14 16 18 19 18 21 20 16 17 10 11 10 13 21 17 16 19 21 20 18 15 16 19 19 21 29 21 16 15 11 11 11 15 17
2 4 8 12 13 16 14 14 14 15 15 16 18 19 20 20 19 18 17 16 8 6 9 11 17 19 20 20 13 15 12 13 16 17 19 25 18 14 18 16 9 13 14
3 5 13 12 9 11 12 12 13 14 15 16 16 14 13 16 21 22 23 19 19 11 4 15 21 20 13 13 14 15 8 13 11 13 17 22 16 14 10 11 12 9 9
8 8 8 7 9 9 9 10 11 10 9 6 7 12 16 20 22 25 25 24 20 19 10 16 19 19 13 15 16 14 12 14 13 16 16 22 22 14 10 10 10 11 10
5 6 9 9 11 11 10 11 12 7 5 6 10 15 21 23 26 27 27 26 24 26 18 11 9 9 12 15 17 19 18 10 8 15 17 16 20 24 14 12 9 8 10
10 23 10 11 11 14 16 14 7 5 6 8 14 18 19 22 26 27 27 26 23 25 17 10 9 11 13 17 20 18 16 17 16 5 15 15 20 25 19 13 13 12 10
14 21 11 11 15 15 14 10 8 6 9 16 20 17 19 22 23 25 25 23 20 20 21 16 8 5 5 12 13 12 15 14 18 11 2 11 11 4 15 15 12 11 11
13 11 11 14 15 15 13 9 6 11 18 18 19 17 18 19 20 19 19 15 16 15 12 11 8 3 5 6 7 5 12 18 18 7 9 8 10 10 7 1 9 13 14
7 7 16 15 12 9 10 8 16 16 16 17 16 18 20 20 17 19 18 18 15 13 12 10 9 6 9 10 10 12 12 10 3 6 12 18 13 10 9 8 7 1 5
15 17 12 4 6 6 9 13 14 14 15 15 16 19 19 18 21 22 22 20 20 17 14 14 15 16 15 15 14 14 13 11 11 8 10 16 17 21 16 11 7 5 5
18 9 2 2 6 8 10 10 11 14 14 15 17 19 22 22 21 21 22 17 17 17 16 16 17 17 18 17 16 17 16 13 14 18 14 9 16 15 18 14 13 12 13
7 3 2 4 6 9 8 10 11 12 15 19 21 19 20 20 20 19 21 16 17 19 16 12 12 11 12 12 13 14 13 11 10 13 11 11 17 20 22 21 15 16 18
3 5 4 6 8 8 11 9 13 18 20 18 18 19 17 19 20 21 15 15 16 20 20 17 16 16 18 19 17 17 15 11 7 3 12 10 12 7 5 10 15 16 12

GFSMA_925_spd_009.txt.gz
Wind_Speed
3 2 2 3 5 7 9 10 11 14 17 19 19 16 17 16 17 21 24 23 23 22 23 23 22 21 19 19 19 20 21 20 18 18 18 19 18 21 22 25 28 28 28
7 4 2 1 4 8 10 12 13 14 13 13 14 15 15 16 17 17 17 21 26 30 30 29 26 24 25 23 22 21 20 22 22 21 20 19 19 19 22 26 27 28 31
3 3 1 5 8 11 13 14 13 13 14 11 12 13 15 17 20 23 21 18 17 15 18 29 35 33 30 27 28 27 23 20 22 23 22 20 20 20 22 24 27 29 31
2 3 6 10 14 17 15 14 14 13 12 13 15 16 18 20 23 26 20 18 16 16 17 18 21 30 35 36 34 31 25 21 21 20 20 20 20 20 22 22 27 29 30
1 5 11 16 16 11 11 13 13 14 13 14 17 18 21 24 26 22 19 18 15 16 18 20 22 20 24 30 34 31 29 24 21 19 19 19 19 19 20 21 21 25 31
5 9 12 11 9 10 13 16 18 18 19 21 23 21 24 23 18 16 15 13 13 15 19 22 26 26 23 20 24 27 29 29 24 20 19 17 18 19 19 20 20 19 24
10 9 9 9 12 14 15 18 20 23 23 25 20 23 22 11 20 10 16 15 17 20 22 25 27 29 30 25 22 23 24 27 28 25 21 20 20 20 20 19 18 17 19
9 10 10 11 12 14 16 18 20 20 18 20 12 14 4 13 3 21 12 14 20 22 28 31 28 26 27 29 28 24 23 25 25 26 26 22 20 21 21 21 18 15 15
9 11 13 14 11 10 11 13 13 14 13 15 15 7 4 3 6 8 24 12 26 21 29 28 26 24 21 21 24 26 23 22 27 30 23 22 22 21 20 20 18 16 15
11 12 13 11 9 10 14 16 13 13 12 13 9 11 11 10 3 6 5 25 16 30 30 29 22 16 14 16 18 20 22 23 22 26 29 23 18 14 13 14 14 14 14
10 10 15 13 11 8 12 14 11 9 10 10 11 13 11 17 12 4 10 10 20 24 32 27 25 13 15 14 15 18 19 23 19 18 17 13 13 12 10 12 13 12 12
21 29 24 5 3 9 12 10 10 12 14 11 10 11 11 8 12 10 5 17 17 21 20 26 14 18 17 17 18 15 15 19 19 18 21 16 11 9 9 8 10 11 11
24 17 8 4 6 8 8 9 9 10 9 11 11 10 10 11 13 13 13 15 5 17 11 18 20 21 20 22 21 13 12 12 15 13 17 22 13 4 4 6 6 10 12
18 11 4 5 12 8 7 8 8 9 9 10 11 12 13 12 9 11 10 11 10 7 15 15 14 15 22 20 15 10 10 8 10 15 16 19 25 22 7 7 4 4 9
8 7 2 11 8 10 9 9 8 9 10 11 13 13 13 9 9 12 14 14 8 8 9 15 7 18 16 15 9 9 6 10 10 9 12 14 22 26 22 19 11 8 7
10 7 12 14 6 13 11 10 12 11 14 16 14 12 11 10 13 16 19 19 17 16 10 14 21 22 17 17 14 10 3 5 10 10 11 13 13 22 29 31 22 11 7
6 6 5 8 14 11 9 13 14 17 17 14 9 10 14 16 17 21 22 23 24 21 13 17 23 24 15 12 14 12 13 4 6 8 12 11 12 15 17 18 14 10 16
5 7 9 16 16 14 12 14 16 15 10 11 11 14 19 20 20 21 23 24 22 23 21 17 19 10 8 8 10 13 12 13 11 7 15 18 17 8 17 14 13 10 12
17 22 24 22 18 14 14 16 15 12 13 10 14 19 19 18 20 23 24 25 24 23 22 21 19 19 17 14 13 13 13 13 10 10 8 10 14 18 10 19 18 18 15
21 18 18 17 14 15 15 16 13 11 11 17 20 19 18 18 21 23 24 19 20 17 14 15 17 16 12 10 6 5 9 13 14 9 7 8 5 11 4 9 16 17 16
16 18 13 10 17 14 14 11 10 11 17 19 19 20 19 18 21 20 20 21 22 18 12 11 9 6 7 7 6 3 6 11 15 14 14 10 6 2 11 10 4 14 15
19 9 15 15 16 8 6 7 12 16 18 18 22 21 20 22 20 22 22 20 20 19 15 13 11 7 8 11 8 7 8 4 3 4 8 15 13 9 6 8 11 7 8
8 14 16 11 3 3 7 10 13 15 17 19 19 21 22 19 23 22 21 20 21 19 17 19 16 14 15 18 15 13 11 10 9 14 10 12 12 16 13 8 1 2 3
11 18 8 3 2 7 9 9 11 14 15 17 21 22 21 22 22 21 24 18 17 15 13 13 15 18 19 17 17 17 15 14 13 15 13 5 11 13 14 13 11 10 10
11 4 4 1 4 7 9 9 11 13 17 20 18 20 18 19 19 22 20 18 17 17 17 15 15 16 14 9 13 13 15 12 9 11 10 11 11 12 13 13 15 15 16
3 5 2 2 4 6 8 9 12 15 16 18 21 19 16 16 21 20 20 19 16 19 18 17 17 15 13 16 18 16 14 10 8 3 11 11 7 4 3 3 6 15 16

GFSMA_925_spd_015.txt.gz
Wind_Speed
2 2 1 1 3 5 8 9 10 10 8 9 9 8 8 9 11 12 13 15 15 15 15 14 14 15 16 16 15 16 17 18 18 15 15 16 15 14 15 15 18 22 23
3 2 2 2 4 8 10 11 9 6 6 5 5 6 8 11 12 13 12 13 14 15 15 15 16 16 16 17 17 15 16 17 19 19 14 15 16 16 16 15 17 20 20
2 3 2 4 7 9 9 6 5 5 4 5 7 8 9 12 11 14 10 9 10 13 13 15 17 17 17 18 19 18 16 14 17 19 21 17 16 17 15 16 18 20 19
4 2 4 5 6 4 4 5 5 5 5 8 10 10 11 13 11 5 3 5 7 9 12 14 16 19 22 22 21 21 20 17 15 16 18 21 19 17 17 17 18 19 19
1 2 3 3 3 4 6 6 6 6 6 9 12 11 15 15 10 2 2 5 8 9 11 16 20 22 24 27 27 25 22 21 19 16 16 18 20 19 17 17 17 17 18
3 4 3 4 5 6 6 7 7 6 6 10 13 11 15 10 4 1 6 7 7 10 12 15 18 20 27 29 30 29 26 23 21 19 16 16 19 21 20 18 17 15 14
3 4 5 7 9 11 11 12 12 10 8 12 11 14 12 6 4 5 8 9 9 12 13 15 18 22 23 24 25 26 25 24 24 21 20 17 18 19 21 21 18 16 14
5 8 9 12 14 12 11 9 6 7 7 8 10 12 5 8 9 10 15 11 14 13 15 20 22 22 22 22 23 24 23 22 23 24 21 20 18 19 21 23 22 18 16
15 16 16 14 15 12 6 3 6 8 10 8 7 6 5 5 17 10 16 18 15 19 23 24 23 23 22 21 20 21 21 24 24 24 23 20 18 18 20 22 23 21 18
12 12 14 13 15 6 1 3 5 7 8 10 9 5 8 12 7 9 14 17 18 21 21 21 20 21 22 19 20 22 26 27 26 23 22 21 18 17 19 20 23 22 20
15 16 16 17 13 4 1 2 3 5 6 6 6 8 8 10 10 9 12 17 19 18 16 19 15 17 20 20 20 22 26 29 27 23 18 18 17 14 16 22 20 18 18
20 21 19 15 6 4 1 1 4 6 7 4 4 5 7 9 11 12 10 15 19 22 21 20 18 18 22 21 22 23 23 24 25 22 17 15 15 10 9 14 16 15 16
19 18 20 11 9 5 2 5 7 5 4 5 5 7 7 10 11 12 13 16 15 25 24 20 21 22 23 24 23 23 23 25 21 17 17 15 13 10 6 6 14 15 15
20 22 16 13 9 3 7 12 8 6 7 8 9 9 10 12 11 12 12 14 13 20 26 27 26 24 26 24 28 26 21 23 18 14 14 15 13 14 14 6 3 9 14
23 19 12 14 11 10 9 10 10 10 10 10 12 12 12 13 12 10 11 11 15 14 15 31 31 27 29 31 29 25 22 19 16 12 11 9 8 9 12 17 14 9 6
20 13 12 13 12 13 8 11 13 12 13 13 13 13 14 12 11 12 13 15 17 21 15 28 31 31 29 29 27 27 23 19 13 11 10 10 11 10 11 13 20 19 12
19 15 13 13 12 10 12 18 14 14 15 14 13 12 13 12 14 16 17 19 20 21 20 33 29 29 29 27 26 25 22 19 14 12 11 11 13 11 10 12 15 19 22
17 15 15 14 11 15 20 17 10 12 13 13 11 11 13 14 18 19 20 21 21 22 23 29 28 26 24 24 24 24 21 16 14 15 14 11 10 11 11 11 13 21 17
17 16 13 15 19 16 15 9 10 12 10 8 9 11 15 17 20 22 22 24 22 22 21 23 28 27 25 22 22 19 18 17 13 13 14 12 8 10 12 12 10 16 21
17 14 15 15 13 8 9 9 9 7 6 8 10 14 16 18 20 22 23 21 22 20 22 23 25 24 23 22 18 19 19 16 13 11 12 12 7 7 10 11 9 14 15
16 14 15 13 9 10 10 5 3 5 8 12 15 16 16 17 19 20 20 21 22 22 21 21 22 21 20 18 15 11 15 17 14 12 11 10 9 8 7 8 9 11 13
16 14 10 9 12 8 3 3 6 7 10 13 15 17 18 16 15 17 18 18 19 21 22 22 22 19 21 19 18 13 10 10 9 4 6 7 7 9 8 7 7 9 11
16 12 10 10 4 1 2 6 9 8 11 13 15 16 16 15 16 16 17 20 20 18 20 22 22 20 18 17 18 18 14 13 16 14 11 13 9 10 9 9 5 3 3
12 8 8 3 3 1 5 8 12 10 11 12 13 14 15 16 15 17 21 20 18 18 18 18 19 19 19 19 18 17 18 17 18 18 14 15 13 12 9 8 10 6 5
10 7 4 4 4 1 5 9 10 10 11 13 13 14 14 15 16 19 20 19 19 20 15 16 19 19 19 18 18 18 18 15 14 16 15 14 16 14 10 8 10 13 10
11 9 5 5 4 3 6 8 9 9 12 14 14 14 13 14 17 19 19 18 19 19 21 19 17 15 14 15 16 17 18 17 13 9 10 10 9 7 4 3 5 11 18

GFSMA_925_spd_018.txt.gz
Wind_Speed
1 3 3 3 2 2 3 6 7 10 10 10 10 9 9 10 9 9 9 12 10 10 11 11 11 12 13 14 13 12 11 11 10 14 14 15 14 15 16 17 16 17 20
6 5 4 4 3 3 5 7 9 11 11 11 11 9 9 10 10 10 11 11 13 11 10 11 12 12 14 14 14 14 15 15 13 13 14 16 16 15 16 17 18 17 18
10 5 4 4 4 4 6 7 8 9 11 12 13 13 14 13 13 12 12 12 11 13 15 12 11 13 14 14 15 16 15 16 16 16 16 16 19 19 17 17 18 19 18
6 3 2 2 4 5 6 7 9 11 13 13 13 15 16 16 17 15 12 11 11 11 12 16 17 17 18 17 16 18 18 18 17 18 18 17 17 20 21 19 18 18 19
3 1 2 4 5 6 7 8 9 10 13 14 16 19 19 20 21 19 14 11 9 9 12 14 18 18 20 20 20 19 18 20 20 19 20 20 20 17 22 23 19 18 18
4 4 4 4 5 7 8 10 11 13 14 15 18 21 18 21 19 16 11 12 12 11 12 15 16 16 19 20 22 21 20 21 20 20 20 22 22 21 19 22 24 20 18
5 5 5 6 8 10 11 12 14 17 17 14 18 18 20 21 10 13 15 14 14 15 18 17 18 20 21 21 21 21 24 22 20 22 22 22 24 24 23 21 24 25 21
6 6 7 8 10 13 15 13 11 12 13 10 14 20 10 16 19 8 17 19 18 18 18 20 22 22 21 20 20 22 19 20 24 23 24 24 24 25 26 24 24 27 25
6 7 8 10 12 14 15 10 7 7 11 11 10 12 8 10 19 22 16 20 17 19 20 20 20 20 20 20 19 19 19 25 25 26 26 25 25 25 26 27 26 27 29
8 10 11 12 13 13 11 9 7 7 8 12 15 13 13 17 11 11 20 19 21 20 21 21 19 21 21 22 22 19 18 24 27 26 27 26 26 25 25 25 28 28 31
12 14 15 15 15 13 9 7 6 6 10 15 15 13 12 13 14 13 11 18 21 19 19 18 20 22 22 22 22 22 25 25 26 28 28 27 25 25 24 24 26 30 31
17 18 17 17 15 12 9 7 5 10 14 12 9 9 11 12 13 14 12 17 20 23 20 21 20 21 23 24 25 25 23 26 29 30 27 25 25 24 23 20 20 25 30
18 19 19 17 15 12 9 6 8 12 10 9 9 10 10 12 14 16 19 20 17 26 26 24 24 24 25 26 27 24 27 31 26 30 27 21 22 22 22 21 14 11 21
18 19 18 16 13 11 8 9 12 10 10 10 10 12 13 15 16 17 19 20 14 23 27 28 28 29 29 27 29 31 30 27 24 26 24 18 15 15 18 19 16 10 7
17 17 16 13 11 12 11 12 13 13 13 12 13 13 15 18 19 19 20 20 21 14 16 31 33 30 29 29 29 30 30 28 25 24 22 15 14 14 15 14 18 20 14
17 17 16 14 15 16 16 15 17 16 15 14 16 16 18 19 21 20 21 21 22 25 16 31 32 31 30 30 29 28 28 28 27 26 16 13 14 15 15 14 17 16 21
17 17 16 16 16 16 17 19 20 19 16 15 16 17 18 20 21 21 23 24 26 27 23 34 32 31 29 27 27 25 27 25 24 21 15 7 12 12 13 14 15 17 16
17 17 16 16 16 18 21 22 18 13 13 15 16 17 19 21 22 24 25 25 26 27 26 31 30 29 28 28 28 26 26 25 24 18 13 16 15 15 14 14 15 16 16
17 17 16 16 16 17 18 15 10 11 13 13 11 14 18 21 24 24 24 25 24 24 23 27 29 28 28 27 26 23 23 25 22 18 12 12 12 11 13 15 17 17 14
17 17 16 16 16 14 11 10 10 11 10 8 10 14 19 19 19 20 23 23 21 21 22 25 27 26 24 23 22 21 20 19 19 18 14 12 14 14 12 12 16 16 15
17 17 16 15 11 10 9 10 10 9 9 12 14 16 16 16 17 16 17 19 20 20 20 22 24 23 23 21 19 20 19 20 19 15 15 14 15 12 10 10 11 15 14
17 16 15 15 12 8 8 6 5 9 12 14 15 15 16 14 13 17 15 16 18 21 23 24 24 22 25 23 18 19 18 17 9 11 10 13 8 10 12 12 11 16 16
15 13 13 11 9 5 5 5 7 9 12 13 13 14 15 14 15 15 17 19 22 19 20 22 25 24 25 23 21 20 19 18 17 17 10 14 12 12 12 11 14 13 13
12 12 11 7 5 5 6 6 9 9 12 11 12 13 14 15 15 14 19 21 20 20 20 20 21 23 24 21 20 19 21 22 21 19 17 15 16 14 11 12 12 13 10
13 12 9 8 7 6 6 6 8 9 10 11 11 12 12 14 13 16 20 21 21 20 17 17 20 22 22 21 19 19 20 19 18 18 16 18 17 15 14 14 11 11 9
12 10 9 8 8 7 8 6 6 8 10 12 12 12 11 10 15 17 18 18 19 19 22 22 20 18 17 16 13 16 18 18 18 15 13 11 10 10 11 13 10 9 9

GFSMA_925_spd_021.txt.gz
Wind_Speed
3 2 6 12 10 9 10 11 12 13 15 15 15 14 14 16 15 15 14 14 9 11 11 9 9 10 11 12 12 12 13 12 13 13 13 13 16 17 16 17 17 16 15
6 20 14 11 8 8 9 11 11 13 15 16 16 16 16 16 16 15 15 17 13 11 12 12 13 12 11 12 13 14 14 14 14 14 15 15 16 17 19 18 18 19 19
13 4 6 6 7 7 9 11 12 14 16 17 18 18 19 18 19 19 16 18 14 13 9 12 11 15 15 14 15 16 16 16 17 16 15 17 17 16 17 21 20 20 21
3 1 3 3 5 7 8 10 12 13 16 18 19 20 21 22 21 21 23 19 12 16 14 9 16 20 12 14 17 18 18 17 17 18 18 17 19 20 18 18 21 23 21
2 1 1 2 5 7 9 10 12 15 18 20 23 22 22 26 22 22 22 20 10 12 13 19 18 21 8 17 18 19 17 17 19 18 18 20 19 21 23 21 21 23 25
2 1 1 3 6 8 11 13 15 17 19 22 23 20 25 20 23 21 17 14 14 15 13 13 20 19 20 20 21 20 18 20 20 17 20 21 22 22 23 25 23 23 24
3 3 3 6 8 10 13 15 18 19 21 20 18 19 21 25 22 15 21 13 13 18 17 20 18 18 22 21 19 18 22 18 17 21 23 23 24 25 26 25 27 25 25
3 4 6 9 10 14 16 17 17 18 17 17 17 17 11 20 22 19 20 20 24 17 20 18 20 20 19 20 19 21 17 14 17 22 24 25 26 25 26 27 27 28 27
5 7 9 11 14 15 17 17 15 14 18 16 17 15 11 11 21 23 23 24 24 21 20 22 21 21 19 21 20 19 21 23 25 25 26 26 26 27 27 27 28 28 30
7 10 12 13 15 17 17 16 15 12 15 15 18 20 20 20 11 13 20 21 21 22 21 22 20 20 22 23 21 21 18 23 25 25 28 28 28 26 27 27 27 28 29
10 12 15 16 16 18 17 15 14 14 13 17 19 19 17 17 18 17 12 19 23 23 23 21 19 22 23 22 24 23 25 27 20 24 29 29 29 27 26 27 27 27 28
11 12 14 16 17 17 16 15 13 12 15 17 16 15 16 15 15 17 12 19 21 25 24 22 23 23 24 25 25 25 25 23 29 31 29 27 28 25 24 24 26 26 26
11 13 15 16 18 17 16 14 10 15 18 15 13 17 15 15 15 17 18 20 17 26 26 25 25 25 26 27 28 27 28 32 33 29 26 25 26 24 22 21 21 24 22
11 14 15 17 17 15 14 10 14 17 14 14 15 14 16 15 17 17 20 20 13 21 26 27 26 28 27 27 28 28 29 30 32 32 29 28 24 22 21 21 20 20 21
12 14 15 16 16 14 16 15 17 18 17 14 17 14 14 16 17 18 20 22 20 12 14 27 27 29 27 28 28 28 29 30 30 30 34 29 27 26 24 20 21 22 21
12 14 15 16 17 17 17 19 19 21 21 15 19 14 15 17 16 19 22 22 23 22 15 27 29 29 29 30 29 28 29 29 32 32 33 28 27 22 19 18 19 19 20
13 15 16 16 16 17 17 19 22 21 21 18 16 14 15 16 18 21 23 24 25 25 21 28 30 30 30 29 29 29 30 30 30 31 32 26 22 18 12 13 16 17 17
14 16 17 17 17 17 16 18 21 19 16 15 12 14 16 18 21 24 24 25 25 27 27 26 30 29 29 28 29 29 28 27 26 30 24 19 19 21 18 17 19 19 19
15 17 17 17 16 16 16 18 16 14 12 12 14 13 16 19 23 23 22 23 25 26 25 23 26 26 27 26 27 26 25 24 25 25 22 21 16 18 11 13 18 20 21
16 17 17 18 17 17 14 11 11 12 12 12 10 13 17 20 18 16 21 20 21 22 22 22 23 25 25 25 25 25 23 22 23 23 21 18 13 16 15 16 15 16 19
16 17 17 17 17 14 10 7 10 10 10 11 14 17 18 15 16 14 14 19 19 20 21 22 22 23 25 24 23 25 23 21 22 22 17 18 16 20 14 13 14 12 16
16 16 16 15 14 9 6 10 6 7 12 14 17 17 16 15 11 16 15 12 16 21 24 24 24 23 25 24 24 23 22 20 12 19 13 14 15 9 11 11 10 12 18
16 16 14 11 11 3 6 6 5 8 12 14 15 14 15 14 14 15 15 18 20 23 24 25 26 24 24 23 24 23 22 20 21 20 17 16 17 11 12 15 8 12 17
16 14 13 11 10 5 8 8 7 8 12 12 12 13 13 13 12 12 17 19 21 21 21 20 21 25 25 27 26 25 25 25 22 23 21 18 19 17 15 14 13 14 17
15 14 13 10 10 8 11 8 7 9 11 11 12 12 11 13 12 16 16 19 21 21 19 20 21 23 25 26 25 22 20 19 16 21 18 18 22 17 17 16 16 17 13
14 13 12 10 9 5 9 11 8 8 10 11 11 11 10 7 12 13 16 18 20 20 23 23 21 20 19 18 17 18 18 17 17 17 15 11 13 13 12 19 19 16 10

GFSMA_925_spd_024.txt.gz
Wind_Speed
4 5 5 9 8 6 8 12 14 15 16 14 16 12 16 15 14 15 15 17 17 12 9 6 6 8 11 14 16 17 17 17 18 18 17 15 12 14 15 14 15 13 15
3 3 8 7 6 5 9 10 13 12 14 17 16 17 17 18 17 16 13 15 18 14 6 4 8 11 12 14 15 17 18 18 18 19 19 18 18 16 15 18 15 17 15
3 3 3 6 6 6 8 10 11 14 13 16 18 19 19 18 18 20 19 19 23 15 6 4 9 14 12 13 15 16 18 18 18 19 20 20 19 18 19 18 19 16 18
1 4 5 2 5 6 7 8 10 12 16 18 18 21 18 16 20 24 19 17 16 5 7 5 9 15 13 11 15 17 20 17 17 19 18 20 23 22 20 20 20 21 19
7 4 2 3 5 6 8 9 10 14 16 18 20 21 17 21 20 21 22 19 20 8 7 10 10 15 14 11 15 20 21 18 19 19 16 21 23 25 25 23 21 22 23
5 4 2 3 5 6 8 11 13 14 15 17 20 21 17 13 21 24 25 15 14 9 11 10 14 9 13 16 16 16 17 23 20 16 20 22 24 25 27 28 24 23 23
5 4 3 5 6 7 10 12 14 14 14 16 19 17 16 18 16 22 16 22 21 20 19 13 12 14 14 15 14 16 20 16 16 20 22 25 25 25 27 28 29 26 23
3 3 3 4 7 10 12 13 14 15 12 13 14 19 4 10 15 17 22 19 20 20 17 17 19 15 11 13 12 18 17 17 18 21 23 25 27 28 28 28 28 29 27
2 2 5 7 9 10 12 14 14 15 8 11 14 10 4 3 15 14 18 22 21 20 20 16 16 14 15 15 19 17 18 24 22 20 25 27 29 29 29 29 29 29 29
3 5 6 8 8 11 13 14 13 13 11 11 13 14 17 19 4 7 9 15 20 20 21 20 19 15 15 19 19 17 22 21 20 16 22 28 31 30 29 29 28 29 29
6 7 8 11 13 15 15 16 16 15 12 12 12 14 13 15 16 9 6 11 18 20 23 21 17 20 20 17 19 20 17 20 19 21 25 29 30 30 29 28 28 28 28
6 7 9 11 13 14 16 16 14 10 6 11 16 15 11 11 11 10 5 12 15 18 18 22 21 20 18 20 21 24 25 27 27 26 27 29 31 29 28 28 27 25 25
7 9 11 12 13 15 16 16 11 10 11 17 14 15 14 14 12 11 12 14 10 21 22 21 22 23 22 25 27 23 27 26 26 28 29 30 30 30 28 28 27 25 24
6 9 10 13 14 16 16 13 14 14 14 15 17 17 15 13 13 14 11 12 8 16 19 22 21 23 25 27 20 25 26 27 26 27 29 30 32 31 30 28 28 26 24
6 9 12 13 15 17 18 15 17 17 18 17 15 14 15 11 16 11 13 17 16 7 9 22 23 22 22 22 23 26 27 27 29 31 33 33 33 32 30 27 25 24 23
6 10 12 13 14 15 16 18 15 15 16 17 16 16 17 10 12 10 12 17 20 21 10 22 23 22 17 24 23 26 29 31 32 32 33 34 34 34 29 23 23 22 20
8 10 13 14 16 17 17 13 14 17 16 18 17 10 11 15 10 12 14 18 19 20 16 23 25 23 26 26 27 28 29 30 31 28 28 32 32 30 27 24 23 20 18
9 11 13 16 16 18 15 15 16 17 13 14 11 8 8 11 13 14 17 16 18 21 23 22 24 24 24 25 26 27 26 26 29 28 29 29 27 23 24 21 25 26 21
10 10 14 16 17 18 14 11 10 11 10 10 10 9 10 12 15 13 13 17 20 20 21 22 24 24 23 23 26 26 26 26 25 25 26 24 25 26 27 21 21 19 19
11 11 14 15 18 18 14 8 7 8 12 10 8 8 12 13 11 13 13 15 15 18 20 20 21 22 22 24 24 23 23 24 25 26 25 24 25 24 16 22 22 24 20
13 14 13 14 16 14 8 4 5 10 9 7 9 12 14 14 15 15 13 14 13 16 18 20 20 22 21 19 19 21 20 23 27 25 23 22 22 24 20 23 25 24 17
14 13 13 14 10 8 7 5 7 4 7 12 12 12 13 13 8 11 10 8 13 17 21 21 22 21 22 21 20 20 21 20 13 21 24 25 22 22 23 14 11 9 10
14 14 14 12 11 8 8 6 4 5 7 11 12 12 13 12 13 12 13 16 19 19 22 24 23 21 19 18 21 22 22 21 22 26 25 24 23 24 23 18 15 12 16
13 15 14 12 9 9 9 7 6 5 6 11 10 11 12 9 13 13 16 21 17 19 20 21 18 21 22 25 27 24 25 25 26 24 21 18 22 25 26 23 17 15 17
16 14 15 12 8 10 9 9 7 4 6 10 10 11 12 10 12 14 19 17 18 19 18 21 25 22 22 23 24 25 23 18 18 20 21 20 20 25 23 22 22 19 18
15 13 8 8 6 6 7 9 7 6 6 9 10 10 14 7 10 13 14 15 17 18 23 26 22 22 22 22 20 18 18 17 16 14 11 9 15 17 7 10 11 15 19

GFSMA_925_spd_027.txt.gz
Wind_Speed
7 6 3 6 6 7 6 6 8 9 7 7 9 13 12 14 13 13 15 13 13 13 8 3 5 6 8 10 12 15 18 19 19 19 19 19 20 21 20 18 15 14 14
5 2 2 4 4 5 6 4 6 8 7 9 12 14 14 15 11 11 15 19 15 15 9 3 3 6 7 9 10 13 15 17 18 19 19 18 20 22 23 23 21 18 16
4 1 3 5 4 5 4 5 4 5 5 7 10 12 17 9 11 13 14 17 18 11 7 3 4 5 6 7 9 10 14 15 14 18 20 19 21 22 23 25 25 23 20
4 7 7 4 3 5 5 3 4 7 10 12 13 13 11 17 16 14 16 18 20 14 8 4 4 7 7 8 8 11 13 12 15 17 15 18 22 24 24 24 26 26 24
8 10 3 2 4 4 3 5 7 11 13 11 12 13 15 11 10 15 17 15 16 16 5 5 5 5 7 9 10 10 11 13 17 14 14 17 21 25 26 26 26 26 27
10 7 4 4 3 1 4 8 11 11 11 13 13 12 10 15 14 13 12 16 16 15 14 6 8 8 10 8 8 8 11 16 12 13 17 19 21 22 26 28 27 27 27
8 6 7 4 3 4 7 10 9 11 14 10 9 15 15 11 10 14 17 15 18 17 14 16 15 11 10 9 8 8 13 10 11 11 15 19 23 24 25 27 28 28 28
6 4 1 3 7 11 12 9 11 14 12 7 8 12 4 11 9 19 18 20 16 15 17 18 17 14 11 10 9 10 11 12 14 18 19 18 20 25 28 28 27 29 28
5 1 4 5 7 8 9 11 12 11 4 8 8 4 3 1 6 2 16 9 13 15 16 18 21 12 11 15 17 15 11 14 11 9 14 18 21 24 28 29 29 28 28
8 5 3 1 3 6 9 11 12 14 11 4 3 5 8 10 1 4 2 8 10 16 20 21 16 18 18 15 13 12 15 10 17 13 17 22 25 26 27 30 30 29 28
6 5 4 6 10 13 11 12 15 14 9 3 2 6 12 12 10 3 3 5 11 11 12 12 20 20 19 19 20 20 21 18 19 17 20 23 26 29 31 31 32 30 28
4 0 3 8 10 11 13 13 13 5 3 6 8 11 11 6 5 4 3 4 7 11 14 18 16 21 21 19 22 24 19 19 20 18 22 26 28 30 31 29 29 29 29
3 2 6 8 10 11 12 14 10 10 13 12 12 10 11 11 8 6 5 6 1 16 16 19 18 18 21 24 26 20 20 24 27 25 23 26 28 30 30 30 29 29 29
2 2 5 7 10 12 13 13 15 14 14 15 13 12 13 13 16 11 9 5 3 5 12 16 22 22 21 22 15 19 22 24 27 28 26 27 30 30 29 28 28 28 29
2 2 7 8 10 13 15 15 14 16 12 11 11 12 14 15 14 12 12 14 5 2 6 17 20 16 15 11 20 22 24 32 31 31 32 28 27 27 28 28 29 27 25
4 5 6 9 11 14 15 17 11 7 10 9 12 12 12 9 6 8 7 10 11 12 3 10 18 20 19 24 25 26 30 26 28 28 28 28 28 30 27 28 30 27 24
4 6 8 10 13 15 17 9 12 13 13 10 8 6 4 5 3 4 6 7 6 11 7 14 20 20 25 24 26 24 25 27 25 26 26 28 28 28 27 25 25 21 22
5 6 7 9 13 14 15 16 15 12 9 7 5 3 2 1 3 5 8 7 11 16 14 14 22 24 23 23 25 26 27 24 27 24 24 27 24 24 25 28 26 27 26
6 8 9 10 13 15 16 14 7 6 6 5 5 5 5 8 9 7 8 13 15 16 17 18 21 23 24 26 26 26 24 24 23 24 26 25 24 26 21 24 27 21 23
7 9 11 13 12 14 13 6 5 4 4 5 4 4 8 7 7 11 12 11 11 13 16 19 20 20 21 26 24 21 20 21 25 28 26 23 19 23 23 26 23 21 20
11 15 17 13 12 9 9 11 9 9 7 2 6 6 6 9 10 9 7 10 10 15 17 19 18 19 21 20 18 17 20 23 28 24 24 24 25 26 27 24 21 18 20
11 15 13 12 11 11 10 10 8 7 6 5 7 7 7 8 6 3 5 4 8 14 17 18 18 18 20 19 17 21 23 21 13 18 18 30 25 28 27 21 25 19 10
16 11 11 12 13 13 11 9 8 7 6 4 6 8 9 9 10 9 13 16 18 20 14 18 22 16 20 21 21 23 22 19 21 30 23 24 25 25 26 24 23 23 17
14 14 15 13 15 13 11 12 11 8 6 6 7 8 8 10 10 13 16 17 19 17 15 15 19 25 22 21 23 23 27 27 28 32 22 14 24 25 27 29 21 17 17
18 19 18 15 10 9 10 11 10 9 7 8 9 8 8 8 11 9 14 18 20 18 13 15 16 17 18 19 18 20 18 16 15 23 25 16 16 20 22 21 14 13 16
17 16 14 10 12 12 10 13 14 12 10 9 8 8 9 9 8 12 16 17 16 15 16 18 19 20 20 17 17 17 19 18 19 15 13 8 18 14 8 9 23 21 23

GFSMA_925_spd_030.txt.gz
Wind_Speed
14 13 10 9 10 8 7 4 4 4 4 6 7 8 10 12 10 10 10 8 8 8 3 3 5 5 5 4 5 7 9 11 13 15 16 16 19 20 21 22 24 23 23
10 8 8 9 8 5 4 3 4 4 6 5 7 11 12 13 10 10 10 9 9 5 7 7 5 5 4 6 8 9 10 9 10 13 15 14 17 20 22 22 23 24 23
9 8 7 7 5 5 4 1 2 2 4 8 11 12 11 12 14 12 13 14 9 6 7 6 3 4 4 4 5 7 8 8 9 11 9 12 16 20 22 23 23 23 23
11 8 9 8 7 5 4 4 5 8 11 13 11 9 11 11 7 11 13 16 16 3 6 4 3 4 4 3 3 6 7 7 10 8 9 12 15 19 21 23 24 23 23
13 12 9 8 6 5 4 6 8 11 11 8 8 7 7 8 9 9 11 14 16 13 4 1 5 4 3 4 5 6 7 10 11 9 10 12 15 16 20 23 24 24 24
14 12 10 8 4 3 5 8 10 10 10 12 11 6 7 8 5 8 10 12 14 13 9 8 9 7 7 6 7 10 11 13 8 10 11 12 14 17 19 22 26 26 25
13 11 7 3 2 3 6 9 8 10 12 8 7 9 8 4 3 10 9 10 9 9 9 9 10 5 7 9 9 8 11 12 10 10 12 15 16 18 20 22 24 28 28
10 7 3 1 3 5 7 8 9 10 9 5 3 3 2 7 3 15 9 13 3 4 6 9 10 9 8 11 9 10 10 10 10 11 12 13 14 18 23 25 27 27 29
7 5 5 5 3 2 3 4 7 7 6 7 4 3 1 3 3 5 11 2 2 5 6 6 5 6 9 11 8 7 8 7 7 7 10 12 16 19 24 28 30 32 31
8 7 7 5 3 1 3 5 6 9 10 9 5 4 5 5 3 3 6 7 4 6 8 9 9 9 12 12 14 16 16 15 12 10 13 16 19 22 25 29 32 33 33
10 9 8 3 2 5 6 8 9 9 8 6 4 4 7 12 11 5 3 5 8 9 7 8 11 14 15 18 16 18 21 16 12 11 13 17 22 25 27 28 31 33 32
10 5 3 4 7 8 8 9 9 4 2 6 9 8 7 4 5 7 4 7 8 8 6 9 11 14 16 18 18 22 20 13 15 13 15 18 23 27 30 31 31 30 31
9 4 2 5 7 7 8 10 7 7 9 11 8 8 8 9 10 7 6 6 6 5 6 10 12 16 17 16 19 17 13 17 20 20 21 23 26 30 31 31 29 29 29
7 4 4 7 7 8 10 11 11 10 10 9 10 11 12 14 14 10 7 5 3 5 5 2 15 9 10 12 12 15 20 23 28 29 26 26 25 24 25 24 25 26 27
5 1 4 6 8 9 12 12 15 13 8 8 11 11 14 16 14 13 15 10 5 2 3 4 3 10 18 19 23 25 28 32 26 23 23 20 21 22 23 24 25 25 27
5 2 7 4 7 10 12 14 14 7 9 10 10 11 11 10 13 13 7 5 7 3 3 5 12 21 22 25 25 23 24 23 24 21 20 22 22 22 23 23 22 23 25
5 7 6 6 7 10 12 13 13 14 13 9 8 9 6 6 8 5 6 6 5 5 6 11 21 22 24 25 25 24 24 23 21 20 21 20 23 25 22 21 22 24 26
12 9 8 8 9 11 12 14 15 13 12 10 8 6 5 6 5 7 7 8 7 9 8 12 18 23 26 22 23 25 22 21 22 22 21 22 24 23 21 20 20 22 26
12 11 10 10 12 12 11 13 15 11 9 5 9 7 6 6 8 9 8 10 9 8 10 11 17 24 24 23 26 25 22 25 25 23 25 25 25 20 18 20 21 22 25
11 9 11 14 14 13 12 14 11 10 9 9 6 6 6 7 6 8 10 8 8 10 13 17 20 19 18 24 23 21 21 22 29 30 28 23 21 21 23 21 21 22 22
3 8 12 15 17 14 14 14 12 10 10 7 6 5 5 7 8 7 8 8 7 11 14 18 16 16 17 17 16 20 21 24 30 26 21 19 27 23 21 21 22 21 23
4 9 16 17 13 16 15 14 12 10 10 9 8 8 8 10 10 9 8 7 8 11 15 15 15 14 14 20 22 21 23 20 10 19 9 32 27 24 21 21 21 21 22
12 14 12 13 14 14 16 16 13 12 12 10 9 9 9 11 10 10 10 10 11 15 15 14 17 15 19 23 22 23 20 19 21 31 22 22 25 25 21 21 21 24 19
13 11 15 16 17 15 15 16 14 13 12 11 10 10 12 12 12 11 11 13 15 18 15 12 13 20 19 22 22 23 23 23 22 25 18 12 25 24 19 23 16 14 12
10 15 13 15 16 16 12 15 16 17 15 13 11 12 13 13 11 12 11 14 18 17 10 10 12 16 18 16 15 18 17 16 18 23 23 15 19 16 20 15 13 17 20
9 10 16 16 15 17 15 15 17 18 16 15 13 12 13 14 12 10 12 15 15 12 12 14 16 17 17 18 16 14 16 16 17 14 16 9 17 13 6 7 20 20 21

GFSMA_925_spd_033.txt.gz
Wind_Speed
13 15 13 11 11 9 8 8 8 8 7 7 7 10 11 11 10 8 7 5 3 2 2 3 3 3 5 7 8 9 9 9 11 11 10 13 15 18 19 21 22 23 23
15 14 12 11 10 9 8 7 7 6 6 6 8 10 10 10 10 10 10 10 6 2 2 2 2 2 3 4 6 7 7 7 10 10 8 10 14 17 19 21 24 23 23
13 13 12 10 10 9 8 6 6 4 4 6 9 9 11 10 7 10 10 10 6 0 3 5 3 3 2 2 3 4 4 6 9 6 8 10 12 15 18 20 21 22 23
12 13 14 12 10 9 5 4 4 4 7 9 8 9 9 6 7 9 10 12 11 4 7 5 5 5 2 1 2 3 5 6 9 9 8 9 11 14 16 18 19 20 22
11 14 13 11 10 6 3 2 3 5 6 6 6 6 5 8 6 7 10 11 10 7 4 5 4 1 3 2 3 6 8 10 12 8 11 13 12 13 15 17 18 20 21
17 15 13 10 7 5 2 1 5 5 7 10 7 5 7 4 3 5 8 9 7 4 1 2 2 1 2 4 7 9 10 11 12 11 12 14 15 15 15 17 19 20 22
16 12 11 8 7 3 2 3 4 8 11 10 7 8 6 4 3 4 6 5 3 2 0 1 2 1 3 2 4 7 9 11 11 13 13 14 16 16 17 18 21 22 24
14 11 8 8 4 1 2 6 9 9 8 6 4 4 3 3 7 4 7 7 8 2 3 5 3 1 3 5 6 7 8 9 10 12 14 15 16 16 19 22 24 25 27
12 9 8 3 1 3 6 9 8 7 5 5 4 3 0 3 3 10 5 8 5 4 9 6 3 4 6 7 8 9 11 13 12 11 13 15 18 20 23 25 28 29 29
11 7 4 3 5 6 9 11 9 7 6 7 5 8 9 4 2 3 6 10 9 10 9 10 10 9 8 8 9 10 12 14 16 15 15 18 20 22 24 26 28 30 30
11 9 6 5 7 8 9 9 10 8 7 5 5 3 6 9 10 8 3 6 11 12 16 14 13 11 10 12 14 14 16 20 13 11 13 16 20 23 26 27 29 32 33
13 10 8 7 8 11 10 9 7 4 4 5 7 7 7 6 5 6 3 7 9 13 16 16 13 10 10 11 11 14 15 16 14 13 14 18 21 25 28 32 34 34 34
14 11 8 4 10 7 6 7 8 7 7 8 7 8 9 11 12 14 14 10 7 8 10 13 13 9 10 10 11 10 13 15 18 20 21 22 24 28 32 33 30 28 29
15 12 3 11 4 4 5 7 7 7 8 9 10 10 10 13 15 15 11 4 5 6 10 10 7 5 8 16 18 21 25 25 28 27 24 24 24 23 24 25 26 26 26
13 4 3 3 3 4 5 8 8 8 6 6 8 12 12 14 15 14 11 11 5 2 2 4 4 9 19 23 24 22 22 24 21 21 21 20 20 21 23 24 25 26 27
15 10 9 5 5 6 7 8 8 6 8 11 11 12 12 13 11 12 11 10 10 8 2 6 12 17 21 21 23 19 19 19 19 16 16 18 20 20 22 24 24 23 24
18 14 10 12 10 9 8 7 8 10 12 13 11 11 11 9 9 10 9 9 11 10 11 15 17 20 22 24 22 21 21 20 17 18 20 20 21 23 23 24 24 23 23
17 13 13 11 10 10 9 11 10 11 12 12 10 8 9 10 11 10 10 10 13 11 11 14 21 23 25 26 22 22 22 20 20 21 21 24 27 27 26 25 20 21 21
19 17 13 11 11 12 15 14 14 13 13 13 13 11 9 10 11 12 13 12 12 11 12 14 19 23 27 24 23 22 22 23 25 23 26 23 20 20 21 23 23 23 23
18 14 9 10 12 17 18 17 15 15 12 13 14 13 12 13 13 11 12 13 12 12 13 15 21 21 20 22 19 17 23 22 27 28 22 19 20 25 24 24 23 23 22
10 6 5 11 17 20 19 17 17 15 14 14 13 12 12 12 12 12 13 12 12 12 13 16 19 17 16 17 15 20 21 25 26 18 19 26 28 28 25 21 19 21 22
7 2 10 14 16 13 14 17 18 18 16 15 14 13 13 12 12 12 12 11 10 11 14 16 18 14 16 17 21 20 21 16 8 14 19 30 27 29 26 22 19 20 23
3 6 11 15 14 14 14 17 20 19 17 17 17 15 14 13 13 12 12 12 12 12 14 17 18 16 16 18 21 21 20 20 19 24 22 25 27 30 29 23 22 17 21
7 8 13 15 15 15 15 16 19 20 20 19 18 16 14 14 14 14 15 15 14 15 17 13 12 13 15 18 19 20 22 21 22 22 16 15 26 29 30 26 21 12 16
7 12 13 12 15 17 16 15 17 21 22 22 19 17 16 15 15 14 15 15 15 17 12 9 10 12 13 15 17 19 20 16 18 21 22 15 19 27 26 23 10 14 17
14 12 13 17 17 17 16 19 20 23 25 23 21 20 18 17 14 14 16 15 16 16 11 11 12 14 15 17 18 15 17 15 15 13 7 16 22 15 7 11 11 17 16

GFSMA_925_spd_036.txt.gz
Wind_Speed
13 11 10 12 11 11 10 11 10 9 7 6 7 8 8 9 8 8 7 7 4 3 2 4 5 4 5 7 8 9 9 10 11 8 10 13 15 17 18 21 22 23 23
13 13 14 13 11 10 10 9 9 7 7 5 6 8 9 9 9 8 9 9 6 4 4 4 6 4 4 5 6 6 6 8 9 7 9 10 12 14 17 19 21 22 21
13 14 14 13 11 10 9 8 6 5 4 4 7 8 8 4 4 6 7 6 5 2 5 7 5 4 3 3 2 3 3 5 8 6 7 9 11 14 15 17 18 19 20
15 15 13 12 11 11 9 6 5 3 4 6 7 6 3 2 3 5 5 7 4 4 6 6 6 5 3 2 1 3 5 6 9 11 6 9 11 15 15 17 17 17 18
14 15 14 13 12 10 8 5 4 3 4 4 3 1 0 0 4 7 7 8 7 4 2 2 4 2 1 1 3 5 8 9 11 11 11 11 12 13 16 18 20 19 20
15 16 15 14 12 10 6 3 3 4 3 4 1 1 3 4 4 5 6 7 5 4 3 5 6 6 5 3 3 5 7 10 12 13 13 14 14 15 18 17 17 19 21
16 16 15 14 11 6 4 4 3 3 3 4 1 4 3 6 4 3 5 6 5 7 4 3 6 6 7 9 8 8 9 11 13 14 14 15 17 18 17 18 19 20 21
17 16 15 12 8 5 5 4 3 2 4 4 1 2 3 2 2 3 6 4 10 11 4 6 9 6 6 7 7 5 7 8 10 13 14 16 17 18 20 22 23 23 24
18 16 13 10 9 7 6 6 5 2 4 4 3 1 1 1 4 2 6 4 10 8 8 7 8 8 8 8 8 10 10 11 12 14 17 19 19 22 23 24 25 25 26
18 14 12 11 10 7 6 6 5 7 10 7 4 2 4 3 2 4 4 9 12 13 13 11 11 13 11 8 9 9 11 11 15 16 15 17 20 21 23 24 26 27 28
16 15 13 12 9 7 5 5 7 9 6 3 0 3 5 6 8 6 3 5 10 13 17 17 17 15 9 10 11 13 12 13 14 14 13 16 19 22 25 28 29 30 31
19 16 14 9 4 4 6 6 9 6 2 1 4 6 7 5 5 8 5 9 9 15 15 18 19 12 11 13 9 10 12 16 18 18 17 18 21 24 28 31 32 33 34
23 20 14 10 2 5 6 5 4 3 4 7 8 8 9 11 12 14 14 10 5 12 8 12 14 16 8 10 14 17 20 23 26 27 27 26 27 28 30 32 32 31 30
26 23 16 4 9 5 3 2 4 4 6 7 8 10 11 13 15 17 15 7 4 8 7 10 7 13 12 13 20 25 26 25 26 26 24 24 25 25 24 25 27 27 29
27 24 12 5 6 3 3 2 4 5 7 7 8 11 13 13 14 15 15 13 7 4 5 7 8 8 12 19 24 24 24 23 22 21 22 22 22 22 23 24 25 26 28
28 20 11 11 8 8 4 4 5 8 10 10 12 13 13 13 13 13 11 12 13 10 4 5 8 15 15 20 20 22 22 22 22 21 19 20 22 23 24 25 26 27 28
27 16 16 13 14 9 9 8 9 10 11 11 13 14 13 12 11 12 12 11 12 13 10 12 15 15 19 21 23 22 21 22 21 20 20 22 22 25 27 28 28 28 27
23 18 16 17 14 10 10 10 13 13 12 13 14 15 13 11 13 13 14 13 14 16 15 15 19 17 21 24 24 22 22 19 23 23 23 24 25 24 22 22 23 25 26
18 20 17 16 13 11 10 14 16 15 15 15 16 16 15 14 14 14 15 16 17 16 15 16 17 18 22 24 24 23 21 25 25 21 22 20 17 19 22 24 24 25 27
20 22 17 14 10 5 14 20 19 19 19 18 17 17 17 17 17 16 16 16 16 16 15 15 17 21 20 22 21 17 22 21 25 24 17 16 23 24 23 23 22 22 23
15 10 5 4 4 14 19 21 23 22 21 19 18 18 18 19 17 16 16 16 16 16 15 14 17 16 17 16 14 19 20 25 23 12 20 25 28 27 26 24 22 19 18
17 10 4 6 13 16 19 19 18 21 22 22 20 19 19 18 17 16 15 15 15 16 15 14 15 14 17 17 18 19 20 17 12 13 25 31 23 29 27 26 22 20 20
8 3 2 11 13 15 20 19 19 20 23 24 22 22 21 20 17 16 15 16 16 15 15 15 18 20 17 16 17 19 16 19 21 22 23 27 25 29 29 31 26 20 17
8 9 8 10 17 18 15 17 18 19 22 25 25 23 23 21 19 18 16 18 19 17 16 16 19 15 14 14 16 18 21 24 21 20 18 18 22 26 30 32 22 15 9
11 9 10 17 16 19 20 19 19 19 21 24 25 24 24 23 21 18 18 20 20 19 16 16 13 12 13 14 15 17 20 15 18 19 22 13 14 28 24 21 14 12 13
11 14 17 15 18 19 14 13 16 19 22 25 26 26 25 26 23 20 20 20 21 21 16 14 13 14 14 15 15 15 16 14 15 12 5 14 21 13 11 13 15 23 16

GFSMA_925_spd_039.txt.gz
Wind_Speed
14 13 12 13 13 14 13 13 11 9 8 6 5 5 6 6 7 5 4 4 3 3 4 6 6 6 6 6 6 6 5 7 7 6 7 9 10 13 16 19 20 20 20
13 13 15 14 13 13 13 11 9 7 6 4 4 5 6 6 7 7 7 6 6 4 4 5 7 6 4 3 3 3 3 4 5 3 5 7 6 10 13 15 17 18 17
16 15 16 16 14 13 11 10 8 6 5 3 3 4 5 5 5 5 6 6 6 4 4 7 6 5 4 4 1 0 1 2 4 8 8 5 8 10 12 13 16 16 16
16 16 16 14 13 13 11 9 7 5 4 3 3 3 3 1 0 1 3 3 2 2 3 6 7 5 4 2 2 4 5 8 10 11 8 9 12 13 11 14 16 16 15
15 16 15 14 15 12 11 8 6 3 2 3 2 0 1 2 4 5 5 6 5 3 2 3 7 7 7 7 5 7 9 11 12 12 13 13 11 12 12 16 16 16 17
16 15 16 16 15 13 10 7 4 4 3 2 1 2 3 5 5 5 4 2 2 0 3 4 4 4 7 9 9 6 8 12 13 14 14 15 15 14 15 15 15 17 18
16 18 19 18 16 12 10 7 5 3 1 2 3 5 3 6 5 4 3 2 2 4 5 5 3 5 7 10 11 11 11 11 12 13 15 15 16 17 16 17 18 19 20
20 20 20 19 15 12 9 7 4 3 3 5 4 4 1 4 7 6 5 5 4 7 5 7 6 9 7 8 9 11 9 10 11 13 15 17 18 19 20 21 22 22 23
21 21 20 18 15 12 10 6 5 6 5 6 6 2 1 2 2 3 4 3 4 8 8 9 9 7 7 7 8 10 11 10 12 13 15 17 18 19 21 22 23 24 25
22 21 19 17 16 13 8 6 5 5 8 4 3 3 4 3 3 4 2 7 9 9 9 9 9 9 9 7 8 10 12 13 14 13 15 17 19 21 22 23 25 26 27
22 22 20 20 18 13 10 8 7 4 4 3 3 3 4 2 3 6 8 9 12 10 10 9 10 11 10 10 6 7 10 11 13 14 16 18 21 23 24 26 28 30 30
23 23 23 21 18 14 12 8 5 1 6 5 5 6 5 4 6 7 9 13 13 12 10 10 12 11 9 6 7 9 14 20 23 25 23 24 26 27 29 30 31 32 33
26 28 26 25 19 15 10 4 4 7 8 5 6 5 6 6 7 8 11 15 13 14 11 10 12 10 8 7 9 17 19 25 27 28 26 25 25 26 26 28 29 29 30
32 30 28 22 17 11 6 6 10 7 7 6 6 7 6 6 7 10 12 13 10 16 12 12 12 10 8 8 13 19 20 25 27 27 25 24 24 24 24 24 25 27 28
33 31 28 23 15 11 10 11 8 6 6 5 6 6 8 7 9 10 11 11 13 8 9 11 12 9 9 11 14 20 21 23 28 26 26 25 23 23 23 24 26 27 28
35 34 29 20 16 13 14 12 6 5 5 6 8 9 12 12 10 10 11 11 11 12 7 13 13 12 11 13 17 18 21 25 23 25 23 22 23 25 25 25 26 28 30
33 32 28 21 16 14 13 7 4 3 12 10 12 14 13 12 11 10 10 12 13 12 15 18 13 13 12 16 18 19 20 20 21 21 22 24 25 26 26 27 27 27 28
29 30 24 20 17 17 13 8 4 10 17 15 16 14 14 12 12 11 11 13 14 14 16 19 18 15 14 15 17 18 18 19 19 21 22 24 24 24 22 23 24 26 27
28 33 23 22 19 18 11 9 11 16 18 20 18 16 16 13 14 13 13 13 14 14 14 16 20 16 16 15 17 18 18 19 19 20 23 22 18 18 21 23 25 26 27
29 28 24 20 16 12 8 8 18 19 20 22 22 19 17 16 16 15 14 14 14 14 14 16 18 17 16 15 15 17 18 18 21 21 19 15 19 22 22 22 22 23 23
21 19 16 15 9 4 9 19 18 19 20 20 22 21 20 20 19 18 15 15 14 14 15 16 17 16 16 15 16 16 18 19 20 18 17 16 22 21 19 19 20 20 21
15 14 11 5 2 14 19 21 17 22 21 21 19 20 22 21 21 21 20 19 17 15 16 16 16 16 17 16 14 14 17 17 17 17 21 24 21 22 20 19 22 25 24
14 10 4 16 19 20 20 16 21 20 19 19 19 19 19 23 22 19 19 20 19 20 20 17 17 17 17 14 13 15 16 18 22 23 23 23 21 21 18 21 25 24 22
6 9 13 17 17 17 15 17 20 22 21 21 20 21 21 20 19 21 19 16 17 17 18 18 18 18 16 13 12 15 18 21 22 20 19 21 19 20 22 23 21 14 16
9 12 15 13 13 15 15 19 18 17 18 19 21 21 21 22 23 24 21 19 19 20 19 22 21 19 17 14 14 15 18 19 20 20 18 11 16 24 22 21 13 16 22
8 8 11 13 16 17 19 20 18 18 18 17 18 21 25 26 26 25 25 24 22 22 17 15 15 15 15 15 16 15 16 17 18 15 6 14 20 17 10 13 18 20 19

GFSMA_925_spd_042.txt.gz
Wind_Speed
13 12 12 11 11 12 10 10 10 8 7 6 5 4 5 6 7 6 5 6 4 4 5 6 6 6 6 5 4 3 3 4 4 3 5 6 6 9 11 13 14 16 15
11 11 10 10 10 10 10 9 8 6 5 4 4 3 4 5 5 5 5 4 6 4 2 4 8 7 5 4 3 1 1 1 1 1 4 5 4 7 9 10 12 14 13
11 11 10 10 10 10 10 9 7 6 5 3 3 3 3 3 3 3 3 4 5 7 2 4 5 5 5 5 3 3 4 3 3 8 6 4 6 8 11 8 12 13 12
12 12 11 11 12 11 10 8 7 5 3 1 1 1 1 2 2 2 1 2 3 2 2 5 6 6 6 3 3 6 8 10 12 12 12 11 12 12 11 10 12 13 13
13 12 12 13 13 11 10 9 7 4 3 1 1 2 3 4 3 2 2 1 1 1 1 3 7 8 9 9 6 8 11 13 13 13 14 14 14 14 12 12 14 14 15
15 13 13 14 13 12 11 9 8 5 3 1 2 4 5 5 5 6 5 4 3 2 4 6 7 8 10 10 12 11 12 13 15 15 14 15 15 15 15 16 15 16 17
14 15 14 14 14 12 11 10 8 5 3 1 3 6 7 8 8 8 7 6 5 5 6 7 8 7 9 9 12 10 11 12 13 14 15 15 16 17 18 18 18 19 20
16 15 16 15 14 13 12 10 8 5 3 2 3 7 5 7 9 10 9 8 8 7 8 8 8 9 11 10 9 12 13 11 11 13 15 16 18 19 20 20 20 22 22
17 17 16 16 16 14 13 11 10 8 5 4 5 6 4 7 4 9 10 8 7 8 9 9 9 10 10 11 13 12 11 14 12 13 15 18 19 19 21 22 23 24 25
18 17 18 18 18 16 15 14 12 10 7 9 11 13 12 8 5 5 8 10 8 9 9 9 10 11 12 13 13 15 17 13 14 14 12 15 18 21 23 25 27 28 29
17 18 19 19 19 17 16 14 13 11 11 14 11 8 9 9 8 7 8 9 9 10 9 11 11 12 14 13 13 13 13 14 14 15 17 20 23 26 28 30 30 31 31
19 19 19 19 17 15 15 14 12 11 12 11 10 10 10 9 9 10 9 12 12 13 9 10 11 13 13 13 12 13 15 16 19 21 22 22 24 26 27 29 29 29 30
21 22 23 20 18 16 15 13 13 11 11 11 10 10 10 10 9 10 11 13 12 12 12 10 12 13 14 13 14 14 13 20 24 26 24 23 23 24 25 26 27 28 28
24 27 26 23 19 16 15 12 13 10 10 9 9 10 10 9 9 10 11 12 9 14 15 12 11 14 14 15 14 19 19 20 23 24 26 24 23 24 25 25 26 27 27
27 26 28 24 20 19 15 13 8 11 10 9 9 9 11 10 10 10 10 12 13 10 10 14 15 12 13 17 17 19 22 23 24 29 24 23 24 24 25 25 26 27 27
25 22 24 22 18 19 17 15 11 12 7 7 9 10 10 11 12 11 13 14 14 16 11 16 17 15 14 18 19 19 23 23 25 24 23 23 24 25 26 27 27 27 28
25 26 26 23 22 22 19 14 12 9 8 11 12 12 12 12 13 14 14 15 16 16 16 21 18 17 15 18 20 21 22 24 24 23 21 24 26 25 26 26 27 27 26
24 21 23 23 24 18 15 17 13 9 7 13 15 16 16 15 15 16 17 17 18 18 19 21 20 20 20 17 20 21 21 22 23 23 23 26 26 26 25 23 22 24 25
19 18 19 17 13 12 15 13 10 7 17 16 18 19 20 20 19 18 18 19 18 19 19 19 21 20 20 18 20 20 20 21 21 21 23 24 21 22 22 24 25 26 27
14 17 18 16 15 13 13 8 11 20 20 19 20 22 23 23 22 20 21 20 19 20 20 20 20 20 19 18 18 20 20 19 21 21 22 21 22 23 25 23 24 24 24
12 15 15 18 15 14 12 16 17 18 19 20 21 22 23 25 25 24 23 21 19 20 19 19 20 19 19 17 17 18 19 19 20 19 20 20 22 24 22 21 21 21 18
14 18 14 14 15 15 15 19 23 22 19 22 23 22 22 24 26 29 28 26 24 21 21 20 20 20 20 18 17 18 17 18 17 16 20 24 22 23 22 21 19 23 26
13 13 13 13 14 15 21 22 24 17 20 22 22 23 23 23 22 24 24 25 27 27 27 24 22 22 20 18 17 18 17 18 20 21 21 24 22 23 21 20 19 24 22
8 8 9 11 13 13 18 18 17 18 21 23 23 23 24 25 25 24 24 25 23 24 23 23 24 23 20 18 16 17 17 20 21 20 18 22 22 21 21 23 22 21 18
4 5 6 11 14 15 13 17 16 18 21 22 22 23 23 24 25 25 25 27 26 26 26 26 27 23 23 23 22 17 17 17 18 19 17 19 17 22 23 24 17 10 21
3 4 6 9 12 14 15 17 19 19 22 24 24 24 23 24 26 26 26 26 28 28 26 25 20 23 25 22 20 18 18 19 18 18 16 17 20 21 17 21 14 23 22

GFSMA_925_spd_045.txt.gz
Wind_Speed
13 13 11 13 12 10 11 8 7 6 5 4 2 2 4 6 5 2 1 5 2 5 6 4 8 8 7 7 6 5 3 3 3 3 6 5 4 7 9 10 12 14 14
12 11 11 10 10 11 10 8 8 7 6 5 2 3 3 2 1 2 1 1 5 3 4 7 9 9 8 6 5 4 2 2 1 2 7 5 4 6 9 9 11 12 13
14 12 12 11 11 10 10 8 8 7 6 4 2 1 1 0 1 2 2 2 0 2 1 4 5 8 7 7 5 4 4 4 3 7 8 7 8 9 11 9 10 11 12
13 12 11 11 11 11 10 10 10 8 7 5 3 2 1 2 3 3 2 2 2 1 0 5 7 8 8 5 6 6 7 7 9 11 11 11 13 13 11 11 11 13 14
14 13 12 11 12 11 10 10 8 8 7 5 4 3 3 5 4 4 4 3 3 3 2 1 6 10 10 8 5 5 7 9 11 12 13 13 12 12 13 13 14 15 16
12 13 12 12 13 11 10 10 10 8 6 4 5 6 7 6 6 7 7 6 5 5 5 6 7 10 11 12 15 16 10 10 11 12 12 12 13 13 14 16 17 18 18
14 15 14 14 14 13 13 12 11 9 7 5 6 9 9 10 9 9 9 9 7 7 6 7 9 9 6 6 11 9 7 8 9 11 12 13 14 15 17 19 20 21 20
17 17 16 15 16 15 15 15 14 11 8 7 5 6 4 5 13 13 12 11 9 9 9 10 9 10 11 12 3 6 9 13 10 10 12 14 15 17 18 19 19 21 22
19 19 18 17 16 16 17 16 15 14 12 9 7 2 3 5 13 11 14 12 10 10 10 11 11 11 12 12 13 11 9 8 10 10 11 13 15 17 20 22 23 25 26
18 20 18 17 17 17 17 17 15 13 11 9 5 8 11 10 4 5 10 13 12 12 11 10 11 11 12 13 12 15 16 14 15 13 11 14 18 20 22 25 27 29 31
20 19 18 19 18 18 16 15 13 12 10 6 9 10 9 10 12 11 9 10 12 11 11 10 10 11 13 12 12 12 9 10 12 16 18 17 19 21 24 26 27 29 30
18 20 22 21 21 20 17 15 14 13 10 7 9 11 11 10 12 13 10 14 13 15 15 10 12 12 12 12 12 15 17 18 19 20 22 20 21 23 25 26 27 27 29
19 21 23 22 22 22 17 15 16 16 11 9 7 10 10 11 13 13 14 15 13 15 14 15 15 15 12 13 14 11 12 15 21 20 19 21 23 25 25 25 26 27 28
23 20 24 27 25 21 20 18 19 15 10 6 9 7 11 11 12 14 14 15 9 14 17 17 16 13 13 13 13 18 17 20 17 18 23 28 27 24 24 25 26 26 27
21 24 30 28 25 23 21 16 16 12 9 8 7 7 11 14 15 15 15 15 13 9 10 17 16 14 15 15 16 17 18 21 23 28 33 28 24 24 24 25 26 27 27
22 25 29 29 27 21 19 17 13 11 9 8 3 8 14 17 15 16 16 16 16 17 10 18 18 18 18 19 17 12 18 23 26 26 25 25 21 22 25 27 28 27 27
21 21 20 22 22 20 17 15 13 13 13 5 6 13 16 18 19 17 16 17 18 18 17 20 19 19 19 18 20 21 19 22 25 25 23 24 26 28 28 26 27 27 24
20 20 22 24 19 19 19 16 13 12 10 4 12 14 20 20 20 19 17 19 20 19 20 21 22 21 21 20 21 20 21 24 24 26 26 26 30 26 25 25 24 24 24
17 17 18 19 21 16 17 15 14 15 11 18 15 17 20 22 22 21 22 22 21 22 21 21 22 22 22 21 22 21 22 21 25 25 24 23 24 21 26 28 26 25 23
11 13 16 18 17 20 16 17 15 16 19 14 17 20 22 23 24 26 26 25 23 24 23 22 22 22 22 21 19 21 22 22 21 24 23 24 24 24 23 25 26 25 24
11 13 14 14 16 17 21 20 17 16 13 14 21 22 23 24 25 27 28 26 24 24 22 22 20 22 20 20 19 20 20 22 23 22 24 22 21 22 22 22 23 23 18
11 14 13 15 17 13 14 15 14 9 17 18 24 22 23 24 26 29 32 34 37 29 28 25 22 21 22 21 20 19 19 20 18 21 21 23 22 23 22 21 21 20 21
11 10 9 9 8 7 9 12 16 18 20 23 21 22 24 25 26 26 27 30 30 33 38 32 28 28 25 23 21 21 20 21 22 22 21 23 21 22 22 21 20 22 25
9 7 5 3 4 6 9 13 15 16 17 19 21 24 25 26 26 27 27 28 29 28 29 30 30 32 30 27 22 20 18 20 22 23 21 20 21 21 20 21 24 26 24
7 5 5 4 7 10 11 9 10 13 17 21 23 24 26 28 28 29 28 27 31 33 30 31 32 30 27 28 21 15 16 18 18 22 19 19 21 19 20 22 21 18 17
4 3 2 3 4 8 9 9 9 14 19 22 23 26 28 29 31 32 30 26 27 31 30 29 23 24 28 30 31 26 22 20 19 18 18 16 19 20 18 21 13 25 23

GFSMA_925_spd_048.txt.gz
Wind_Speed
17 11 17 15 11 14 10 11 7 7 7 6 5 4 4 5 6 4 4 6 5 4 7 6 8 9 8 7 6 5 4 4 3 4 6 5 5 7 9 9 11 12 14
12 17 15 16 15 12 11 9 8 9 7 5 3 2 2 5 2 2 5 3 4 5 6 10 10 10 9 8 6 5 3 3 1 3 7 5 3 6 8 10 8 10 12
17 11 13 9 11 12 12 10 11 8 7 5 6 2 1 3 1 1 0 3 3 1 0 6 7 10 9 8 7 5 4 3 3 6 7 8 8 10 10 11 8 10 11
13 12 14 12 13 13 12 11 10 9 11 10 7 5 4 3 5 3 3 5 2 2 2 3 8 10 10 7 7 5 5 5 7 8 9 9 10 9 10 10 9 11 13
14 16 13 15 16 15 14 13 11 13 11 9 8 10 7 6 7 5 6 4 6 0 2 2 2 7 11 12 12 10 5 6 8 9 10 11 10 10 11 12 13 15 16
18 18 16 16 18 15 14 13 11 12 8 11 11 9 11 12 11 10 9 9 7 7 5 2 3 8 12 12 12 11 9 10 9 9 8 9 11 12 12 13 15 17 18
22 21 20 20 17 16 16 17 14 12 13 7 7 11 17 20 16 14 12 11 9 10 8 11 9 8 10 10 9 7 7 7 6 5 7 10 11 12 13 16 17 18 18
21 21 22 21 19 18 18 17 17 15 15 15 7 4 2 4 16 16 15 16 14 12 9 8 11 10 9 6 5 8 9 12 13 8 6 9 12 13 15 17 19 21 22
20 20 21 18 19 20 19 20 20 18 18 13 12 4 1 3 3 16 19 16 12 14 14 12 11 11 12 13 12 9 10 10 9 10 14 10 11 14 18 20 21 23 25
22 21 22 21 18 20 17 21 20 22 17 12 14 11 8 4 0 4 10 19 18 14 16 18 14 12 10 11 12 16 13 12 10 9 11 10 14 16 18 20 22 24 26
20 23 20 21 22 19 19 19 21 21 16 11 9 5 7 8 11 9 4 9 15 19 20 21 19 14 11 13 15 14 14 13 11 13 15 13 14 17 19 21 23 24 25
20 24 23 22 23 22 22 21 21 19 16 16 10 10 8 4 6 5 3 6 9 12 13 11 15 14 13 13 12 14 14 14 15 16 18 18 14 17 21 22 23 24 25
14 23 24 23 25 22 21 17 17 18 18 13 10 8 4 6 4 7 12 10 10 18 18 15 12 13 17 17 15 16 14 14 15 17 17 19 18 20 24 23 22 23 24
35 29 27 25 25 24 21 20 21 18 15 12 12 7 8 8 6 9 11 11 5 11 17 15 13 14 14 15 14 14 14 16 14 17 20 22 25 22 22 21 22 24 25
26 30 24 27 25 25 24 23 22 18 14 12 11 9 6 8 11 16 17 17 12 2 3 15 19 16 14 10 14 17 18 14 15 19 24 26 26 23 21 22 24 27 27
25 27 28 27 27 24 24 25 22 17 14 12 10 7 4 13 13 16 16 17 17 17 4 15 18 21 22 23 21 16 17 17 17 19 21 25 26 24 24 23 25 26 26
27 26 24 22 24 25 26 25 17 16 16 14 8 1 11 19 18 17 19 19 21 19 15 20 19 18 18 16 15 16 16 18 19 18 20 23 25 28 30 26 27 26 24
23 21 17 18 22 26 25 20 19 17 19 16 13 13 16 14 18 20 20 23 23 24 24 21 24 24 25 24 21 20 20 19 20 22 21 25 30 32 28 25 28 28 27
15 14 18 21 22 22 20 14 16 21 21 17 17 15 16 17 21 22 24 23 23 26 27 27 25 24 24 22 22 23 22 21 21 19 22 21 18 21 25 30 29 28 28
16 19 16 18 20 20 19 19 23 23 22 19 16 16 19 19 23 24 25 26 28 30 29 28 28 28 26 24 23 22 19 21 24 17 17 21 23 28 25 22 24 30 29
12 14 16 18 20 17 18 22 21 21 18 15 17 19 21 28 24 26 28 29 28 29 27 24 24 23 23 22 20 20 15 14 17 16 16 18 22 19 20 24 26 26 25
15 16 16 16 16 18 18 15 13 11 13 14 17 23 26 21 24 24 25 28 31 35 31 26 27 24 25 20 20 15 13 13 8 19 16 21 20 22 27 24 24 18 16
16 13 12 12 12 9 7 9 9 13 15 18 20 20 21 20 24 27 28 28 29 30 32 40 29 29 28 32 28 22 20 18 18 17 12 21 23 26 26 20 22 22 26
13 12 10 7 7 9 7 7 8 10 11 13 16 18 21 24 24 25 29 33 33 31 28 29 34 38 38 36 29 26 21 18 20 17 16 18 24 25 22 21 20 20 24
12 13 11 6 4 3 5 4 5 5 9 12 15 17 20 23 22 24 33 31 30 32 33 33 34 34 35 32 29 27 18 12 11 16 16 19 24 22 16 19 23 20 17
10 8 7 7 6 3 8 4 2 3 6 12 18 23 25 27 27 27 29 26 27 29 29 33 32 30 28 27 29 29 26 17 14 10 21 18 22 12 9 19 11 23 23

GFSMA_925_spd_051.txt.gz
Wind_Speed
19 20 18 17 16 14 13 11 12 10 8 9 8 6 7 8 6 4 5 6 6 2 6 7 7 8 9 8 8 6 5 5 4 5 5 5 5 7 9 9 9 11 13
18 19 17 18 18 17 13 12 12 8 9 8 7 5 6 7 4 5 4 2 4 4 1 8 8 10 10 8 8 6 5 5 3 3 3 4 5 6 7 7 8 8 11
14 14 19 20 18 18 17 14 10 10 12 8 7 2 5 6 3 2 1 1 1 0 1 3 10 12 10 9 8 7 6 5 4 2 3 5 5 7 7 8 8 8 10
11 15 15 16 17 17 17 15 17 13 12 10 11 7 8 5 4 2 5 5 3 2 2 2 6 11 11 10 10 8 7 6 6 6 5 6 6 6 6 8 9 11 13
15 17 15 17 15 17 17 16 15 15 14 14 14 11 11 9 7 4 7 8 4 7 5 4 4 6 9 11 12 10 8 7 7 7 7 6 6 7 8 9 10 12 13
23 17 19 19 18 21 19 17 17 17 17 17 13 15 16 14 12 11 12 12 9 9 8 7 7 6 7 11 11 9 9 10 10 8 5 5 7 8 10 12 13 15 15
25 24 24 19 20 21 21 21 18 20 16 14 15 8 13 15 17 16 15 14 13 14 13 11 10 10 11 12 11 9 10 8 6 3 2 4 6 9 12 14 15 16 17
28 28 28 25 22 21 22 25 25 19 19 14 8 2 1 3 19 19 18 17 17 15 14 13 13 11 12 10 12 13 10 9 10 10 10 8 7 10 13 15 17 18 19
32 29 28 27 23 24 25 25 27 24 20 16 17 7 1 3 1 11 22 19 20 21 19 16 14 14 15 16 14 14 15 13 14 13 13 14 10 10 15 17 18 19 21
30 29 26 25 25 26 26 25 25 25 20 18 15 17 8 3 2 2 9 19 17 19 21 23 21 21 18 18 18 17 16 16 15 14 14 14 14 12 14 17 19 20 21
29 27 27 26 25 24 25 22 25 26 25 20 19 9 8 7 8 7 3 8 10 22 24 24 21 23 21 19 18 18 18 17 16 14 13 14 13 11 13 16 19 21 22
29 26 20 29 25 24 22 24 23 23 23 18 16 11 7 3 8 9 5 9 7 8 9 20 22 25 26 24 25 23 20 17 16 16 15 15 17 12 14 17 20 21 21
28 27 23 32 24 23 24 23 19 24 23 20 16 11 9 9 10 8 8 6 7 13 16 13 7 12 22 25 26 22 20 20 19 18 18 18 15 14 15 17 19 19 20
34 20 25 21 23 23 22 23 22 23 21 20 14 13 12 12 10 9 7 8 4 5 14 16 14 12 10 17 23 22 21 22 21 19 19 16 15 18 16 17 17 19 21
28 21 23 19 24 21 24 25 24 22 22 20 19 16 13 12 8 8 11 17 16 4 3 13 16 20 19 15 15 19 22 24 22 20 19 17 17 18 17 18 19 19 21
24 22 20 20 26 25 25 25 23 24 22 16 14 17 16 10 10 14 18 18 18 19 5 13 17 18 20 24 25 23 22 23 23 22 22 20 18 19 21 24 22 19 21
19 19 20 25 26 26 25 24 26 22 17 15 19 16 10 10 14 17 15 20 22 21 17 20 21 20 24 24 24 24 24 24 25 25 24 21 20 21 23 24 23 22 22
19 19 21 24 24 24 25 26 23 19 18 21 18 13 9 7 10 14 17 21 23 24 26 22 28 33 32 32 34 32 30 27 28 27 25 22 23 22 22 23 22 24 23
21 20 22 21 22 23 25 25 22 18 20 19 17 17 8 9 14 19 21 24 25 25 25 28 30 32 37 35 31 32 30 27 30 29 25 23 20 19 20 20 23 24 21
22 23 21 20 21 23 23 22 17 18 17 21 19 10 12 15 18 22 26 25 26 26 27 29 26 28 28 30 34 31 33 28 33 28 24 21 21 20 19 20 15 17 22
19 19 20 20 19 20 20 18 16 15 22 19 10 15 16 17 24 26 24 25 29 32 31 29 25 25 26 26 25 29 30 31 23 23 19 20 21 18 18 17 20 24 22
17 17 16 17 17 17 16 13 13 16 14 13 15 15 16 21 19 18 22 24 25 25 25 25 24 22 27 28 31 32 27 14 6 23 21 24 21 19 18 21 24 19 19
17 17 17 16 16 13 13 14 13 12 11 10 12 14 13 15 16 16 19 22 23 24 24 26 30 27 27 30 32 30 26 25 20 26 22 23 20 20 20 19 17 19 19
18 17 17 16 17 15 13 13 12 10 9 7 6 7 6 11 16 22 26 29 31 32 30 28 26 28 28 29 34 35 33 28 26 21 19 13 21 20 21 20 18 14 16
20 19 17 17 17 15 12 10 9 7 5 6 8 10 13 18 19 21 25 32 36 37 35 30 30 36 38 39 36 30 26 18 12 18 18 18 18 18 20 18 13 15 14
21 20 15 12 12 13 13 11 10 8 6 6 9 12 13 15 19 20 24 28 30 34 34 34 32 30 28 31 30 29 27 19 12 7 21 16 18 11 6 13 13 8 16

GFSMA_925_spd_054.txt.gz
Wind_Speed
31 26 24 20 18 17 15 12 12 12 11 9 9 8 8 8 8 7 5 6 6 8 9 8 8 9 9 8 8 6 5 5 4 5 5 4 5 7 9 6 7 8 10
26 24 21 18 18 17 16 13 13 12 11 9 7 6 7 7 6 5 6 6 6 5 5 7 9 10 10 8 8 6 5 4 2 4 3 5 4 6 7 7 7 7 9
20 18 19 19 20 20 17 14 15 14 11 10 8 8 9 7 5 4 6 6 5 3 4 4 9 10 11 10 8 7 6 5 4 3 3 4 3 5 5 5 7 9 10
14 16 17 19 19 21 18 17 19 16 13 14 12 11 11 9 8 6 6 5 3 5 4 4 5 12 12 12 10 10 9 7 8 7 4 5 4 4 5 7 8 10 12
12 15 15 14 16 21 22 24 22 18 17 17 17 14 12 13 12 9 9 9 7 8 8 6 7 9 11 12 12 12 11 9 7 7 7 5 3 4 6 7 10 12 14
16 15 14 14 15 20 22 24 22 20 19 18 17 18 17 16 13 11 12 12 11 10 11 10 10 11 11 11 12 13 12 11 10 9 6 3 3 4 6 9 12 14 16
17 16 16 17 18 23 26 25 22 20 20 19 17 12 17 17 17 16 14 14 14 12 14 13 13 13 13 14 15 14 13 12 9 8 9 9 8 8 8 11 13 15 17
22 24 26 25 24 23 24 25 25 23 22 19 13 5 2 8 17 21 19 19 18 18 18 17 16 16 16 15 17 18 15 13 12 12 13 13 12 10 9 11 14 16 18
27 28 25 27 26 25 26 28 28 28 26 22 20 10 2 4 1 6 17 20 19 22 22 22 21 20 19 18 17 20 20 21 18 15 16 15 14 13 9 12 13 16 18
31 32 32 29 28 29 31 30 29 31 28 25 18 18 10 6 3 1 6 13 20 22 24 24 24 24 22 20 20 21 22 21 22 20 18 17 15 13 10 11 13 15 18
36 32 34 32 29 27 31 33 31 31 29 28 24 10 4 1 7 1 2 7 11 19 22 23 26 25 23 24 25 25 24 25 24 23 21 18 16 14 12 12 14 17 20
36 33 32 29 29 27 28 31 28 25 30 30 25 20 19 10 5 6 5 6 7 14 13 11 18 22 25 28 27 27 28 28 26 26 24 21 18 15 14 14 15 17 19
37 36 33 33 32 31 26 29 30 27 30 29 25 23 19 18 11 11 10 3 4 6 8 16 14 15 15 18 26 28 29 29 28 28 26 24 21 18 17 17 16 17 18
42 37 33 34 29 23 25 26 27 28 28 28 25 21 21 15 15 10 5 4 3 6 8 18 20 17 14 15 16 22 29 29 29 30 29 26 24 23 21 18 17 18 18
37 39 37 32 26 25 23 26 29 28 26 26 22 21 18 14 11 10 10 10 5 2 4 17 18 17 20 22 22 18 21 26 29 32 32 30 29 26 22 20 19 18 18
31 39 36 28 27 26 26 28 27 26 26 22 20 16 13 13 12 7 8 11 12 13 5 11 16 18 20 22 23 26 27 28 31 32 34 34 33 29 24 22 21 20 19
30 30 31 27 26 27 29 27 25 25 22 21 17 15 16 14 11 13 11 12 15 18 14 18 21 25 22 20 26 29 33 32 32 33 37 39 37 32 28 24 22 21 22
28 31 25 24 24 27 26 24 24 22 24 23 19 20 17 13 11 9 10 14 18 20 24 20 24 26 27 31 33 32 33 38 41 43 35 43 39 34 31 26 23 23 23
28 25 22 23 23 25 23 21 22 24 23 21 20 19 15 12 9 8 11 15 20 22 23 24 23 26 30 31 31 31 33 33 34 43 43 33 43 36 34 28 27 23 21
30 27 25 25 25 23 22 21 21 21 20 19 18 15 16 9 10 12 17 21 20 20 24 28 26 25 25 30 27 27 32 35 37 35 39 38 37 41 34 31 26 21 21
27 27 25 23 21 19 19 20 21 21 19 19 16 18 11 10 11 13 18 18 18 19 21 23 21 24 23 24 24 27 29 32 35 34 34 38 34 33 33 26 26 22 20
24 24 23 21 19 19 18 20 21 19 17 18 20 14 11 10 11 11 12 8 10 13 17 18 20 20 24 25 28 29 28 25 16 27 26 30 27 24 30 34 26 21 20
22 20 19 19 19 18 18 18 15 16 16 16 13 10 8 7 8 10 13 17 20 22 21 21 23 22 25 23 26 26 23 26 25 27 27 23 31 35 36 32 22 18 17
21 21 21 22 21 19 18 18 16 15 13 10 8 7 7 5 9 14 18 21 22 23 22 22 23 29 28 29 28 29 30 30 31 30 27 17 23 29 27 24 18 16 17
23 23 23 23 22 21 18 18 17 15 11 10 7 4 5 8 12 13 16 18 21 22 19 19 22 24 25 25 25 26 24 20 21 23 24 22 16 20 19 24 19 14 14
24 24 22 19 19 20 18 17 15 14 13 9 6 5 7 8 9 11 13 16 20 21 24 24 21 24 23 25 26 25 27 23 22 9 17 19 16 14 5 11 13 16 11

GFSMA_925_spd_057.txt.gz
Wind_Speed
32 31 28 24 24 23 20 16 13 17 13 11 10 8 10 10 10 9 9 9 9 9 8 8 8 10 10 9 9 8 7 6 5 6 5 3 7 7 7 6 8 9 10
35 30 26 25 22 20 17 13 14 13 12 11 9 8 8 9 8 8 7 6 6 7 9 10 9 10 9 9 8 7 6 5 4 4 3 5 4 5 6 6 7 8 10
32 26 25 24 21 17 16 14 15 13 11 11 10 9 8 8 7 6 5 5 4 6 8 11 11 11 11 9 8 7 7 6 5 3 2 1 2 3 3 5 7 8 10
23 24 25 22 18 17 17 16 15 16 13 13 11 11 10 10 9 8 5 6 6 8 8 8 7 12 13 12 9 9 9 8 7 6 2 2 1 1 2 4 6 8 10
22 24 22 19 17 18 19 18 18 18 18 16 13 13 13 13 12 10 8 9 9 9 8 7 7 9 11 12 12 10 11 11 8 5 6 5 3 2 2 4 7 10 12
20 22 18 14 13 19 23 22 21 22 20 19 17 16 15 17 15 14 12 12 12 11 9 8 8 7 8 11 12 12 14 13 11 10 9 9 8 9 8 7 9 12 14
19 17 15 14 15 17 21 24 26 25 23 19 14 14 17 18 19 19 18 17 16 15 14 12 12 9 10 11 11 13 13 14 13 12 11 12 13 13 12 9 10 12 14
16 16 16 15 17 18 20 23 26 26 24 20 10 4 1 8 20 23 21 20 20 19 19 17 15 15 16 14 14 15 15 15 16 14 13 13 14 14 11 9 9 11 13
19 16 19 20 19 21 22 24 27 28 26 21 21 9 2 4 0 9 19 20 20 22 21 21 21 20 19 19 19 18 18 21 20 17 17 16 15 14 11 9 8 10 11
25 22 23 21 22 26 26 27 29 31 29 24 21 16 9 7 4 2 5 12 17 19 23 23 25 24 24 24 23 21 21 23 25 22 21 20 19 16 14 12 10 10 12
29 29 29 27 28 29 31 31 31 31 30 26 24 12 12 11 9 3 4 6 7 15 19 21 22 24 26 26 25 26 25 26 27 26 26 24 22 20 18 14 12 11 13
33 35 34 35 34 33 37 30 27 28 26 26 30 28 23 11 10 8 4 8 7 12 13 16 17 15 16 21 25 28 30 32 30 31 31 27 24 23 21 19 16 15 16
35 36 36 37 36 38 36 27 28 29 27 31 32 33 33 25 18 16 12 5 7 7 6 11 14 13 13 15 18 20 23 28 32 34 34 32 30 27 25 23 21 18 18
37 34 34 35 36 36 33 27 26 27 28 28 32 33 26 24 20 21 15 9 2 5 6 12 14 18 20 16 17 18 20 22 27 32 35 36 35 33 31 30 25 22 21
38 37 35 36 38 38 36 27 25 28 28 29 29 25 25 19 18 15 12 11 7 2 3 9 7 14 15 16 18 21 22 21 20 23 30 36 38 39 38 37 31 27 24
36 38 37 34 35 40 34 28 28 27 27 26 25 24 20 19 15 13 9 7 9 10 2 5 11 19 20 23 23 23 22 23 26 28 30 34 40 43 44 43 38 33 28
36 34 32 28 27 30 28 27 26 28 27 27 24 23 23 20 17 15 11 8 9 9 8 10 16 21 21 22 23 23 27 30 31 30 32 35 38 42 46 45 45 37 33
35 34 39 38 30 32 30 27 30 31 30 28 27 25 23 19 17 12 8 6 8 10 12 14 19 21 21 23 25 28 29 28 30 31 32 33 35 37 37 44 48 40 37
44 36 36 32 31 30 29 32 35 30 30 29 27 24 22 21 15 13 8 4 9 14 16 16 14 20 22 23 25 28 30 31 31 31 32 33 35 38 41 41 43 45 41
40 40 35 31 30 29 30 33 30 28 27 25 22 21 21 18 16 12 10 7 12 14 14 15 16 18 19 22 24 26 30 31 33 31 33 34 34 35 38 41 46 47 43
37 37 32 31 30 28 29 30 29 26 25 23 22 19 17 16 10 9 9 9 10 9 10 12 15 18 19 21 21 23 27 32 35 34 36 38 36 35 34 39 39 38 27
34 32 32 30 27 28 28 27 26 25 24 23 24 18 18 11 12 10 8 9 8 8 11 13 17 17 18 22 23 23 22 22 21 26 23 31 30 33 32 34 33 33 30
33 31 27 25 26 25 22 21 21 21 21 19 19 20 14 11 10 7 8 9 11 14 15 15 18 20 21 22 24 23 21 22 27 31 27 34 28 30 33 34 32 31 30
27 26 23 23 23 20 19 19 18 17 17 17 17 14 13 10 7 9 9 12 13 13 12 12 14 18 20 22 23 26 27 27 29 27 21 25 30 33 34 30 32 26 19
21 21 21 22 23 21 20 19 19 20 19 16 13 10 8 5 5 9 10 11 12 13 13 14 17 18 20 21 20 21 21 20 23 27 21 21 27 28 28 28 23 18 21
22 20 20 18 19 22 20 20 19 19 18 15 11 7 6 5 6 6 6 7 9 12 17 20 20 19 20 20 18 18 22 22 21 20 17 17 21 15 6 12 22 18 20

GFSMA_925_spd_060.txt.gz
Wind_Speed
35 33 31 31 31 26 23 21 21 20 18 15 13 11 10 12 12 13 13 12 13 11 11 10 8 11 10 10 10 9 8 8 8 8 7 7 8 8 8 8 8 9 10
35 33 30 26 27 23 20 19 18 16 13 12 13 10 10 10 9 9 9 10 9 10 10 10 8 11 10 10 9 9 8 7 7 5 6 5 5 5 6 5 6 7 8
35 33 31 26 23 22 19 18 17 15 14 12 10 10 9 9 8 7 7 8 8 8 10 12 10 11 12 11 8 7 7 7 6 5 2 2 3 4 4 3 4 5 6
33 31 29 26 22 20 18 16 17 15 12 12 11 10 10 10 9 8 7 8 6 6 8 10 11 12 13 12 11 8 7 9 8 6 5 3 5 5 3 0 3 5 7
32 28 25 24 22 19 17 17 15 14 14 12 11 10 10 10 10 10 9 9 8 7 6 7 7 10 14 14 12 9 9 10 10 8 7 6 8 7 5 4 3 6 8
28 25 24 21 19 18 18 18 15 15 15 14 12 12 12 14 14 15 14 12 11 11 9 7 8 9 12 13 12 11 11 12 11 9 8 10 10 9 9 7 8 7 8
25 24 23 17 20 20 22 18 17 17 19 15 13 13 15 17 19 20 19 18 16 15 14 11 11 12 11 11 11 10 10 10 12 13 12 12 12 11 12 11 9 6 8
16 18 16 16 17 18 19 15 18 21 21 19 10 3 2 8 22 24 24 22 20 18 18 16 16 15 14 13 13 12 10 11 14 15 15 15 15 13 12 11 9 7 7
19 19 16 20 16 19 14 17 21 23 24 22 22 9 1 4 1 10 23 25 23 22 21 19 20 20 20 18 18 18 15 14 16 17 18 18 18 17 15 14 11 10 9
27 18 19 18 18 18 18 20 21 24 25 23 20 21 16 6 3 2 7 12 21 25 24 21 21 22 23 22 23 22 21 20 20 21 21 21 22 21 19 18 15 13 12
23 23 23 22 19 21 23 21 23 27 28 28 24 12 21 13 11 4 3 5 10 17 16 18 18 19 21 22 23 25 25 25 25 26 26 25 23 24 23 22 20 18 16
34 29 26 25 25 26 26 25 28 28 27 30 30 27 21 11 15 9 3 6 10 9 13 12 13 14 14 13 13 16 20 25 28 29 31 32 29 26 27 26 25 23 21
37 34 30 27 28 30 29 31 28 29 34 29 32 31 30 33 28 20 12 7 8 10 6 10 11 9 8 8 13 14 15 15 15 18 25 31 36 34 32 29 29 28 28
40 37 32 29 29 29 31 35 31 36 33 33 32 31 33 31 27 22 17 12 2 6 6 8 7 10 11 12 13 13 12 15 16 18 20 24 31 36 38 39 34 33 33
39 36 34 31 30 31 30 33 33 32 28 29 30 28 28 25 23 22 20 18 12 3 3 6 7 7 11 15 13 15 18 19 19 18 19 22 26 28 34 40 41 41 39
43 40 36 33 33 32 32 34 34 31 26 26 27 26 24 24 23 21 19 15 14 11 3 12 9 11 15 17 17 17 17 17 17 22 23 24 27 30 32 38 42 44 44
41 40 38 35 34 32 29 30 32 32 27 25 25 24 24 24 23 21 18 15 14 13 8 5 10 14 16 17 18 16 17 19 21 22 23 26 26 28 30 33 36 41 43
37 41 41 42 37 37 33 30 29 29 26 24 26 26 26 25 25 21 18 17 13 12 9 8 7 14 16 17 17 18 19 20 22 23 24 26 28 30 31 32 34 36 39
37 39 41 37 36 35 33 35 31 31 28 29 31 29 29 28 24 21 18 15 11 9 6 5 6 10 14 16 16 19 21 24 25 28 30 31 33 34 34 36 37 37 38
38 43 36 34 37 36 32 31 29 30 29 27 26 28 28 26 26 23 20 14 10 5 4 5 7 9 11 16 20 20 24 26 30 33 32 28 31 33 34 35 36 38 38
42 42 36 35 37 34 32 30 29 30 27 25 26 24 22 21 19 20 19 14 9 6 4 4 8 11 16 16 17 17 23 25 26 26 19 23 26 30 35 35 36 34 33
37 34 37 37 39 35 33 30 28 28 26 26 24 21 18 19 19 17 14 10 7 5 4 6 10 12 16 16 18 21 23 16 8 12 21 34 30 32 33 32 32 33 34
33 36 35 36 33 30 27 25 25 24 24 22 22 22 22 19 17 15 11 7 5 6 8 8 10 12 13 14 18 22 20 18 19 26 24 30 24 28 30 31 31 32 30
31 33 31 29 27 26 22 21 22 20 21 20 21 25 24 19 15 12 8 5 5 5 6 6 8 11 13 16 17 18 20 22 24 22 20 21 23 27 31 33 31 29 26
23 23 23 24 23 18 19 22 21 21 21 20 21 20 18 15 10 7 6 4 4 4 4 5 7 9 11 13 14 16 14 16 21 20 18 21 21 22 26 30 27 26 21
20 19 18 15 16 22 20 19 21 24 25 22 18 15 12 9 5 4 4 3 2 4 8 11 11 11 12 11 11 11 14 15 17 16 7 9 20 15 10 21 21 19 17

GFSMA_925_spd_063.txt.gz
Wind_Speed
39 36 34 31 31 30 30 29 27 24 21 19 17 17 17 15 14 12 12 14 14 13 12 12 12 12 11 10 9 9 8 8 9 9 8 9 8 8 9 8 8 7 9
41 38 36 32 31 28 27 27 25 23 18 17 16 14 15 15 14 13 11 12 14 13 12 12 11 12 12 10 9 9 8 7 7 6 7 6 6 6 6 4 4 5 6
39 36 36 33 30 27 24 24 23 21 18 15 14 13 13 14 13 13 12 11 11 14 14 13 11 12 13 12 9 8 9 8 7 6 5 6 4 4 3 1 2 3 5
37 38 36 34 29 26 24 24 23 19 17 15 14 13 14 13 13 12 12 11 11 10 12 13 13 12 13 14 13 11 11 9 10 9 7 7 6 6 4 3 3 3 4
37 34 33 32 28 26 22 22 20 17 17 16 15 13 13 12 12 14 13 12 11 11 10 10 12 14 15 15 14 13 12 12 13 12 10 7 9 9 7 7 6 6 5
33 32 30 27 27 27 23 22 21 19 18 15 11 13 14 14 15 16 14 13 14 13 11 11 11 11 14 16 15 13 12 12 13 12 12 10 13 12 11 9 9 9 6
33 30 28 26 25 23 24 22 18 19 17 17 11 7 11 16 18 18 17 17 17 16 15 14 13 11 11 13 15 14 13 12 13 14 15 13 14 15 14 12 12 11 8
31 30 29 27 23 25 20 24 22 18 13 17 8 4 3 7 18 22 22 22 21 19 19 17 16 16 15 12 13 15 15 13 14 15 16 17 18 19 18 17 16 14 12
35 29 27 23 27 26 21 25 24 23 15 18 21 7 3 5 3 6 19 24 23 24 22 19 18 20 19 18 18 18 19 18 18 17 17 19 21 21 21 20 19 17 15
32 25 20 17 20 17 17 17 17 23 18 13 16 24 17 4 4 4 5 11 17 23 22 22 22 23 22 22 22 22 22 22 22 21 21 19 21 23 23 22 21 21 19
32 29 25 21 28 23 22 21 22 24 23 17 18 12 18 13 12 9 6 6 12 17 19 22 24 24 21 23 24 24 23 23 24 24 25 25 24 24 25 26 25 25 24
32 26 28 31 28 24 25 24 23 24 24 24 24 21 15 8 14 11 7 12 7 10 16 17 21 21 18 18 19 18 16 16 18 19 22 25 29 29 29 29 28 28 28
34 34 33 30 26 23 24 25 25 26 26 27 24 23 29 32 19 16 14 7 8 12 9 16 19 17 14 12 10 10 14 15 14 13 14 16 19 24 28 30 33 33 32
33 37 37 32 28 27 26 24 23 23 25 28 29 35 32 30 23 23 17 13 2 9 9 7 14 14 13 11 11 10 12 13 13 15 16 18 19 20 22 25 30 34 37
37 39 38 35 33 30 27 25 24 24 26 29 32 26 25 25 24 26 25 22 16 4 7 12 9 13 14 10 10 10 11 15 16 16 16 17 20 23 27 30 31 33 34
36 37 40 38 33 31 28 26 25 28 27 28 29 27 27 30 28 25 26 25 22 14 5 11 12 11 12 12 12 11 12 14 14 15 18 21 22 24 25 27 30 32 35
39 38 39 38 37 35 32 29 29 28 30 27 29 29 29 30 29 27 26 20 17 20 11 5 13 14 16 15 13 11 11 12 12 16 17 19 22 24 27 29 31 32 34
35 39 36 32 37 39 37 33 33 35 36 31 30 27 29 30 27 27 27 24 20 20 13 11 12 14 14 10 10 10 8 9 12 17 21 24 26 27 29 31 32 35 37
33 31 32 35 36 40 38 38 40 36 35 32 31 29 33 31 26 29 28 24 20 17 12 9 9 8 11 6 6 7 10 12 15 19 20 21 21 20 22 25 28 31 34
35 35 36 37 36 38 37 40 38 34 34 32 34 32 32 31 31 29 28 25 17 17 14 9 9 8 8 7 7 9 11 10 15 16 17 14 16 19 21 24 26 26 30
38 37 35 33 32 33 35 35 36 35 34 33 32 29 29 29 30 28 29 25 22 19 14 10 7 5 7 8 8 7 11 13 15 15 10 11 17 20 19 21 23 25 26
34 32 34 33 31 35 37 39 37 35 34 33 31 25 24 21 21 22 22 20 19 15 13 7 7 6 8 9 7 9 11 11 7 6 12 23 19 21 20 20 23 27 25
30 33 33 33 34 36 39 36 35 34 32 30 28 27 25 24 24 23 21 20 15 12 8 9 9 6 7 6 7 10 11 12 15 18 19 22 16 23 20 21 24 27 24
29 29 31 35 35 37 36 30 29 28 24 23 25 27 29 28 25 24 22 17 11 6 7 7 7 5 6 7 8 11 14 16 16 16 14 16 18 23 21 22 24 23 22
27 30 29 28 28 27 25 24 30 24 23 23 24 26 27 26 23 20 17 13 9 7 7 6 6 6 8 10 10 9 11 12 13 13 17 18 15 22 25 27 18 19 21
22 18 17 18 19 19 20 28 26 27 28 26 22 21 22 21 18 14 11 10 11 9 6 3 3 4 6 5 7 6 8 11 13 11 2 9 18 19 12 19 14 21 18

GFSMA_925_spd_066.txt.gz
Wind_Speed
24 25 26 28 27 24 24 21 17 16 15 14 14 13 12 12 13 13 13 17 16 15 15 14 14 13 14 14 13 12 11 11 10 9 9 9 8 8 8 7 7 7 7
30 25 24 25 24 24 22 19 18 16 15 14 13 12 12 11 11 11 12 14 16 15 15 14 14 13 14 14 13 12 10 10 9 9 7 7 7 7 6 4 5 5 4
31 26 25 23 22 22 21 19 18 16 14 14 13 13 12 11 11 10 10 10 13 16 14 14 15 16 15 14 14 13 12 9 11 9 10 9 8 5 3 0 2 3 3
30 27 23 21 20 19 20 20 19 17 15 14 13 12 11 11 11 10 10 10 10 12 16 17 16 15 17 16 15 15 14 13 11 12 11 11 10 8 7 4 3 3 2
32 28 24 21 19 19 18 21 18 16 15 14 13 12 11 11 11 10 11 11 11 10 11 16 20 18 18 18 17 16 15 15 15 14 14 14 13 12 10 9 7 6 6
29 27 25 21 20 18 20 18 17 14 14 14 13 11 10 10 10 12 13 13 12 12 12 12 14 17 20 19 20 18 17 17 17 17 17 17 15 15 15 13 12 11 9
29 26 21 22 23 20 18 17 16 14 11 11 10 8 9 11 13 14 15 15 14 16 15 14 13 13 14 20 22 20 18 16 16 17 18 19 19 20 18 17 16 15 13
36 32 22 25 22 19 17 18 17 14 12 14 11 10 5 9 17 18 17 16 17 17 16 15 16 16 14 13 17 22 20 18 17 16 16 20 20 22 21 20 19 18 16
34 33 28 24 21 19 19 18 17 17 17 14 16 9 4 5 5 10 17 19 18 18 18 17 20 20 18 17 15 19 23 22 20 17 17 19 21 22 22 22 21 21 20
35 35 29 22 21 23 19 16 17 19 18 13 13 20 16 10 5 7 11 13 17 18 21 24 21 22 23 21 21 20 19 22 23 22 21 21 19 21 24 25 26 26 25
35 35 33 25 24 23 21 18 16 17 16 17 18 13 17 17 16 14 10 10 10 12 19 20 20 26 24 22 20 21 24 25 22 23 24 26 26 23 23 24 28 28 28
35 29 32 30 26 24 18 18 21 24 17 18 18 17 17 12 14 14 9 20 12 12 17 18 23 25 25 23 23 20 23 20 20 19 20 22 23 25 25 26 28 28 29
34 40 37 34 33 30 27 27 27 20 19 19 21 22 21 21 21 19 16 17 14 12 13 21 25 18 18 17 17 19 18 15 16 18 19 21 19 21 22 22 23 24 27
36 43 40 37 40 32 31 27 27 23 21 22 25 24 24 26 28 26 24 16 7 15 14 15 15 17 17 13 16 18 16 19 18 20 21 20 20 21 22 22 23 26 27
30 31 35 39 38 31 29 27 28 27 24 24 24 24 27 29 29 27 27 27 21 7 9 17 15 17 17 16 15 13 13 15 18 20 21 23 23 22 23 25 28 30 32
36 35 34 33 34 32 32 31 31 29 28 27 24 24 24 25 25 26 26 26 25 20 4 14 18 15 17 15 15 14 12 16 17 20 21 21 23 24 26 27 28 30 31
38 37 37 36 36 35 35 33 32 31 29 25 23 25 27 27 28 27 28 23 23 21 15 13 12 13 17 17 13 11 11 12 14 18 20 22 23 24 25 28 30 32 34
39 40 40 39 39 38 36 35 35 32 28 25 26 26 31 28 33 30 30 31 29 26 21 18 17 15 17 11 11 11 12 13 14 16 21 22 23 25 27 28 29 29 30
39 39 40 40 40 40 39 38 36 35 37 35 32 30 36 35 35 34 31 30 26 22 23 15 13 14 12 13 11 11 13 14 15 18 21 20 20 22 21 23 24 25 26
38 39 40 39 38 38 38 37 36 35 35 42 41 40 41 38 39 36 33 30 27 29 22 19 15 13 10 9 9 10 14 15 15 15 16 18 17 19 20 22 24 22 22
38 39 38 38 38 37 36 35 33 30 28 31 34 38 40 41 42 37 35 33 31 27 24 17 10 9 9 10 12 11 13 13 15 16 16 13 13 16 19 21 23 22 20
35 35 37 36 35 34 36 36 33 27 28 31 33 36 36 37 35 33 32 33 36 33 24 17 13 11 14 13 11 11 11 12 12 9 10 15 17 20 21 20 22 25 27
31 33 34 33 34 33 34 37 37 37 37 36 36 34 33 31 29 30 31 29 30 25 23 22 19 12 10 10 9 10 12 12 14 15 17 20 17 21 20 20 22 25 27
30 30 30 30 29 30 34 38 39 40 34 34 34 33 32 31 33 34 33 30 24 20 17 12 11 10 8 6 7 9 10 12 15 17 16 19 16 20 21 20 22 24 25
23 25 25 27 31 32 34 34 33 30 28 24 24 26 27 29 28 29 26 20 16 13 10 9 9 11 10 10 10 6 9 11 14 15 14 18 17 19 22 25 22 17 17
19 23 24 22 25 26 25 21 24 27 24 22 18 18 21 27 27 24 22 18 18 11 7 6 3 2 3 4 8 8 8 12 13 12 6 10 14 16 13 13 13 16 22

GFSMA_925_spd_069.txt.gz
Wind_Speed
27 27 27 27 27 26 23 21 16 16 15 14 14 13 12 12 14 14 16 18 17 16 15 14 14 13 13 13 13 13 12 12 12 11 10 9 9 9 8 7 7 7 6
24 26 29 29 27 26 23 20 17 17 16 15 14 14 12 13 12 13 13 16 16 16 16 15 14 13 13 13 12 13 12 11 11 10 10 9 8 7 6 5 4 4 3
29 23 26 27 28 25 23 19 18 17 16 15 14 14 13 12 12 11 13 13 15 16 16 16 17 16 16 15 13 14 13 13 13 11 10 9 9 8 5 3 2 1 2
31 27 21 18 20 19 19 20 20 18 16 15 15 14 13 12 11 11 11 13 13 13 16 17 16 17 18 17 16 14 14 13 14 13 13 12 11 10 8 6 4 2 2
26 26 23 22 23 21 21 19 19 17 16 15 14 13 12 12 12 12 12 12 13 13 15 18 19 19 19 20 18 16 17 16 15 15 15 15 14 13 12 11 9 7 6
25 24 21 20 22 19 18 18 17 16 15 15 15 14 12 12 13 13 14 13 13 14 14 14 18 20 22 22 22 19 19 20 20 19 18 17 18 17 16 15 13 12 11
27 25 22 20 21 17 17 18 17 16 14 14 13 12 11 12 13 14 15 15 16 16 16 15 15 16 20 23 25 24 22 22 21 22 22 21 22 21 21 20 18 16 15
28 25 23 22 20 19 20 19 18 15 15 15 14 15 6 11 16 18 17 18 18 18 18 19 19 19 15 18 23 26 26 24 22 20 20 22 24 24 24 24 21 20 20
24 27 22 23 27 23 21 21 20 19 20 17 17 7 4 6 14 19 23 20 20 21 19 20 23 23 21 19 18 23 24 27 26 23 21 20 20 22 23 26 25 24 23
21 23 24 33 26 23 20 21 20 20 18 17 12 17 16 13 7 3 17 20 19 20 21 19 21 24 28 26 26 22 20 23 27 28 27 25 24 21 19 24 27 27 27
25 28 31 29 28 19 20 20 22 21 19 18 17 14 14 15 16 12 7 9 15 18 18 22 25 28 30 31 27 24 26 27 26 28 30 29 27 27 26 23 23 26 29
27 26 33 31 28 29 26 24 20 16 19 16 20 18 17 14 14 13 9 13 12 14 18 23 27 29 30 25 27 25 28 31 30 30 30 29 28 29 27 25 24 25 26
29 27 33 35 34 30 29 27 26 21 25 20 21 23 19 19 20 19 17 16 11 14 18 28 30 29 23 24 25 27 32 30 28 27 26 23 23 24 24 24 23 22 22
34 32 33 35 36 37 30 31 28 32 24 23 22 25 23 22 23 23 22 16 5 13 18 22 17 27 25 23 24 27 25 28 27 24 23 24 24 25 23 23 23 23 23
34 38 41 38 36 35 35 33 29 28 27 26 27 29 28 26 23 23 24 22 19 8 10 23 22 23 26 24 22 30 25 21 24 24 25 25 25 24 25 25 24 24 26
35 35 37 39 39 40 37 37 37 32 30 31 29 29 28 27 23 25 28 27 26 25 8 19 23 23 25 23 23 21 19 21 24 24 24 25 24 26 25 25 26 27 28
34 36 38 40 41 41 39 36 36 35 34 34 32 31 30 26 25 27 26 27 28 23 12 15 19 25 25 25 23 23 20 19 20 21 22 21 24 25 26 26 27 29 29
35 38 37 39 40 41 40 40 38 36 36 36 33 31 30 28 29 29 31 34 32 35 26 23 26 25 25 28 25 22 19 19 17 16 18 21 22 24 26 28 30 29 28
34 38 38 40 38 39 39 40 39 39 38 37 36 34 32 31 31 31 33 33 34 34 32 25 17 19 15 22 22 18 19 19 16 17 17 19 25 24 24 25 27 24 26
37 39 40 40 40 40 39 39 39 39 39 38 39 38 37 38 39 39 36 38 36 30 28 28 19 21 23 22 24 20 16 17 16 15 16 18 19 21 24 21 20 22 22
38 37 38 40 42 41 41 41 40 41 41 40 38 35 36 39 42 41 36 35 33 31 25 25 18 14 17 16 21 15 15 15 14 13 16 16 15 14 15 17 20 21 21
38 39 41 39 40 41 41 44 44 37 38 37 35 35 35 37 43 42 42 41 42 37 31 27 24 21 18 17 20 15 13 8 9 12 15 14 13 15 19 20 20 22 25
35 39 38 38 39 39 42 44 43 43 35 33 35 33 35 41 40 39 38 32 29 30 27 23 17 11 11 14 13 11 10 8 10 12 9 15 17 20 20 21 21 22 25
37 36 36 36 35 36 37 39 40 40 35 37 38 35 37 40 34 30 26 24 19 16 12 15 18 17 10 7 8 8 6 8 9 12 11 13 15 20 19 22 24 25 27
32 33 31 30 32 31 30 32 31 35 34 31 29 27 28 26 23 27 28 27 21 16 13 11 15 10 12 10 10 9 6 7 9 12 12 16 16 20 20 19 26 26 20
27 26 25 24 23 23 29 31 30 28 25 18 14 12 13 15 19 24 24 27 25 18 15 10 8 7 5 6 8 10 5 8 9 8 7 11 14 13 16 20 15 14 22

GFSMA_925_spd_072.txt.gz
Wind_Speed
30 27 25 33 28 28 26 28 24 24 19 13 16 17 7 24 17 20 22 18 18 17 16 16 16 15 15 15 15 14 13 12 12 12 12 10 9 9 8 8 8 8 8
30 27 24 30 24 29 26 23 20 23 20 15 17 13 12 20 18 17 22 20 18 17 17 16 16 15 14 14 14 13 13 11 10 10 10 9 8 7 5 5 6 5 5
31 32 28 31 26 27 25 21 23 20 19 18 17 13 13 13 19 21 18 21 19 18 18 18 18 16 15 15 14 14 13 12 11 10 10 9 9 8 6 4 3 2 2
29 31 33 29 29 30 27 22 24 21 20 20 19 16 15 13 15 18 16 17 21 21 20 19 18 18 18 17 15 15 15 14 13 13 14 12 12 11 10 7 5 3 2
30 34 35 29 27 33 27 25 23 21 20 19 20 18 16 15 16 15 20 19 17 19 21 23 22 21 20 19 18 17 17 17 18 18 17 16 15 15 13 11 10 8 7
29 28 27 21 26 25 22 23 21 20 19 17 19 18 15 16 18 17 17 19 21 22 22 17 23 24 24 23 22 21 20 21 21 20 20 19 19 18 17 16 15 13 13
32 25 25 22 20 21 19 21 20 17 17 16 14 18 15 14 16 19 21 20 21 23 22 19 23 24 25 27 26 26 24 23 23 24 22 22 22 22 22 19 19 18 18
32 28 28 29 26 20 21 18 20 16 14 17 14 16 3 7 18 19 21 25 25 24 22 23 19 22 22 24 28 30 29 27 25 24 26 27 28 26 27 23 22 22 22
31 26 26 32 30 26 27 23 22 21 19 19 20 8 3 4 9 17 28 25 26 26 25 25 27 26 25 24 23 29 31 31 29 28 26 23 23 22 24 26 25 25 24
29 29 27 31 34 29 26 26 24 25 25 24 22 19 16 6 3 2 16 28 23 27 28 23 27 29 30 31 27 25 25 26 28 31 32 28 25 23 20 22 25 26 27
30 29 29 30 33 29 24 24 24 27 28 21 16 15 17 20 20 12 4 13 24 24 26 29 30 27 31 34 36 34 32 29 28 30 32 33 32 31 27 25 23 21 25
29 32 29 32 32 31 25 24 23 31 23 17 18 22 22 12 15 13 5 8 16 22 26 31 31 33 37 36 36 37 34 36 32 32 33 33 34 35 33 30 26 24 25
28 31 35 29 35 32 28 28 30 22 21 21 22 21 29 23 22 20 15 12 11 16 20 29 32 36 35 36 36 38 37 34 35 36 35 35 34 33 33 30 27 25 23
32 31 33 35 34 33 34 31 25 24 24 26 28 26 33 30 27 26 25 18 4 11 15 21 25 34 40 39 38 40 37 36 39 38 36 35 33 32 29 28 27 25 23
30 30 30 33 36 39 40 34 31 31 28 33 36 32 36 35 32 29 28 28 19 7 9 22 21 26 28 27 34 37 34 39 37 36 35 33 31 29 27 26 25 25 25
32 33 38 37 39 41 41 39 37 36 32 37 35 37 38 34 35 34 32 33 31 22 11 23 25 26 25 32 34 32 36 38 35 31 31 30 29 28 26 26 26 25 25
32 34 37 39 39 40 39 37 36 35 37 36 35 36 35 33 34 34 34 32 30 28 20 25 30 32 33 32 32 37 34 34 34 30 29 29 29 27 26 27 27 27 26
34 34 34 36 39 39 38 40 39 37 38 38 39 38 37 36 35 34 32 34 30 32 30 27 26 33 34 33 37 32 30 31 32 30 30 29 27 24 23 24 25 27 28
38 38 39 40 39 39 38 41 42 42 41 41 40 39 39 37 37 35 34 32 34 34 32 31 29 27 32 37 36 35 40 33 29 27 24 25 25 23 21 23 28 30 29
37 38 39 41 40 42 42 42 42 43 43 43 43 43 42 41 39 37 34 35 33 30 29 30 30 24 27 27 35 33 29 34 34 20 22 19 20 20 19 21 23 22 19
38 39 38 41 41 42 42 43 43 43 41 42 44 44 44 45 44 42 38 34 30 30 32 29 27 19 21 19 30 27 24 20 20 16 17 16 13 15 17 18 16 17 18
40 39 41 42 40 43 45 48 47 41 40 39 40 41 43 43 44 45 43 44 43 38 36 31 32 22 23 16 20 20 13 7 3 12 8 16 18 19 16 17 17 21 21
38 42 43 40 42 44 45 47 47 47 40 37 38 37 38 40 42 41 43 44 47 44 43 33 22 16 14 15 16 14 11 16 10 8 7 10 15 16 18 19 18 19 18
36 37 38 39 37 40 40 42 45 44 44 40 40 39 37 32 33 35 35 29 18 10 10 18 19 15 16 16 19 17 13 9 4 7 11 7 18 21 19 19 18 21 24
31 33 32 33 34 36 35 38 37 39 39 34 34 34 33 31 29 32 28 17 18 19 18 18 19 18 16 17 14 13 8 3 2 5 5 12 16 18 19 21 20 18 23
32 29 28 27 27 28 32 34 34 34 29 23 18 15 10 10 11 14 16 23 25 21 20 21 21 18 16 11 8 7 9 9 2 3 2 5 5 8 6 11 15 14 18

GFSMA_925_spd_075.txt.gz
Wind_Speed
39 38 34 32 31 32 34 34 32 32 24 16 21 24 25 22 22 26 23 20 19 18 17 17 17 16 16 16 16 16 16 15 15 14 15 14 13 12 11 10 10 10 9
43 38 36 33 31 33 36 33 35 29 19 17 17 11 25 22 19 25 24 22 20 18 18 17 17 17 16 16 16 15 15 14 13 13 13 12 11 10 9 8 8 7 7
41 38 37 37 31 32 34 30 27 24 19 20 20 19 25 21 19 21 24 23 21 20 18 19 18 17 16 16 15 15 14 14 13 13 12 11 10 9 8 6 6 5 5
41 39 39 36 32 32 32 26 27 28 25 22 20 19 21 21 21 20 22 24 23 22 21 19 20 18 18 17 16 16 15 15 15 14 13 12 10 9 8 7 6 5 4
38 41 38 37 31 33 31 26 32 29 27 25 20 18 18 23 21 22 21 22 23 24 24 23 21 20 20 20 18 18 18 18 17 15 15 14 13 13 12 11 10 8 7
38 43 36 39 35 36 33 29 32 29 29 29 26 21 18 17 21 20 21 22 23 23 24 24 24 24 24 22 21 21 21 21 19 19 18 18 18 18 17 16 15 14 13
39 39 38 39 34 37 33 37 33 29 30 30 25 22 19 19 19 21 18 23 25 25 24 24 23 26 27 27 27 25 24 24 23 25 23 23 22 22 20 19 19 19 19
38 35 32 35 25 32 30 35 31 28 28 28 19 15 2 5 17 23 23 24 23 22 26 27 25 26 29 29 31 31 29 27 26 25 29 30 26 26 26 24 22 23 22
36 30 37 33 30 33 29 33 32 27 28 23 23 11 3 4 5 17 24 25 27 27 28 27 29 28 29 31 29 31 33 34 32 32 31 30 31 31 30 30 29 26 25
33 30 32 33 40 41 40 32 29 28 28 28 21 18 10 7 3 1 11 26 26 29 30 30 32 33 32 33 32 32 31 34 36 35 35 34 31 30 30 28 28 28 30
33 30 31 32 31 31 32 31 29 30 29 27 20 20 18 13 9 4 3 6 20 31 30 34 35 35 37 37 38 38 38 35 33 34 35 36 37 33 30 29 28 28 27
29 33 30 30 32 32 32 32 31 29 29 26 22 23 18 9 8 6 3 7 12 21 34 35 37 40 40 38 40 42 41 42 39 36 34 36 39 39 36 35 32 28 26
25 34 34 34 35 37 35 34 35 33 30 24 21 28 28 28 20 18 15 11 11 17 18 35 38 40 39 40 42 42 43 43 45 44 40 41 41 42 39 39 37 30 27
34 35 34 30 34 33 37 32 34 32 32 27 23 36 38 30 26 24 22 17 4 9 18 23 27 39 41 42 42 45 45 45 46 46 43 41 40 43 41 40 37 35 32
28 31 34 34 32 32 33 36 35 32 28 29 34 39 36 33 30 28 30 31 20 8 8 23 27 35 37 36 38 39 45 48 47 45 43 41 41 41 39 39 37 33 31
30 29 30 33 36 38 37 37 36 34 34 34 38 38 38 37 35 32 35 37 36 27 12 28 29 32 34 36 36 36 40 39 39 43 40 39 42 41 40 37 35 32 31
38 36 39 38 38 40 39 42 39 40 40 40 40 39 38 37 35 38 41 39 35 32 23 33 34 39 36 38 38 36 38 43 43 44 41 39 41 39 39 37 35 31 28
38 40 41 41 40 40 41 44 42 38 39 39 40 39 42 41 41 41 40 38 36 37 32 29 34 32 39 40 40 40 42 44 44 42 41 41 39 37 35 33 29 25 26
38 40 40 41 42 42 42 43 43 41 41 42 41 40 41 40 42 40 40 37 37 35 33 32 34 30 33 36 38 40 41 42 44 43 44 40 37 33 30 27 23 19 20
39 39 40 39 42 43 43 43 43 44 45 45 43 43 45 42 43 41 40 39 37 33 34 31 32 32 30 32 36 28 28 38 37 32 32 33 34 30 26 22 17 16 19
38 39 38 40 40 41 41 43 43 43 42 43 42 44 45 46 47 47 40 38 35 34 33 30 29 29 22 20 23 30 30 26 24 24 22 22 18 15 15 13 14 17 20
37 36 38 39 39 42 44 46 44 39 40 41 42 43 44 46 49 52 51 49 45 40 37 33 32 29 30 30 26 25 19 10 4 11 19 16 18 17 15 17 12 14 17
36 40 39 36 38 40 43 45 46 47 39 41 41 39 38 42 46 48 48 48 50 46 44 39 31 29 23 26 29 18 17 9 3 8 14 10 15 16 14 11 16 18 18
37 38 38 39 38 40 38 40 42 46 47 43 41 43 44 43 44 43 41 36 34 33 34 33 30 20 13 14 17 18 17 15 11 6 4 2 4 9 11 17 21 18 16
34 36 33 34 39 42 39 42 41 45 46 44 41 42 43 42 40 35 34 29 19 13 11 12 15 17 16 14 15 16 17 15 4 2 2 2 5 12 18 18 16 15 17
32 30 29 32 35 36 36 37 39 40 38 38 35 31 29 31 28 28 33 31 26 24 27 29 29 26 24 20 19 15 11 13 5 2 2 2 3 2 5 6 9 12 13

GFSMA_925_spd_078.txt.gz
Wind_Speed
42 36 33 36 38 39 38 37 34 31 27 23 28 29 27 27 28 28 26 23 22 21 19 18 17 17 17 17 16 16 16 15 15 14 15 13 12 12 12 11 11 11 10
43 42 39 38 37 37 39 38 35 30 23 19 29 26 24 26 28 28 25 23 22 20 20 19 18 17 17 16 16 15 15 15 15 14 13 12 11 11 10 9 9 8 7
46 44 42 40 37 36 37 36 33 26 21 21 26 25 24 25 26 26 25 24 21 20 19 19 18 17 16 16 16 15 15 14 14 14 12 11 10 9 9 8 8 7 6
45 43 42 40 40 38 37 35 36 27 22 22 24 28 26 24 26 25 24 23 23 22 21 20 19 17 17 16 16 16 16 15 15 14 13 13 12 11 10 9 9 8 7
44 43 42 42 41 40 37 37 32 28 23 22 21 25 26 25 26 24 23 22 23 23 22 21 19 18 18 17 17 17 17 17 17 16 17 16 16 14 14 13 12 11 10
43 43 41 39 44 44 40 35 32 29 28 24 22 26 23 24 24 23 22 22 23 23 23 22 21 22 20 20 20 20 20 19 19 18 19 19 19 18 18 17 16 15 14
41 41 41 38 41 44 42 35 33 33 32 28 23 21 21 24 23 23 22 22 24 23 24 25 25 25 26 25 25 23 23 22 23 23 23 24 23 22 22 22 21 20 19
41 38 38 39 39 39 39 34 35 30 28 31 17 16 3 7 20 24 24 23 24 25 26 26 27 28 28 29 30 30 28 26 27 28 31 29 26 26 25 24 24 24 23
36 33 32 38 36 40 37 35 37 33 25 33 29 13 3 4 4 14 26 25 27 28 28 28 28 30 30 31 31 32 32 33 32 34 32 32 35 34 33 31 29 28 27
34 32 32 33 30 33 33 32 36 33 30 28 28 21 14 14 3 1 13 26 26 28 30 30 31 32 32 33 33 34 33 34 37 38 37 37 35 35 38 39 37 35 34
33 32 29 30 34 26 32 27 30 29 31 34 27 20 16 14 9 4 2 7 25 30 32 35 34 33 35 35 36 36 34 37 37 37 39 40 40 40 39 38 39 39 38
31 28 25 33 35 35 33 27 32 37 33 34 32 31 19 12 8 5 2 6 10 15 24 34 36 36 38 38 40 39 36 39 41 42 41 41 42 43 44 43 41 39 38
28 32 26 31 33 34 37 41 44 40 34 33 33 29 28 22 15 14 11 7 9 9 11 17 27 33 35 37 40 41 42 43 44 46 47 46 45 45 46 46 43 40 39
32 36 34 30 34 36 39 43 41 35 34 33 33 32 30 24 21 20 21 16 3 7 14 20 23 25 29 36 39 40 44 45 46 48 49 49 49 47 47 47 47 45 42
28 30 32 36 36 34 34 33 34 34 35 36 36 37 34 27 25 32 35 32 16 5 7 21 27 35 35 38 40 40 44 45 46 45 48 49 52 51 51 49 50 50 47
35 37 34 35 34 35 36 35 37 37 38 39 39 37 36 35 33 36 39 38 34 25 10 26 29 35 37 39 41 42 43 42 42 41 43 43 37 42 47 50 47 48 46
36 36 40 39 38 37 38 39 39 41 41 41 42 41 44 41 39 42 45 42 35 32 20 31 32 37 39 41 43 43 43 43 44 44 44 45 43 42 44 45 46 45 42
38 39 40 38 36 38 41 42 41 36 39 38 41 42 46 43 43 43 39 38 37 37 30 26 32 32 36 44 42 42 43 43 44 46 46 47 44 44 44 46 44 40 38
38 37 38 38 39 38 39 42 43 41 42 45 41 40 43 39 40 38 37 36 37 36 31 29 33 36 35 33 38 40 43 43 44 44 45 47 48 46 44 45 41 33 30
35 37 38 38 40 38 39 40 42 43 42 41 41 45 44 42 45 42 39 40 39 34 32 30 32 35 34 32 38 30 29 35 41 41 44 46 46 40 37 39 31 30 28
36 36 35 37 38 40 41 40 39 38 39 40 40 43 45 46 49 49 43 42 37 33 33 33 32 33 32 22 24 32 29 32 29 32 32 30 28 29 31 25 27 27 21
33 33 37 37 38 40 42 44 42 38 38 38 40 41 43 43 50 53 55 55 46 37 36 33 34 32 35 34 32 35 34 18 6 16 22 15 17 20 22 25 20 14 13
35 37 37 38 39 42 43 44 43 45 39 40 40 39 39 42 44 48 52 55 55 55 54 48 42 40 40 39 34 29 31 20 11 10 17 11 13 15 14 13 12 10 6
35 36 37 38 38 41 42 43 45 46 46 45 43 43 43 45 44 47 47 45 48 52 55 53 47 41 36 23 19 22 23 15 13 12 9 3 7 6 8 8 9 10 10
30 33 33 32 35 40 33 40 42 48 45 45 45 44 43 42 44 45 44 45 36 24 16 20 17 13 8 7 9 13 16 18 5 5 6 5 3 2 3 5 7 8 10
13 21 11 10 6 11 13 25 33 36 34 37 37 40 41 42 41 41 40 42 28 21 21 25 26 24 19 18 14 14 12 14 11 5 7 3 3 2 2 3 4 10 5

GFSMA_925_spd_084.txt.gz
Wind_Speed
35 35 32 35 34 38 41 36 34 33 31 29 26 24 26 26 27 26 25 23 22 20 19 19 19 18 18 19 19 19 18 17 17 16 16 16 15 14 14 13 12 12 11
31 35 32 33 39 41 40 36 35 37 33 31 27 25 27 27 27 27 25 23 21 20 19 18 18 18 18 17 18 17 17 16 16 16 16 15 15 13 12 12 12 10 9
37 34 33 35 38 41 41 34 31 34 34 31 26 26 25 26 27 26 26 24 22 20 19 18 17 17 17 16 16 16 16 15 15 14 14 14 14 12 11 10 9 9 8
40 38 34 35 38 42 41 34 34 35 34 31 28 26 24 23 25 25 24 23 22 21 19 18 18 17 16 16 15 15 15 15 15 15 14 13 12 12 11 10 10 9 9
36 39 36 35 40 43 43 40 36 34 32 29 30 26 23 23 25 24 22 22 22 21 21 19 18 18 17 16 15 14 14 15 15 15 14 14 13 12 12 11 11 11 11
37 36 34 36 41 41 40 41 38 31 32 32 26 24 21 22 23 24 22 22 21 21 20 19 19 19 18 17 16 15 15 15 15 16 16 16 16 16 15 15 15 15 15
34 40 37 38 41 41 40 42 39 32 28 31 28 14 13 15 19 22 21 21 22 21 21 20 20 20 19 18 18 18 18 18 18 19 18 18 20 20 20 20 20 20 19
43 39 37 39 41 36 38 38 38 30 24 34 16 14 3 2 14 22 22 24 23 23 23 22 21 22 22 22 22 21 20 20 21 23 24 23 21 20 21 23 24 24 24
39 33 37 38 38 38 40 38 38 34 25 32 27 9 3 3 5 12 22 25 26 27 26 25 23 25 26 25 25 25 26 25 25 27 27 28 29 29 29 28 28 28 27
34 31 33 36 36 32 32 37 36 32 33 28 27 7 12 13 3 2 12 28 29 30 29 29 27 28 29 29 29 29 29 30 30 31 31 30 32 33 35 36 37 37 37
34 29 29 30 33 34 34 39 36 33 34 34 25 20 13 11 10 3 3 9 26 33 30 33 31 30 31 31 32 33 32 33 33 34 34 35 35 38 39 39 40 41 43
32 30 29 28 26 30 30 34 37 37 32 33 36 30 23 11 8 5 2 4 14 18 29 36 34 33 33 34 35 36 35 34 34 35 36 36 37 38 38 40 42 44 44
28 29 30 30 28 25 30 32 37 38 34 33 32 32 33 30 21 21 8 3 6 12 8 18 26 31 33 34 35 36 37 36 35 36 35 36 37 40 41 42 42 43 45
30 33 34 32 31 31 27 31 34 37 31 31 33 30 32 30 31 29 24 11 2 6 11 13 11 18 24 27 27 29 30 32 34 33 35 35 38 41 41 42 43 43 44
28 33 34 33 31 32 36 31 33 38 33 31 26 23 24 31 34 35 31 27 18 4 4 16 14 20 22 26 29 29 34 35 35 36 36 37 37 37 39 41 42 41 42
24 25 28 30 31 32 36 41 37 37 38 37 35 28 28 30 33 37 35 28 24 23 9 21 19 25 26 34 38 40 42 44 43 41 44 44 43 41 41 42 42 41 41
20 22 24 29 32 32 32 37 35 32 35 33 32 34 35 39 36 35 40 41 33 32 17 22 30 34 36 38 47 47 48 45 47 47 48 48 48 47 45 44 42 41 42
21 23 23 26 29 32 28 28 30 30 33 34 36 32 35 36 40 39 37 35 34 34 30 26 35 35 38 45 45 47 49 50 51 52 51 51 49 48 46 44 42 42 43
19 22 23 25 27 29 31 30 30 31 33 35 36 35 40 36 37 34 36 36 35 35 32 26 31 35 35 35 39 43 47 45 47 53 53 52 51 46 42 40 41 42 44
21 23 25 27 27 28 29 30 32 33 34 36 38 39 39 38 38 35 34 34 36 30 29 26 28 31 32 35 34 32 32 35 41 43 47 48 47 47 47 46 45 45 45
18 18 21 24 26 28 30 31 32 34 37 37 39 40 42 43 45 43 35 35 32 30 30 30 30 31 31 32 32 34 32 35 37 35 39 39 46 45 47 45 46 46 46
22 22 23 23 24 26 27 29 32 33 34 35 37 39 43 44 47 48 50 51 48 37 34 33 33 30 32 35 36 34 34 29 15 33 39 34 33 36 34 35 38 34 33
26 28 28 28 28 29 26 29 32 34 34 34 35 36 35 35 39 44 48 49 50 52 56 50 39 35 36 37 35 34 32 31 32 24 18 9 6 1 3 1 3 8 10
17 23 25 28 28 15 22 27 31 35 37 37 36 37 35 36 37 37 39 39 40 42 38 43 39 33 31 30 35 32 26 16 3 3 2 3 7 12 11 10 9 8 6
5 6 4 2 4 2 6 14 23 24 29 32 23 16 19 24 26 29 31 28 22 12 3 7 15 6 3 10 13 14 8 12 1 7 10 4 5 14 15 15 12 9 7
11 13 18 19 17 14 15 10 8 6 8 8 4 6 13 14 15 18 19 17 7 10 9 13 15 17 18 19 15 8 7 12 10 5 14 6 8 8 4 10 11 10 9

GFSMA_925_spd_087.txt.gz
Wind_Speed
32 29 29 32 33 33 33 33 25 27 24 22 19 20 18 16 16 16 18 20 19 19 18 17 17 17 17 17 17 17 16 16 15 15 14 13 13 13 13 13 13 12 11
32 32 27 33 33 34 32 36 27 25 24 23 20 17 17 16 17 17 17 19 19 19 18 16 16 16 16 16 16 16 16 15 14 14 14 13 12 12 12 13 12 11 10
35 33 31 32 35 36 36 30 25 22 21 22 19 17 16 17 17 18 17 17 18 16 16 15 16 15 15 15 15 16 16 16 15 14 13 13 12 11 11 12 12 11 10
33 33 33 34 37 39 35 32 26 23 22 21 20 18 17 16 17 17 17 16 16 16 17 16 15 15 15 15 15 15 15 16 15 15 14 13 13 12 11 12 11 10 11
34 33 36 36 41 41 32 30 25 24 23 20 19 17 15 16 17 17 17 17 16 16 16 17 16 15 15 15 15 15 15 16 16 15 15 14 13 13 13 13 12 12 12
32 36 35 39 41 39 31 29 28 22 25 23 18 14 12 13 16 17 17 16 17 17 16 15 16 16 17 16 16 15 16 16 16 16 16 16 16 16 15 15 15 15 14
34 34 37 38 36 35 35 33 29 28 21 21 19 12 8 9 13 15 16 17 18 18 18 18 17 16 17 20 19 18 18 18 17 17 17 18 19 20 19 19 19 19 19
34 37 39 39 37 30 33 37 33 25 19 25 16 18 5 4 11 14 16 17 18 17 18 20 20 19 18 18 20 22 21 20 20 21 22 21 20 20 20 21 22 23 23
39 39 41 37 34 32 36 38 34 29 19 25 21 12 5 5 10 12 18 18 18 19 18 19 24 23 23 20 20 23 25 24 25 25 27 27 27 26 26 26 26 27 27
39 40 42 39 35 34 32 36 34 32 25 26 20 10 10 12 6 5 11 19 19 21 22 21 23 26 26 24 24 25 27 28 29 29 29 29 30 31 32 33 34 35 34
32 38 38 36 35 34 32 35 34 31 27 26 24 13 8 7 8 3 4 13 18 22 28 27 24 25 28 28 30 30 30 31 32 33 33 34 34 35 37 38 38 39 39
30 33 33 33 32 32 36 36 35 32 32 28 27 24 17 11 8 5 2 8 17 17 25 26 31 30 32 31 31 32 33 34 35 36 36 36 37 37 38 40 42 42 43
27 28 30 29 28 28 31 31 32 35 34 35 34 30 26 24 17 12 8 5 7 11 9 24 31 34 30 33 33 33 34 34 35 37 37 38 38 38 39 41 43 43 44
28 31 29 29 27 23 20 19 27 35 37 33 37 33 30 28 25 20 16 10 4 8 10 7 19 20 17 21 22 21 29 31 30 29 31 34 36 38 38 39 41 42 43
30 33 34 31 29 32 35 33 26 33 36 35 36 35 31 32 32 28 25 19 19 10 8 10 13 14 17 29 30 27 34 36 34 33 33 32 33 37 40 44 44 43 43
30 34 34 34 34 34 38 37 30 28 30 36 35 33 29 28 28 28 23 19 19 22 11 21 20 24 28 31 28 31 36 35 38 43 40 37 39 44 45 49 48 46 47
26 28 30 32 33 35 37 37 34 26 27 31 36 34 31 27 26 27 30 27 21 23 16 23 25 33 31 35 41 41 44 41 40 50 51 53 52 52 51 52 52 52 52
17 22 23 27 29 32 32 33 36 34 27 26 31 34 40 39 40 41 35 34 33 37 28 26 37 32 32 36 42 39 41 39 38 45 52 50 50 52 53 52 53 53 52
15 16 17 18 20 26 28 30 33 33 37 38 36 35 35 32 33 29 29 29 29 30 29 29 32 32 31 31 32 35 36 37 38 42 46 52 53 52 51 48 48 49 50
17 17 17 17 18 19 21 26 29 29 31 32 34 35 33 32 30 29 30 34 35 31 30 29 30 32 31 33 31 31 32 33 34 33 36 40 42 45 46 48 49 48 48
18 19 17 17 18 18 19 21 25 29 30 31 32 33 29 30 33 33 29 30 29 29 29 29 28 28 30 30 30 31 31 33 34 34 35 33 36 34 30 32 38 42 43
11 12 15 16 16 21 23 24 26 28 29 30 28 28 29 32 38 40 42 43 42 35 32 30 31 30 33 32 34 33 32 29 17 31 31 28 24 18 15 17 21 25 24
14 14 14 15 15 16 19 24 26 27 23 26 28 29 30 33 35 37 36 39 42 46 50 45 36 32 27 24 26 28 31 32 29 17 12 2 10 9 8 7 7 4 5
5 5 3 5 13 5 11 20 25 27 31 24 15 16 18 20 18 22 26 27 22 21 25 25 20 12 15 19 23 25 25 24 20 16 9 3 8 10 11 13 9 10 11
14 14 12 12 10 13 9 7 9 11 8 7 2 4 7 10 14 16 17 14 13 2 6 1 5 4 2 5 9 10 10 11 4 5 7 2 4 11 14 13 12 8 8
20 20 23 21 18 19 17 11 6 6 9 11 11 13 18 11 9 8 5 4 9 13 15 13 15 17 19 21 19 13 8 7 5 5 14 5 3 1 2 6 8 10 11

GFSMA_925_spd_090.txt.gz
Wind_Speed
24 26 27 24 24 30 32 30 28 25 23 21 20 16 15 12 12 12 13 18 17 17 16 16 16 16 15 15 15 14 14 14 14 13 13 13 11 11 11 11 10 10 9
37 24 27 24 26 30 31 31 30 24 23 20 18 17 15 13 14 13 14 16 16 17 16 16 15 16 15 15 15 14 13 13 13 12 12 11 12 11 10 11 10 9 8
31 29 28 27 27 27 32 31 26 24 23 21 19 16 14 14 15 14 15 16 16 16 16 15 16 15 15 14 15 14 13 12 12 12 12 11 12 12 12 12 11 10 10
30 25 27 29 28 32 35 33 25 24 22 21 19 16 14 15 15 15 14 15 16 15 16 16 16 15 16 15 15 14 14 14 13 13 12 12 12 12 12 13 12 11 11
39 30 27 29 34 33 37 33 28 26 23 21 19 16 15 15 16 17 16 15 16 15 14 16 16 16 16 16 16 15 15 15 15 14 14 14 14 14 13 13 13 13 13
36 35 33 32 38 35 37 31 28 26 25 23 20 17 15 14 15 15 17 17 16 15 15 15 16 16 18 18 17 16 16 16 16 16 16 16 16 16 15 15 15 14 15
35 36 34 34 39 39 40 37 30 29 25 24 21 16 11 11 13 15 16 16 15 17 16 16 17 16 18 21 20 20 19 19 18 18 18 18 19 19 18 19 18 18 18
34 34 36 36 39 39 41 33 32 28 26 26 22 19 6 7 9 14 16 16 16 16 17 17 18 17 16 19 21 24 22 21 21 21 21 21 20 20 20 20 21 21 22
33 35 37 38 36 35 39 33 32 30 27 27 25 17 8 6 16 16 17 17 17 18 18 19 20 19 19 18 19 23 25 25 25 25 24 25 25 24 24 24 24 25 25
35 32 41 40 37 34 34 34 33 32 29 28 24 24 16 10 11 6 16 19 19 19 20 20 21 22 22 22 21 22 23 25 27 27 27 29 31 31 31 31 31 31 32
36 37 40 41 40 34 31 34 33 31 29 29 28 23 15 14 16 9 9 17 20 22 22 23 22 22 23 24 22 23 28 30 26 28 29 30 32 34 34 35 36 37 38
35 41 44 42 40 38 33 32 32 32 28 28 26 24 22 18 14 11 7 13 18 20 23 23 23 24 22 23 24 26 28 26 28 30 31 33 35 37 39 40 41 42 42
27 31 36 40 39 36 32 32 31 31 29 27 27 23 22 21 16 16 12 7 9 15 16 24 24 25 26 24 23 24 26 29 28 30 33 35 37 39 40 42 43 43 44
28 31 31 37 33 32 31 28 27 27 26 26 25 24 22 20 20 15 14 14 8 11 13 11 18 23 24 23 23 19 16 20 24 26 30 31 31 33 35 38 41 41 43
30 31 29 30 29 30 30 26 25 25 23 25 26 27 23 21 22 20 18 16 15 9 11 16 13 15 20 20 19 17 20 32 33 32 32 35 37 36 33 35 36 38 40
30 31 30 31 31 29 29 28 26 25 26 28 27 25 26 23 20 19 19 16 16 18 11 21 19 16 19 23 24 28 31 41 40 41 43 40 38 41 40 40 42 44 44
30 30 28 27 31 33 32 31 31 26 26 24 28 27 27 26 26 25 21 24 24 22 16 25 25 23 19 22 27 39 43 42 42 44 49 45 41 41 45 50 51 54 54
25 27 32 26 29 32 33 32 29 30 28 24 25 24 27 25 29 31 24 24 28 31 24 26 35 31 31 38 38 32 34 35 36 40 43 43 44 48 53 51 49 50 54
20 25 27 27 28 30 31 33 33 31 34 30 28 24 25 26 31 32 32 33 33 33 29 30 33 33 33 32 33 36 37 37 38 39 42 44 46 49 51 49 49 49 49
15 16 18 21 26 27 28 31 34 31 34 31 31 29 31 33 34 36 33 34 32 30 28 25 25 30 32 37 34 32 32 33 34 36 38 38 40 39 38 38 41 44 45
13 14 16 17 19 21 22 25 27 30 30 28 28 31 31 33 37 32 29 29 29 28 27 27 26 28 30 29 28 29 29 31 33 34 31 30 25 20 20 22 24 27 30
11 11 10 11 13 13 16 21 20 21 23 24 23 24 26 29 32 33 35 38 36 30 28 24 22 24 27 28 30 30 30 27 17 18 13 14 10 11 10 12 14 20 22
12 11 11 12 10 10 18 21 23 20 15 18 21 22 24 25 25 28 31 32 35 41 45 39 28 24 18 14 15 18 19 13 10 15 15 7 7 7 7 8 5 4 5
13 12 11 12 10 3 10 17 20 21 13 5 5 7 9 12 15 19 21 20 14 13 14 14 10 7 12 16 18 19 18 18 12 9 7 2 1 7 8 10 11 7 7
18 17 15 14 11 11 6 1 5 8 9 6 4 4 3 6 9 9 9 8 5 7 8 9 9 8 6 7 8 6 6 4 1 5 10 3 2 4 4 5 6 10 8
26 24 24 21 20 17 13 8 10 13 16 14 12 12 16 11 7 4 4 10 15 10 12 11 17 13 18 18 16 13 7 5 4 3 8 3 1 1 3 1 3 4 5

GFSMA_925_spd_093.txt.gz
Wind_Speed
21 22 22 24 24 27 33 33 34 30 24 22 24 21 19 15 17 23 17 17 16 16 16 16 16 15 15 14 14 14 13 12 11 10 11 11 11 11 10 10 10 9 8
22 24 23 22 24 28 30 31 33 36 30 25 23 20 18 15 11 9 16 17 17 17 17 16 16 15 14 14 14 13 13 12 12 11 10 10 10 10 11 9 9 8 7
22 23 27 24 23 25 27 31 29 36 33 27 24 22 17 13 15 14 15 17 16 18 16 16 17 15 15 15 14 14 14 13 12 12 10 10 10 10 10 10 9 8 8
23 24 28 27 26 27 24 26 28 29 30 29 24 21 17 16 16 15 16 17 17 17 17 17 17 16 15 15 15 14 14 14 13 12 11 11 11 11 11 11 10 9 9
24 27 24 27 29 27 25 29 32 30 27 20 22 21 17 17 18 17 19 18 17 18 17 18 18 16 16 16 16 16 15 15 14 13 13 13 13 12 12 12 13 12 11
29 26 28 27 30 29 30 30 32 30 26 23 24 19 19 19 17 18 17 16 18 19 17 16 17 17 18 18 17 17 17 17 16 16 16 15 15 15 14 14 14 13 13
32 32 30 25 27 33 33 34 32 31 27 23 21 20 12 10 14 16 17 17 18 18 16 16 17 17 19 21 21 20 20 19 18 18 18 18 17 17 17 16 16 16 16
31 32 32 28 31 33 36 36 32 28 28 22 23 19 7 4 8 14 18 18 17 17 17 19 17 17 16 19 23 25 23 21 21 20 20 20 20 20 19 18 18 19 19
29 33 32 33 37 34 36 38 36 31 26 25 28 20 9 5 14 15 14 19 18 18 18 19 18 18 18 16 19 24 27 27 26 26 24 23 21 21 20 20 20 21 21
29 31 34 37 35 36 36 41 36 34 29 27 27 24 20 16 11 6 14 17 18 19 19 20 21 21 20 20 20 21 24 28 27 29 27 26 26 26 26 26 26 28 28
31 34 35 38 36 35 36 38 36 34 32 30 27 25 20 14 24 13 10 18 21 21 21 21 20 22 22 23 23 24 25 25 24 26 29 29 29 29 31 31 32 32 33
31 29 38 38 37 36 34 40 40 37 29 28 27 24 21 15 13 13 7 16 18 20 21 21 23 21 22 24 26 23 23 27 29 29 27 30 31 31 34 36 38 38 39
23 29 35 39 37 36 38 36 35 32 29 28 27 23 17 15 15 13 12 7 11 17 16 21 21 24 24 24 25 27 29 30 29 27 27 26 30 33 36 39 41 42 43
25 31 37 38 38 39 38 37 34 30 27 27 25 23 22 19 17 15 15 12 3 6 11 11 18 22 23 25 27 30 29 28 24 22 18 21 25 26 28 33 36 38 41
22 26 32 37 39 40 43 36 27 26 25 25 24 24 24 20 18 18 11 12 10 7 8 17 16 19 25 25 28 26 31 31 25 21 23 35 38 40 40 37 37 39 38
22 25 25 26 31 35 41 39 29 26 22 20 20 22 21 19 22 19 15 15 13 10 8 16 10 11 16 17 19 25 28 28 26 29 32 36 38 36 42 41 41 42 43
26 25 26 27 28 30 32 31 28 26 24 22 29 25 25 24 22 19 19 16 13 17 12 16 16 17 26 21 19 25 32 32 36 41 46 45 44 47 50 51 53 50 48
28 29 30 28 28 28 27 26 26 28 28 27 26 22 25 23 24 25 18 22 19 16 13 15 19 23 27 32 33 33 34 34 38 38 36 36 39 41 46 46 45 46 46
26 28 28 29 28 29 30 29 29 28 27 27 26 26 25 23 21 19 21 24 25 25 22 19 28 30 33 33 31 35 38 37 35 35 39 40 43 46 47 48 47 46 46
23 25 26 25 26 28 28 29 29 28 27 27 26 27 25 25 27 25 24 28 28 28 26 26 29 33 33 32 30 31 30 31 31 29 29 26 23 25 30 31 36 38 39
17 18 19 22 23 25 26 28 29 31 31 25 27 25 28 27 26 25 24 25 25 25 26 27 30 28 29 27 26 26 24 23 24 22 24 24 22 18 15 14 16 17 19
8 9 14 16 19 17 20 24 24 24 26 22 23 26 26 28 33 33 33 34 30 27 24 20 17 14 21 19 20 16 13 8 4 10 5 7 10 11 12 12 9 10 10
10 8 5 12 13 9 14 21 24 15 17 18 16 13 11 13 18 23 23 28 33 31 29 23 17 13 11 15 18 20 14 9 7 15 18 7 7 4 5 5 6 6 6
17 15 12 9 8 4 7 13 15 10 4 3 3 4 7 9 10 14 12 11 3 3 5 6 3 2 6 10 10 11 12 12 10 7 6 2 4 2 3 3 5 6 7
19 18 15 13 11 10 5 2 10 12 10 10 8 4 2 2 5 4 6 8 9 12 14 11 12 11 9 5 5 2 4 4 1 4 8 3 3 3 4 4 5 6 8
24 23 24 22 20 17 13 7 10 16 18 17 15 15 16 9 4 3 7 12 14 12 12 13 14 15 16 16 16 13 11 6 4 3 10 6 4 4 3 2 3 4 7

GFSMA_925_spd_096.txt.gz
Wind_Speed
20 21 21 24 29 31 30 29 26 25 24 26 25 24 20 20 21 23 24 22 21 15 18 17 18 18 18 17 17 16 16 15 14 13 13 12 11 10 10 10 9 9 9
19 22 24 25 26 30 29 28 27 26 29 28 25 25 20 23 21 23 26 23 18 18 19 18 18 19 17 17 17 17 15 14 14 12 12 12 12 11 8 9 8 8 8
21 23 24 27 32 30 32 28 32 28 31 26 24 25 24 20 22 23 26 25 19 18 20 20 19 19 18 17 17 17 16 15 14 13 12 12 11 12 11 10 8 8 8
24 25 25 24 27 24 24 25 30 27 31 30 28 26 25 20 21 32 26 24 22 21 19 19 20 16 17 18 17 17 16 16 16 15 14 13 13 12 12 11 10 9 9
27 26 27 28 27 26 27 28 28 26 36 30 30 26 23 22 23 20 22 23 21 21 22 21 20 17 16 18 18 17 17 17 16 16 15 15 14 13 13 13 12 12 11
27 28 28 28 30 27 27 27 25 26 29 29 24 27 24 22 21 20 26 23 22 20 20 21 20 18 18 17 17 18 18 18 17 16 16 16 15 15 14 14 13 13 12
27 29 26 28 29 29 33 29 28 30 25 28 25 22 18 25 24 19 26 23 23 23 20 20 22 20 20 19 19 19 19 18 18 18 18 17 17 16 15 15 15 14 14
28 30 29 29 29 30 33 29 30 24 23 32 16 17 4 11 20 25 23 25 26 27 24 22 18 19 21 25 24 23 21 20 20 19 20 20 19 18 17 16 16 15 16
29 30 32 30 31 28 25 33 33 31 25 27 26 19 4 4 7 12 20 21 24 29 26 26 24 22 24 23 19 26 27 25 25 24 22 21 20 20 19 17 16 17 17
29 31 30 32 32 32 34 36 38 39 27 23 28 27 18 18 7 3 11 22 24 25 22 24 25 23 22 21 21 18 19 25 28 28 26 24 24 23 22 22 21 21 22
26 29 30 32 33 32 35 35 35 35 34 25 24 24 24 24 26 8 4 10 18 26 25 20 21 25 24 22 22 20 19 19 24 26 27 28 27 26 27 26 27 27 26
26 29 30 34 36 35 37 39 35 39 38 30 27 24 25 15 18 16 4 15 16 25 26 25 26 21 27 26 25 25 25 25 24 23 23 26 28 30 30 30 31 34 32
25 28 30 33 35 39 37 36 39 39 37 35 31 29 28 24 23 23 13 15 13 21 19 29 28 28 22 24 27 29 27 26 26 25 24 26 27 29 29 31 33 34 36
22 28 31 31 36 39 38 36 37 37 39 36 35 32 28 27 20 14 4 12 4 4 12 10 26 26 28 29 28 26 27 29 29 28 28 29 29 27 24 24 25 28 30
17 23 27 33 35 40 36 37 32 37 41 35 35 32 30 23 18 16 6 1 9 4 6 17 11 27 25 24 26 27 27 28 30 32 31 30 29 28 30 33 35 38 40
12 17 23 31 28 34 36 34 33 30 35 34 34 34 28 22 21 15 7 10 2 4 3 4 12 9 15 18 22 24 25 25 27 30 33 33 32 31 34 39 42 43 41
12 15 21 21 30 35 37 35 31 34 32 30 29 29 23 21 17 15 17 16 14 9 4 8 9 7 7 13 16 20 22 24 29 30 33 38 38 41 41 42 39 41 43
15 18 18 18 16 26 36 33 31 32 30 30 27 25 25 24 21 20 18 20 24 18 15 11 14 16 25 25 24 25 24 28 33 37 40 43 42 44 47 42 38 40 40
20 20 19 21 22 20 28 31 35 31 29 27 26 27 25 22 23 26 26 24 26 21 20 16 14 21 26 27 25 26 27 29 32 34 35 38 43 36 36 37 36 37 38
21 21 20 20 21 18 17 18 23 27 24 26 25 25 27 30 28 25 25 27 24 22 23 23 23 21 22 27 23 24 26 25 29 24 21 18 18 19 19 19 22 27 27
20 21 22 23 23 23 22 24 25 27 30 29 26 24 23 26 24 27 24 23 22 23 21 19 19 19 20 21 21 20 20 17 12 9 7 9 9 9 8 9 10 11 14
19 20 23 22 19 21 24 25 25 26 27 26 25 24 25 21 27 24 24 19 21 23 19 18 17 19 16 7 5 3 3 3 2 4 4 8 10 9 8 8 9 10 10
18 20 20 20 17 11 16 24 25 21 22 20 21 19 18 22 20 25 29 32 26 29 30 24 19 10 5 9 11 11 7 4 4 11 12 5 8 6 6 6 7 6 6
17 19 18 16 14 10 7 11 19 15 16 12 10 11 12 10 9 16 18 15 10 5 2 3 5 5 2 4 5 5 4 3 2 2 5 1 4 4 4 4 5 6 8
22 21 19 17 16 15 12 14 14 16 16 16 13 9 4 2 4 7 11 17 18 19 17 15 15 13 10 7 5 5 6 3 3 5 8 3 6 5 3 2 4 6 8
27 25 27 24 24 21 16 11 11 17 21 22 21 22 19 11 9 9 12 16 19 18 17 18 17 16 15 15 12 11 9 10 6 4 9 3 4 5 1 1 4 11 12

GFSMA_925_spd_099.txt.gz
Wind_Speed
26 25 25 27 29 29 31 30 30 25 21 15 22 25 23 24 26 26 28 22 22 22 21 20 21 21 21 21 20 20 19 18 18 18 19 18 17 15 14 12 12 12 11
28 29 28 27 30 33 33 33 33 25 19 20 24 24 23 27 25 28 29 26 23 22 24 22 22 21 21 20 21 20 19 19 18 18 18 18 17 15 13 12 11 11 10
30 30 29 29 31 34 34 33 30 24 23 21 24 27 29 28 27 28 28 28 24 22 22 23 22 21 21 20 21 19 18 18 18 17 18 18 17 15 13 13 12 11 11
30 29 32 32 31 33 34 33 32 27 30 25 28 31 32 27 29 29 30 29 26 25 24 23 21 22 21 20 20 19 19 18 18 17 17 17 17 16 14 13 12 12 11
31 29 31 33 31 32 34 32 30 30 27 24 28 29 30 18 32 30 31 29 28 26 25 25 23 21 21 21 21 19 19 18 17 17 17 17 17 16 15 14 13 12 12
32 30 31 31 32 33 31 30 28 31 25 27 27 26 28 16 30 32 30 29 30 27 25 23 24 22 21 22 21 19 19 19 18 17 17 17 16 15 15 15 15 14 13
30 31 31 32 33 34 31 30 26 25 21 29 27 15 24 20 33 35 30 32 28 26 26 25 25 24 23 21 21 20 20 20 19 18 18 17 17 16 16 16 16 15 14
30 30 29 31 32 32 30 29 28 20 18 27 21 15 4 11 21 33 36 30 27 27 26 25 26 27 26 26 24 22 21 22 21 20 19 19 18 17 16 17 16 16 15
30 30 29 31 32 31 31 31 33 28 17 27 21 9 4 5 14 23 30 28 29 30 29 29 28 27 28 28 26 26 26 25 24 22 21 22 22 20 19 17 17 17 17
30 31 32 32 33 34 33 32 36 34 26 27 26 25 14 21 9 5 19 30 31 32 33 33 30 28 27 26 24 22 26 28 28 27 25 23 22 21 20 19 18 18 18
29 30 31 32 31 34 33 37 33 33 36 30 29 26 17 25 21 12 6 9 27 36 35 34 32 30 30 26 25 24 22 21 26 27 28 27 25 25 24 23 23 23 23
28 30 31 33 35 34 38 38 34 36 36 34 30 27 20 22 16 15 5 10 18 27 35 33 35 31 29 28 26 23 21 19 20 23 26 27 29 29 27 26 25 26 26
26 29 30 33 35 34 36 38 37 36 38 36 37 31 23 23 30 24 19 15 8 10 19 31 29 28 30 28 29 26 23 23 23 23 23 24 26 28 29 31 31 32 32
24 24 33 33 35 35 38 39 38 38 39 39 39 34 27 25 32 26 23 17 3 7 12 20 32 32 33 27 28 29 29 27 26 25 24 24 26 28 29 31 31 31 32
21 21 27 33 32 36 38 40 37 37 38 40 39 37 29 34 27 33 30 28 17 7 9 17 12 33 33 33 29 27 28 28 27 27 26 28 30 32 33 33 32 31 32
15 20 24 30 31 35 37 37 31 35 35 36 38 36 34 33 32 25 23 19 25 14 4 12 26 22 33 31 29 29 28 26 24 25 23 25 28 31 33 34 36 33 34
14 17 20 25 28 33 35 35 28 32 35 36 36 37 35 35 28 25 18 13 14 11 7 5 13 13 22 23 19 19 18 21 25 25 27 27 28 31 33 37 38 40 41
13 13 15 18 21 24 32 32 32 32 34 31 33 33 32 35 31 23 19 15 11 11 10 9 12 14 15 16 15 17 18 21 27 30 30 32 35 35 36 36 39 42 44
13 11 15 15 17 22 31 31 35 32 34 31 31 34 34 34 32 22 19 16 17 11 12 14 19 19 19 17 18 21 22 26 26 28 28 30 31 33 31 31 33 30 23
13 14 13 12 12 12 24 27 30 34 29 34 33 33 35 33 26 21 20 25 23 24 26 22 21 20 20 21 21 21 22 21 21 17 18 20 18 15 15 11 11 12 12
14 15 14 12 11 12 15 24 28 33 33 31 30 26 24 21 20 23 23 26 27 26 24 22 16 15 18 16 16 17 18 14 11 11 10 7 6 6 5 3 4 5 6
14 15 15 14 14 12 13 15 14 18 23 20 20 21 22 21 22 17 26 26 27 27 26 21 17 16 18 12 12 13 10 7 4 6 8 7 3 2 1 3 3 5 6
14 15 15 15 12 10 16 18 18 17 17 18 20 25 23 22 21 22 23 23 20 24 25 21 16 11 9 9 8 7 8 7 3 3 3 3 1 2 2 2 4 3 4
20 20 17 14 11 5 7 16 21 18 20 16 15 16 20 19 20 20 20 18 13 8 7 10 12 9 8 9 10 8 7 5 5 2 1 2 5 4 2 3 3 4 4
22 22 19 17 17 15 11 17 23 22 21 18 12 10 11 11 10 14 19 22 22 22 19 17 16 12 8 6 5 6 7 9 4 5 8 4 6 4 4 6 6 6 8
27 26 27 25 22 19 13 14 22 27 28 26 22 21 14 15 15 16 21 24 27 23 21 20 19 17 15 14 11 10 9 10 7 5 8 3 5 3 0 0 3 3 4

GFSMA_925_spd_102.txt.gz
Wind_Speed
30 28 28 28 30 30 30 29 29 24 27 26 24 25 25 27 29 28 28 27 24 22 22 21 21 21 22 21 21 21 20 20 20 19 19 20 19 17 17 18 17 15 14
33 32 31 31 32 32 31 30 30 32 27 23 22 22 24 26 28 30 31 28 25 22 24 23 21 22 22 22 22 22 20 20 20 19 20 19 19 17 16 15 15 14 12
36 34 33 33 34 33 32 32 34 33 28 24 22 24 26 27 27 29 32 31 25 22 24 24 23 23 23 22 22 22 20 20 20 19 19 18 17 17 15 14 13 13 12
37 35 34 34 33 34 35 36 37 35 30 26 25 25 22 26 27 30 33 31 28 26 25 24 25 23 23 22 23 22 21 22 20 19 19 19 18 15 14 13 13 12 11
36 37 35 33 32 33 36 34 33 36 31 28 28 27 30 29 28 29 33 33 30 29 28 26 25 24 24 24 23 21 21 21 20 19 18 18 17 15 14 13 13 12 12
36 36 34 33 33 33 32 32 31 31 28 29 24 23 27 32 28 31 35 34 31 31 29 28 26 26 25 24 23 22 21 21 20 19 18 17 16 16 15 14 14 13 13
36 36 34 33 33 33 33 32 30 28 25 27 19 15 22 20 24 30 36 36 33 33 30 30 29 28 27 24 25 23 23 22 21 20 20 18 17 17 16 16 16 15 15
34 34 33 33 35 33 30 31 31 22 23 27 14 13 2 4 23 24 31 35 34 34 32 32 31 30 29 27 28 26 24 23 22 21 20 20 20 19 18 17 17 17 16
31 33 34 33 33 34 32 34 35 28 21 24 26 9 4 3 11 15 24 31 35 36 34 33 32 31 31 30 28 27 24 24 24 23 23 21 21 20 18 17 17 17 17
34 32 31 33 32 33 32 33 35 33 27 22 24 26 11 11 7 4 16 24 33 35 35 35 33 33 32 31 30 30 29 27 28 26 25 23 22 21 20 19 18 18 18
35 36 36 34 33 34 34 34 34 34 32 27 24 26 21 15 24 13 8 11 20 31 35 34 33 34 34 33 32 31 29 30 29 29 28 25 24 23 21 20 19 19 20
33 35 35 35 37 37 35 35 35 36 35 31 32 30 25 19 20 15 5 17 19 21 31 35 35 35 34 32 29 28 28 27 26 27 28 30 28 25 24 25 24 24 24
28 31 34 34 34 34 35 35 35 35 36 33 33 31 31 25 31 24 16 14 8 8 19 34 38 36 36 33 30 28 26 25 23 22 23 27 28 29 30 30 29 28 28
32 32 33 33 35 35 35 33 33 34 35 35 35 33 32 30 27 27 25 18 2 4 9 18 39 39 37 35 32 29 29 27 24 23 23 23 24 26 27 29 30 32 32
29 27 29 31 32 33 35 35 34 33 35 37 36 36 35 34 30 31 29 30 16 7 8 16 16 36 34 32 33 32 30 27 26 24 24 24 25 26 27 29 29 30 31
25 23 24 28 32 34 35 35 34 34 35 39 35 36 34 32 31 35 27 32 27 18 7 23 27 23 33 32 32 31 29 27 28 26 25 26 26 27 29 30 29 29 29
18 20 22 24 27 29 33 33 33 36 39 35 37 36 38 35 32 31 30 34 29 26 8 9 25 27 23 29 33 32 29 27 25 19 24 24 26 28 31 29 31 33 35
13 15 17 20 22 25 28 32 31 30 34 35 33 37 37 34 34 27 31 24 21 31 19 10 15 21 20 23 27 26 25 27 22 24 22 21 28 31 32 34 35 36 35
10 13 14 13 16 19 23 29 34 31 29 31 33 36 36 37 35 28 23 27 27 18 26 18 10 13 9 12 20 24 19 18 16 19 24 27 31 32 32 33 32 27 23
11 10 10 11 13 11 16 24 29 31 32 30 33 37 37 39 35 31 29 26 23 20 15 15 15 16 16 15 21 20 19 19 18 16 19 18 19 17 12 11 12 10 7
10 8 10 9 6 7 10 12 27 23 28 29 30 31 34 35 38 35 29 26 20 20 18 17 11 9 9 17 20 20 18 17 11 13 12 11 9 7 4 3 2 2 1
8 8 8 9 6 3 1 5 10 21 28 29 27 28 26 28 27 26 22 20 20 25 21 14 11 17 22 20 22 19 16 10 5 11 15 10 8 4 4 2 2 3 4
10 8 6 4 2 4 7 5 6 6 9 17 21 22 22 22 20 19 19 19 22 23 25 27 21 23 18 20 18 17 15 11 6 10 13 8 6 8 5 7 5 3 2
15 13 11 9 8 7 4 10 11 8 9 9 11 13 16 16 17 19 20 17 13 14 18 22 22 19 16 17 16 14 14 12 10 5 8 6 8 6 7 5 5 3 4
22 20 18 15 14 13 6 7 13 10 11 9 6 7 11 14 17 21 23 22 20 18 14 14 14 12 10 9 10 12 13 16 4 2 3 5 6 6 5 7 8 4 4
29 26 27 24 22 19 13 11 15 18 20 19 17 14 10 11 13 17 22 27 26 22 22 22 21 19 16 16 12 8 9 12 9 4 4 4 8 6 3 6 6 3 4

GFSMA_925_spd_105.txt.gz
Wind_Speed
33 32 32 31 31 31 30 30 29 29 28 28 27 26 22 21 19 19 26 27 24 22 23 19 19 19 20 20 20 20 20 20 19 18 18 17 16 16 15 14 13 12 12
34 35 34 33 33 33 32 32 31 30 28 27 27 26 25 24 22 24 26 29 27 24 23 20 20 19 20 21 21 20 20 20 19 18 17 16 15 15 15 14 13 12 11
36 36 36 35 35 35 34 33 32 32 29 28 27 24 24 27 25 27 27 31 28 24 22 21 21 20 21 21 21 21 20 20 20 18 17 18 16 14 12 12 11 11 10
36 36 36 36 35 35 35 35 35 35 33 32 28 25 24 24 26 26 25 31 29 26 23 23 24 23 22 22 22 21 20 20 20 19 18 16 16 15 13 12 12 12 10
37 36 37 36 32 31 35 35 34 34 33 31 30 27 25 25 27 27 27 32 32 29 27 25 25 23 23 22 22 21 20 21 20 20 19 18 17 16 15 14 13 12 11
37 36 36 35 32 27 30 32 32 32 30 31 26 25 29 29 27 29 30 33 34 31 29 28 26 25 24 23 23 22 22 21 21 20 19 18 18 17 15 14 14 14 13
38 37 36 34 34 31 30 31 28 29 26 27 17 17 22 28 28 30 32 34 35 33 30 30 28 27 26 25 25 24 22 21 21 20 19 19 18 17 16 16 15 15 14
39 39 38 35 34 30 30 32 30 21 22 27 14 7 3 4 20 31 33 34 37 36 34 32 33 30 29 29 26 25 24 22 22 21 20 20 19 19 19 18 17 17 17
40 40 39 38 35 34 33 33 32 27 20 23 29 7 3 3 3 10 25 30 33 35 36 35 34 33 33 32 30 28 25 23 23 23 23 23 21 21 19 20 19 18 18
42 38 39 37 35 34 32 34 33 31 24 19 23 30 12 5 3 2 12 23 27 34 36 37 36 36 34 33 32 30 29 27 27 25 24 25 23 22 21 21 20 18 18
39 38 39 36 35 35 34 34 32 32 32 24 24 16 22 13 15 4 4 7 19 28 34 37 38 38 36 35 33 32 31 31 28 29 28 26 24 23 23 22 21 19 20
35 38 38 36 36 35 34 35 34 33 32 30 27 28 23 14 13 8 3 12 17 19 30 35 38 39 37 36 35 34 33 32 30 30 30 30 27 25 25 24 22 22 22
27 35 38 37 37 36 34 33 33 33 34 32 31 28 29 28 21 26 17 13 6 8 16 32 38 38 37 37 36 35 34 34 31 30 30 31 32 31 29 26 27 25 25
29 28 34 35 36 34 34 34 32 34 34 33 33 33 28 30 27 24 19 21 3 5 10 16 38 38 37 37 36 33 31 29 31 31 29 27 28 30 31 31 31 30 30
31 32 31 31 31 30 30 31 32 30 29 33 34 33 33 30 33 31 25 26 17 7 9 16 16 39 39 38 36 34 33 31 30 29 29 27 26 26 26 28 29 30 30
29 29 28 26 25 26 28 30 30 31 30 32 35 34 33 31 34 34 32 29 24 14 5 22 31 25 37 40 36 35 34 32 31 30 29 26 26 25 26 28 28 30 30
25 23 24 22 22 25 27 30 30 30 32 33 31 33 35 32 33 33 35 33 27 26 7 10 26 29 25 36 39 35 32 31 31 28 25 26 26 26 27 26 28 31 31
18 17 17 16 18 22 24 29 30 33 35 35 35 35 38 38 35 35 32 33 33 31 19 7 15 24 25 29 35 35 31 27 28 26 27 27 25 26 28 27 27 30 31
12 11 13 16 17 18 20 26 28 28 35 35 31 33 37 36 35 35 33 31 31 28 28 18 12 20 18 20 21 20 18 18 18 21 17 24 22 23 25 29 32 31 30
10 10 10 10 9 11 14 19 23 29 31 34 34 38 39 39 38 36 34 31 30 28 26 23 20 19 18 12 16 18 9 10 15 15 18 18 20 22 23 22 21 20 18
5 6 6 6 6 8 10 15 18 22 28 24 26 29 32 32 38 42 39 33 33 28 24 21 15 11 13 14 15 14 17 19 16 17 14 12 11 9 7 8 7 6 5
9 8 7 7 5 4 7 8 8 11 16 26 24 27 30 35 41 44 42 40 36 30 23 17 16 13 20 22 22 23 23 13 5 17 17 14 12 11 10 7 7 7 7
9 8 6 2 0 5 8 10 5 5 3 1 5 22 25 23 35 33 35 33 31 31 28 28 19 20 22 29 27 25 24 17 11 15 20 11 11 11 9 8 8 7 6
12 10 8 7 6 8 7 5 4 2 8 10 9 8 22 25 28 30 28 26 14 13 17 22 25 25 25 22 22 27 28 19 13 13 16 7 14 9 10 9 6 6 7
21 17 15 13 12 14 13 6 3 9 11 12 11 8 7 9 13 15 16 16 14 11 7 12 17 17 16 18 18 20 22 23 5 5 9 7 11 11 10 9 11 9 7
27 21 27 25 23 20 17 9 8 13 18 20 18 15 12 8 7 11 15 21 22 17 19 20 21 20 15 13 11 10 14 15 12 5 6 6 15 9 5 9 8 6 6

GFSMA_925_spd_108.txt.gz
Wind_Speed
31 30 30 30 30 29 29 29 29 29 29 29 27 26 24 21 18 17 19 22 23 23 21 19 19 17 18 18 18 18 19 19 19 18 18 17 16 15 14 14 13 14 14
31 31 33 31 32 32 31 31 31 30 29 29 29 27 25 22 19 18 14 16 22 25 23 22 19 19 18 18 20 19 19 19 19 19 18 18 16 15 14 14 13 13 13
33 31 33 34 33 33 32 31 31 31 29 28 28 27 26 24 22 22 14 13 25 27 25 23 19 19 19 19 20 19 20 20 18 19 18 18 16 15 14 14 14 14 13
33 32 32 35 33 34 32 32 32 31 30 28 29 27 25 25 25 25 22 22 25 28 27 23 22 20 20 20 21 21 21 21 20 19 18 18 17 16 15 14 14 13 12
34 33 32 32 31 31 33 33 33 33 32 30 29 27 27 25 25 27 26 25 25 29 30 25 25 24 22 22 22 22 21 21 21 20 19 18 17 15 14 13 13 13 12
34 34 35 32 31 29 30 32 33 33 30 30 26 26 26 25 24 25 26 27 27 30 32 27 25 25 23 23 23 23 22 22 21 21 20 18 17 17 17 16 16 14 13
36 35 34 35 32 32 29 32 30 30 25 26 18 15 19 25 26 27 25 29 30 30 28 28 28 27 26 23 25 25 23 22 21 21 20 19 19 18 18 18 17 16 15
39 36 35 36 37 33 31 29 31 20 21 27 12 6 3 8 26 28 29 29 33 33 36 33 31 31 30 28 27 26 24 23 22 22 21 22 21 21 20 20 18 17 15
39 37 38 38 38 35 34 34 33 27 20 23 26 9 2 4 4 12 31 33 31 36 39 35 33 33 32 31 30 28 27 25 24 23 23 22 22 22 21 19 19 17 17
42 39 38 39 37 36 34 36 35 33 25 19 22 29 16 7 3 2 8 15 32 36 38 37 36 35 35 33 33 33 29 27 25 25 24 24 23 22 22 20 19 18 19
41 41 40 39 38 38 36 36 33 34 32 24 24 15 22 17 13 4 2 5 15 26 35 38 39 38 38 36 34 34 32 30 29 27 26 25 24 24 22 21 20 20 19
34 38 39 40 40 37 35 35 35 36 33 30 28 24 20 13 12 10 2 7 14 18 30 35 37 40 39 39 37 37 34 33 33 31 31 29 26 25 24 22 21 22 21
29 36 36 36 36 37 36 34 35 34 34 32 31 29 28 25 21 22 18 7 4 7 15 31 38 38 40 39 40 38 36 35 34 33 32 31 31 28 26 25 25 25 23
26 27 35 33 34 35 35 35 34 34 33 34 33 32 28 29 27 24 21 11 3 6 10 14 36 39 41 40 40 39 38 37 36 34 33 33 32 32 32 30 29 27 26
27 28 28 26 31 32 32 32 31 31 31 34 33 34 33 28 29 30 29 28 21 7 10 17 16 41 42 40 39 39 38 36 35 35 35 33 31 31 31 32 32 31 31
28 25 25 26 28 28 29 29 28 29 29 29 31 28 27 28 28 31 31 30 27 20 8 23 28 23 44 40 37 36 35 32 32 31 30 31 31 30 29 29 29 28 28
24 20 23 27 24 22 22 24 26 26 28 30 31 31 32 30 29 32 32 30 28 23 12 12 27 34 30 42 39 37 34 32 32 31 30 30 30 29 29 29 28 28 28
17 17 21 19 19 18 18 19 22 26 29 28 30 31 32 30 32 36 35 34 33 34 20 7 23 25 29 31 33 37 36 34 31 32 32 31 30 29 28 28 29 30 29
15 15 14 15 14 14 15 16 18 21 22 26 30 35 32 33 31 29 34 35 34 33 31 17 13 21 22 24 29 27 28 25 26 25 26 25 27 26 26 27 28 28 28
13 12 11 10 10 10 11 13 16 19 22 25 29 31 33 35 37 39 36 35 35 33 31 27 20 18 20 20 24 24 21 24 23 19 18 17 20 22 21 19 17 16 13
8 7 7 7 7 8 9 11 11 11 16 24 30 33 35 38 38 41 38 36 37 35 30 28 20 17 16 18 24 22 18 27 19 18 18 15 13 12 9 7 7 8 9
14 10 9 8 5 5 7 8 7 8 11 14 19 24 29 37 39 49 47 43 41 37 32 30 25 22 24 25 27 29 24 16 6 20 20 16 13 12 11 9 9 9 10
17 17 14 10 8 9 11 7 6 6 6 8 12 13 13 19 25 31 38 38 38 41 41 36 31 30 24 29 33 30 27 20 11 17 24 17 15 14 12 11 12 12 11
29 26 24 22 17 19 15 9 3 0 4 7 10 10 6 6 12 27 29 27 22 25 29 30 29 28 28 32 31 31 30 23 15 21 25 8 19 14 15 14 13 11 11
34 34 34 31 29 32 24 12 5 6 9 13 14 14 11 6 4 15 25 27 24 22 15 18 22 20 23 24 25 28 25 24 5 8 15 10 15 17 16 15 14 13 13
32 36 35 34 34 36 36 22 13 13 17 17 19 19 20 12 5 7 16 23 27 21 20 19 17 14 11 12 17 21 26 22 13 6 12 8 22 14 7 13 13 12 12

GFSMA_925_spd_111.txt.gz
Wind_Speed
27 27 26 22 22 21 22 24 24 22 20 20 19 19 18 17 16 14 18 19 22 22 23 22 21 19 18 18 18 18 18 19 18 18 18 18 17 16 15 15 14 14 14
29 28 28 27 24 25 27 24 25 23 21 20 20 19 18 16 16 16 16 17 21 23 23 24 22 20 18 19 20 19 19 20 20 19 19 18 17 17 16 15 15 14 13
29 28 31 29 31 31 29 27 24 23 19 19 19 19 18 17 15 15 16 14 12 17 25 29 23 20 20 20 19 20 20 21 19 19 19 19 18 17 16 15 14 14 15
27 30 31 31 31 34 30 27 23 21 19 19 18 17 18 16 16 18 20 18 13 10 18 28 23 21 20 20 19 20 21 22 21 21 20 20 18 18 17 16 15 15 15
36 34 33 32 31 33 34 30 23 21 20 18 17 17 18 21 25 21 24 26 23 20 21 29 29 23 21 21 21 23 22 23 22 22 21 20 20 19 18 18 18 16 15
35 33 33 35 32 33 33 34 28 24 20 19 17 17 17 25 19 24 27 27 27 24 27 28 29 26 25 24 22 25 23 23 23 23 21 22 21 20 19 19 18 17 15
36 36 31 35 34 34 35 34 30 26 19 22 13 12 15 20 22 26 26 26 24 26 28 29 31 25 25 26 26 26 25 25 24 23 24 23 22 21 20 18 17 16 15
38 41 36 38 38 33 34 34 32 19 21 26 12 7 4 12 19 22 23 25 28 27 29 29 32 28 23 26 30 28 28 26 25 25 25 25 23 23 21 20 18 16 16
38 40 38 35 39 35 34 35 34 29 21 23 26 9 3 5 4 13 28 29 29 28 30 33 31 36 28 27 28 31 29 28 27 27 26 26 25 24 23 22 20 19 18
38 40 42 38 36 35 32 36 36 33 24 19 21 26 14 3 4 3 9 21 27 30 32 35 38 41 38 29 29 32 31 30 29 28 27 27 26 25 24 23 22 21 20
40 40 45 42 36 35 37 35 34 34 32 24 23 14 24 19 11 6 5 4 18 25 32 36 38 38 40 37 31 36 34 32 31 30 29 27 28 27 26 25 23 21 21
35 38 36 41 41 38 36 39 37 36 33 28 26 23 20 11 13 10 6 6 11 15 27 30 35 38 38 33 33 37 35 35 34 32 30 30 29 27 25 25 23 22 22
31 37 43 41 39 40 37 36 36 35 35 33 29 28 27 26 21 21 17 10 6 11 16 29 34 36 36 34 33 38 37 36 38 36 35 32 30 29 28 27 26 25 24
30 29 37 34 37 36 35 34 32 36 35 35 32 30 28 29 26 24 22 16 4 8 12 16 31 38 39 42 39 37 38 38 37 38 38 37 35 34 31 29 29 27 26
29 32 33 36 33 35 33 31 31 33 32 33 33 32 31 27 28 27 25 22 18 6 9 17 17 39 41 38 42 38 39 37 41 40 39 38 37 36 36 35 34 32 30
30 30 29 31 31 31 30 29 27 27 29 29 29 29 30 28 27 28 27 25 27 22 7 26 28 27 42 39 40 37 32 39 39 40 40 39 38 37 35 35 35 35 34
28 28 26 25 26 26 27 26 25 25 26 25 26 26 26 28 27 27 27 27 28 27 14 19 25 31 31 39 38 38 31 32 32 38 38 38 37 37 35 34 34 32 32
22 22 23 23 23 25 23 20 22 21 22 21 21 25 28 27 29 30 29 30 29 29 27 19 21 25 31 34 41 34 32 28 27 29 35 35 33 33 33 34 33 32 30
19 21 21 21 19 17 16 13 14 16 17 18 20 23 26 27 30 30 32 30 33 33 32 24 17 22 28 26 30 31 26 22 25 33 31 32 32 32 32 33 32 31 30
15 15 15 14 12 9 7 6 8 11 14 18 20 21 27 28 28 30 34 32 34 31 31 30 22 20 23 23 29 28 23 26 25 25 25 25 28 28 28 28 28 29 26
21 20 19 18 15 10 5 3 6 8 11 14 17 22 27 30 34 36 32 33 36 33 28 28 23 20 21 16 27 28 23 27 21 25 23 20 20 20 19 18 18 17 17
25 24 23 21 19 14 12 2 6 8 9 13 14 16 16 20 24 37 37 42 39 33 33 29 27 24 30 32 29 27 25 15 5 22 26 21 20 21 19 16 16 16 17
31 32 25 22 23 25 21 8 2 3 6 6 8 12 16 17 20 20 27 33 47 52 48 36 32 32 32 36 35 32 27 26 16 27 30 17 19 20 17 18 18 18 20
37 32 33 29 29 34 25 17 7 5 7 10 14 16 14 15 17 16 15 13 13 16 27 39 34 35 33 38 42 39 34 27 19 33 29 8 22 20 21 20 19 19 18
31 32 31 32 33 36 31 21 16 14 14 18 20 25 20 17 14 11 5 11 13 14 11 13 21 23 28 34 37 36 33 28 6 11 22 12 18 25 22 21 18 18 19
31 31 32 32 28 33 33 30 24 22 24 23 25 28 32 24 11 5 9 12 19 14 14 15 21 21 21 21 27 26 31 28 14 5 17 10 29 19 8 18 20 19 18

GFSMA_925_spd_114.txt.gz
Wind_Speed
23 24 23 21 21 20 20 20 19 20 18 17 17 16 16 15 13 12 11 15 20 21 19 20 21 21 21 21 20 20 22 21 20 19 19 19 17 16 16 15 14 13 13
25 24 24 24 23 21 21 20 20 20 19 18 18 17 17 16 15 14 13 10 19 22 23 24 26 25 22 20 20 19 24 22 21 21 21 20 18 17 16 15 15 15 15
25 24 26 25 25 24 22 21 20 19 18 18 18 18 17 17 17 17 14 14 13 20 24 23 27 31 24 21 22 21 19 23 23 22 22 21 19 17 17 17 16 16 15
29 26 26 28 25 25 24 24 22 20 20 19 18 16 16 16 17 17 17 15 14 12 17 20 20 19 20 22 23 21 22 24 24 21 23 23 22 20 18 17 17 17 16
33 28 27 27 27 28 27 24 24 23 21 19 17 16 16 17 18 18 19 18 17 16 13 12 11 19 29 28 23 22 23 25 24 23 23 24 23 21 20 19 18 18 18
33 32 28 25 29 29 27 27 24 24 22 19 18 17 17 17 17 19 19 20 22 24 23 17 15 17 27 29 25 24 25 25 25 24 24 24 24 23 21 20 19 17 18
33 33 30 28 33 35 33 29 25 24 22 19 14 14 14 14 17 21 20 19 21 21 23 25 21 24 34 36 29 25 28 26 26 26 26 25 24 24 23 21 21 21 19
32 35 34 33 35 31 31 31 32 22 19 25 13 8 4 12 20 22 22 22 21 20 23 25 28 27 28 34 30 30 30 29 28 28 29 27 26 25 25 24 22 22 21
36 39 36 33 34 33 33 33 33 30 23 25 27 13 5 8 9 15 22 24 22 23 27 26 28 28 31 31 29 30 32 32 32 31 30 29 29 26 26 26 24 23 22
36 36 36 37 36 35 34 36 33 33 26 21 24 28 23 9 6 4 10 15 21 21 27 27 30 30 32 36 29 28 33 35 34 34 32 32 30 29 28 27 27 25 23
38 37 37 37 37 37 37 33 33 33 33 25 26 18 24 22 19 7 9 8 12 18 23 29 32 32 34 37 38 29 34 38 37 35 33 32 31 31 29 29 29 28 26
35 39 39 38 39 37 36 38 34 34 32 28 25 26 23 19 19 14 9 15 17 16 21 28 33 35 35 39 44 35 35 38 40 38 36 34 33 33 31 31 29 28 27
31 35 38 39 38 38 35 34 33 33 35 32 28 27 24 24 20 22 21 15 13 19 12 19 28 33 36 38 43 39 36 38 42 40 39 37 36 34 32 32 30 29 27
30 33 39 38 38 36 35 36 35 34 33 33 31 28 26 24 24 25 22 19 6 10 18 19 19 29 35 37 39 44 38 41 44 41 42 39 37 37 35 34 31 30 28
28 29 34 34 35 35 36 35 34 34 33 35 32 30 27 25 25 25 24 23 17 9 7 15 19 23 32 36 41 39 41 36 45 43 44 43 41 39 36 36 34 33 31
27 29 31 35 34 35 35 35 33 31 31 30 28 28 27 25 23 24 24 24 25 22 12 16 22 23 25 34 40 44 39 38 38 46 44 45 44 42 40 39 37 35 33
24 25 29 29 31 32 33 32 29 29 29 24 25 26 27 24 24 25 26 26 24 23 14 22 20 24 28 30 34 38 42 38 34 39 45 46 45 44 43 42 40 39 39
20 22 23 28 28 28 27 29 28 25 24 22 24 25 25 22 22 25 24 25 26 26 23 19 22 24 30 33 36 39 41 40 33 33 42 46 47 45 43 42 41 40 39
17 18 20 18 16 15 18 20 20 21 20 21 18 17 19 19 22 24 26 27 26 26 29 27 24 26 28 27 32 34 35 35 32 32 33 37 44 44 43 43 42 41 39
21 22 22 21 20 17 16 14 13 12 11 11 11 11 15 17 20 23 24 26 29 30 29 28 25 19 23 26 31 29 26 29 29 27 30 32 38 42 41 41 40 39 38
30 28 28 25 20 17 11 7 8 6 4 4 7 8 9 12 20 25 27 25 25 27 31 29 23 22 20 18 29 27 26 25 22 31 29 28 27 33 36 38 38 38 37
34 32 30 26 23 20 13 7 6 8 4 1 4 7 9 13 14 22 25 31 34 34 28 25 26 23 27 28 28 28 27 16 5 26 31 22 22 23 25 26 30 31 30
35 37 36 34 33 26 18 13 10 11 8 8 9 12 11 11 15 18 19 22 21 24 32 34 28 32 31 34 33 32 29 31 25 26 31 15 22 23 23 22 25 28 29
37 34 35 33 36 34 25 19 18 16 15 15 15 18 15 14 14 16 13 12 10 12 17 23 32 24 30 37 42 43 40 30 19 31 31 7 20 19 24 26 24 25 28
39 40 41 38 37 36 31 24 20 20 19 20 19 23 20 17 17 11 7 6 7 9 10 4 5 14 24 30 36 29 23 28 5 14 21 14 18 22 22 24 21 22 24
34 31 38 35 34 35 37 32 27 24 23 18 19 22 27 24 22 13 11 8 12 15 11 11 11 8 5 4 15 24 33 30 12 4 20 12 32 20 7 18 23 24 24

GFSMA_925_spd_117.txt.gz
Wind_Speed
22 23 22 23 22 21 22 21 20 20 20 19 14 15 16 14 13 9 7 10 13 19 19 20 22 22 21 21 23 22 21 19 18 16 17 19 18 17 16 15 15 15 14
23 23 24 24 24 24 22 20 21 24 20 18 18 17 16 15 15 13 10 10 14 19 20 20 21 20 21 24 23 23 22 22 20 19 20 19 19 18 16 16 15 15 14
26 25 25 23 22 22 24 22 20 20 23 20 18 18 17 17 15 14 15 11 11 18 22 22 19 19 24 24 19 21 22 24 22 20 21 21 20 19 18 17 16 15 15
28 25 28 27 23 23 22 22 23 21 22 20 19 17 17 17 16 15 16 16 11 13 20 24 21 18 21 22 16 20 22 24 23 23 21 22 22 21 20 19 17 16 16
35 30 27 30 27 23 21 25 24 23 23 21 18 18 19 17 18 17 17 16 18 14 12 18 20 19 13 22 23 26 24 22 26 24 23 24 24 23 21 20 18 18 17
34 34 28 27 32 26 23 26 25 24 24 20 19 18 18 19 17 17 18 19 18 18 16 13 18 14 9 22 26 26 23 24 26 26 24 26 26 25 23 21 20 20 20
33 34 33 32 33 33 31 30 27 26 24 19 18 16 16 19 20 19 19 17 19 21 19 20 18 20 19 20 30 32 28 27 28 27 28 28 29 28 25 23 22 21 20
34 36 36 32 33 31 32 32 31 26 24 24 17 12 4 8 19 22 21 20 18 18 18 21 20 20 21 21 28 30 30 30 32 31 30 29 31 29 27 26 25 23 22
35 38 38 36 33 31 32 32 32 29 24 23 25 12 5 8 10 22 25 24 21 23 20 22 25 24 23 23 25 30 40 35 34 34 34 31 32 30 29 28 27 25 25
38 37 38 38 33 33 32 37 36 34 28 23 25 28 23 12 6 6 13 18 20 21 21 22 26 27 26 24 20 29 35 38 38 36 36 35 35 32 31 29 28 27 25
38 37 38 36 35 33 35 34 34 35 33 28 27 25 27 24 19 11 6 10 15 17 19 24 22 25 25 24 27 33 34 40 41 41 39 39 36 35 34 32 31 30 28
34 37 38 37 35 34 33 34 35 35 33 31 28 28 23 21 18 12 9 11 12 18 18 19 22 25 25 25 29 33 39 38 44 44 42 41 39 37 36 34 31 30 30
33 36 38 37 37 37 36 33 34 35 35 32 26 25 27 24 25 21 19 13 10 18 15 16 19 23 27 29 30 30 36 43 44 45 45 44 42 39 38 37 36 33 32
33 32 35 37 38 39 36 34 33 33 34 34 33 31 31 25 22 22 19 17 8 10 17 18 15 20 27 30 34 32 34 43 41 44 44 45 44 41 40 38 37 35 33
33 30 31 36 37 35 37 36 34 35 35 35 33 34 27 27 26 23 24 23 17 10 8 18 19 19 20 26 34 33 34 39 47 43 42 46 46 45 42 40 39 37 35
27 27 30 34 35 36 35 34 32 31 32 33 32 29 31 30 23 21 22 21 20 19 11 19 16 20 21 24 26 32 35 39 42 45 43 47 49 48 45 43 42 39 38
28 26 29 32 33 34 33 33 31 29 32 30 29 30 28 25 21 22 24 21 21 20 12 24 24 18 19 22 23 30 32 34 43 46 45 49 52 50 49 46 44 42 41
26 25 28 28 29 29 28 29 27 26 29 27 27 26 24 19 21 21 21 24 25 22 22 18 24 22 23 25 24 25 32 37 39 42 48 47 53 52 52 51 48 45 43
9 9 11 14 17 21 25 26 26 26 25 27 23 20 16 19 22 23 21 22 23 23 24 23 23 22 22 22 24 27 30 33 38 42 46 49 48 55 54 53 51 48 47
29 25 24 23 20 18 18 18 21 22 20 19 19 16 11 10 9 6 7 14 15 20 19 19 20 24 24 25 28 25 24 31 32 34 41 45 46 51 54 53 52 49 48
36 32 29 29 27 26 19 14 16 16 16 13 10 9 5 2 2 7 11 14 18 18 19 19 22 23 22 17 20 22 25 26 28 36 38 36 44 47 48 52 54 52 50
39 39 38 35 35 33 23 18 15 14 14 11 9 4 2 3 7 9 12 11 14 18 21 19 23 19 26 28 27 27 25 11 4 28 36 33 32 38 40 43 51 50 47
37 40 38 36 41 39 31 26 20 18 20 17 14 10 8 9 10 11 10 8 10 9 10 13 16 19 20 17 25 29 30 25 25 26 34 17 23 24 27 30 36 40 41
34 41 39 39 41 44 36 31 29 24 24 20 25 22 16 16 16 13 8 5 5 7 8 8 7 12 15 26 32 29 36 34 20 24 33 6 17 13 17 18 19 26 30
37 39 34 40 37 46 45 35 33 30 25 27 27 31 25 22 20 11 6 5 6 9 5 5 5 8 9 13 25 28 24 19 3 9 27 14 16 18 21 22 21 28 30
34 38 38 33 38 38 47 38 39 33 28 24 22 25 30 25 21 18 15 10 9 13 13 11 11 11 14 15 14 6 9 19 11 4 20 10 26 14 7 17 22 24 26

GFSMA_925_spd_120.txt.gz
Wind_Speed
26 25 24 23 21 21 21 20 20 18 19 19 14 18 16 16 13 9 9 11 8 11 15 16 19 20 19 18 19 19 18 17 17 15 17 15 17 15 15 14 14 14 14
26 30 29 24 25 24 25 22 23 21 21 22 19 16 17 17 14 11 10 8 9 13 17 17 17 21 18 18 20 19 17 17 19 18 19 17 19 17 16 15 15 14 14
27 26 28 25 26 26 28 25 23 23 24 22 22 20 18 18 16 13 10 11 10 14 18 18 18 17 17 16 18 16 20 20 21 20 20 19 19 20 18 17 16 15 14
28 29 27 27 25 25 31 27 25 23 26 25 24 24 21 20 19 17 15 12 12 14 19 21 20 18 18 16 24 20 24 23 23 22 22 20 21 22 20 18 17 17 16
40 24 30 35 30 19 25 31 29 28 24 27 27 23 22 21 21 19 17 19 14 14 16 17 23 24 22 21 21 24 22 23 22 26 24 23 24 25 23 21 20 19 18
35 41 26 32 40 28 22 30 31 30 27 25 22 22 22 23 21 21 22 20 20 20 16 18 20 26 24 22 20 25 23 21 26 27 29 26 27 26 25 24 23 21 20
35 37 39 29 35 40 28 28 29 30 29 25 22 19 21 23 24 25 21 21 26 24 24 22 21 24 26 23 19 23 26 27 26 27 30 28 29 28 28 25 24 23 23
36 38 39 36 34 35 35 27 29 26 24 30 18 12 3 11 24 27 25 25 26 24 26 28 26 27 29 29 25 25 28 29 28 31 32 32 30 30 29 28 26 25 25
39 40 40 40 36 35 37 39 34 30 26 28 29 13 3 5 6 21 29 29 21 22 21 25 28 27 28 28 28 26 29 30 32 33 34 34 34 32 32 31 29 28 27
40 40 42 39 39 39 35 38 40 38 27 25 27 32 19 7 4 3 20 28 29 27 28 26 27 29 30 30 30 28 30 33 34 35 35 35 36 35 35 34 33 31 30
37 42 42 43 41 38 39 39 36 37 38 30 29 26 26 24 17 5 3 9 23 26 28 29 28 29 30 30 32 30 30 28 37 40 38 38 38 38 37 36 35 34 32
29 40 43 43 43 44 42 31 34 35 37 36 31 30 26 18 19 11 4 5 10 20 26 27 29 30 29 28 32 31 31 28 33 38 41 41 41 41 39 39 37 36 35
27 33 39 43 43 41 38 34 33 34 37 35 35 31 32 27 22 24 16 8 4 15 22 28 31 31 30 27 29 30 32 34 37 37 45 44 44 43 42 41 39 39 38
30 30 38 43 45 45 39 38 34 35 36 37 34 33 33 31 27 26 25 17 4 7 18 13 27 28 27 26 28 28 29 32 38 41 43 47 48 47 45 43 42 41 39
36 36 35 40 45 42 41 36 33 35 36 38 35 36 33 31 28 27 29 23 11 4 5 18 19 26 28 27 27 28 32 34 33 39 45 47 50 51 49 47 44 43 42
40 37 30 37 39 38 41 36 34 32 34 35 34 33 34 29 28 31 30 27 24 14 6 17 20 18 25 29 27 26 29 32 37 37 39 48 52 53 52 49 47 44 44
39 39 32 22 19 31 38 40 31 33 32 32 31 31 33 31 26 26 25 24 25 24 10 16 20 18 21 28 28 26 27 28 32 35 37 42 48 50 53 51 50 46 46
37 35 31 33 31 44 39 36 33 32 32 29 31 30 30 29 29 27 25 22 24 27 20 14 16 19 20 21 24 29 29 31 31 33 33 36 49 49 50 52 53 52 49
32 24 5 3 10 15 27 31 33 33 32 30 27 30 26 26 25 24 20 20 18 18 18 16 18 17 22 25 26 26 30 32 31 34 34 33 42 50 52 52 55 56 53
44 36 31 28 26 16 8 11 31 29 26 25 26 19 17 18 15 16 14 7 2 2 4 8 12 16 18 19 21 21 21 30 31 33 36 37 39 47 55 55 56 59 57
52 36 37 38 37 36 27 21 27 28 28 28 26 21 20 18 13 8 7 11 8 11 11 8 11 13 14 16 17 22 24 25 29 33 35 39 41 47 50 54 57 58 60
41 38 46 46 43 41 38 29 31 31 29 26 25 22 14 13 10 11 7 3 3 6 7 5 8 10 16 18 19 22 25 23 5 28 37 35 41 42 46 53 57 58 60
41 47 46 44 44 45 40 39 41 40 35 35 30 27 23 20 17 10 8 6 7 6 5 3 5 4 11 9 20 26 19 19 20 23 32 24 30 32 35 41 48 54 57
42 42 44 43 47 50 43 37 46 44 33 42 37 36 31 30 24 15 8 7 8 8 8 6 4 6 9 13 15 20 26 27 29 20 28 10 16 11 17 20 26 32 40
41 43 40 51 38 50 47 51 47 36 27 41 31 37 38 33 30 20 14 12 10 14 9 5 5 6 7 8 12 13 8 10 7 12 26 14 10 11 6 6 6 8 20
32 38 36 42 39 42 43 46 34 39 36 35 37 37 40 33 27 27 27 20 18 17 14 10 8 8 10 11 12 12 12 8 5 2 14 10 15 12 5 10 16 20 23

GFSMA_925_spd_123.txt.gz
Wind_Speed
29 28 29 28 28 27 26 25 22 21 20 19 19 17 15 13 11 7 14 14 13 14 15 20 22 21 21 18 16 17 21 18 17 17 17 15 14 16 16 16 15 15 15
32 31 32 30 31 29 27 28 26 24 23 22 22 18 19 14 13 11 13 15 12 11 15 19 20 22 23 21 17 19 23 21 21 20 19 18 16 18 18 18 17 17 16
34 34 34 34 32 31 27 29 28 25 22 22 22 19 20 18 17 12 13 15 15 15 17 19 19 21 23 22 21 21 24 23 21 21 20 21 20 21 20 19 19 18 18
39 38 35 37 31 33 33 33 32 32 28 26 25 23 21 21 19 17 14 15 18 17 18 19 19 19 21 22 23 25 26 25 24 24 22 23 22 24 22 21 21 20 19
35 35 36 37 37 33 36 37 36 36 35 32 29 26 28 26 25 23 21 17 18 16 17 19 22 23 23 23 23 26 29 25 29 27 25 24 21 22 25 24 22 22 21
32 39 33 33 34 33 30 39 40 38 37 34 32 29 26 27 27 27 24 23 22 19 19 20 21 26 27 25 24 25 27 25 27 27 27 24 25 25 27 26 25 24 23
35 44 36 35 39 44 36 35 36 39 32 33 27 26 26 27 29 28 27 26 26 25 24 25 24 24 28 29 28 26 24 29 28 26 27 29 28 26 28 27 27 26 25
37 36 31 41 42 44 38 33 37 29 25 36 19 18 4 11 29 32 30 28 31 27 31 30 28 28 28 30 32 30 27 28 30 28 28 32 32 29 30 30 30 29 27
27 38 42 50 38 42 37 41 39 35 30 31 32 13 3 5 4 18 34 32 32 31 34 36 32 31 29 29 32 32 29 29 31 32 31 32 34 31 31 32 32 31 29
28 25 42 45 48 46 41 43 38 38 34 30 30 37 20 13 4 2 16 34 38 36 33 37 36 33 31 31 32 32 31 32 32 34 34 34 35 36 34 34 35 33 32
31 30 25 42 44 48 44 41 41 39 39 34 38 32 27 19 14 3 3 8 28 35 32 34 34 34 33 33 33 32 29 32 32 37 37 39 37 38 39 38 36 37 36
32 33 32 27 41 42 43 43 47 43 41 32 29 27 32 24 14 5 3 5 11 25 37 36 35 35 35 35 34 33 30 32 32 34 38 39 40 41 40 40 39 39 39
32 28 27 31 28 41 43 42 41 37 28 28 37 28 30 31 28 24 13 5 3 10 21 37 37 38 38 37 35 32 30 30 32 35 36 41 44 42 42 42 41 41 42
35 32 34 32 32 33 38 40 40 35 35 49 41 34 34 32 28 25 26 15 2 6 12 18 35 38 38 37 34 29 29 26 30 33 34 38 46 45 45 45 43 43 43
36 36 32 32 35 34 37 39 37 36 34 42 37 45 43 33 30 29 30 25 13 5 9 19 17 34 39 38 35 30 30 28 28 31 37 40 41 47 49 49 47 46 45
35 37 37 33 35 36 36 37 36 36 33 34 35 37 34 30 31 31 33 34 29 15 4 22 25 21 34 37 34 32 32 29 28 28 31 38 44 46 51 53 52 49 47
40 40 33 30 32 34 36 34 32 26 28 36 35 35 33 33 30 30 31 32 28 25 9 9 13 24 23 32 31 30 30 29 29 29 29 34 38 41 47 53 56 54 50
12 9 17 18 24 27 28 32 32 33 43 41 34 32 34 34 31 28 29 30 28 32 18 7 12 17 24 23 22 27 32 31 31 30 30 30 35 40 44 48 54 56 52
26 24 23 22 18 11 9 12 27 27 27 36 31 33 33 30 28 26 29 28 23 19 20 16 16 20 27 20 22 24 30 33 34 32 31 31 31 33 40 44 48 52 53
36 35 36 35 35 30 25 12 10 26 32 28 15 19 18 20 21 26 26 24 20 17 15 15 11 10 14 15 18 18 18 27 29 30 35 35 33 33 35 38 45 51 53
38 40 44 43 40 48 45 31 31 23 23 28 26 21 21 20 16 14 16 17 18 17 16 14 10 5 6 6 9 14 21 22 25 31 31 36 36 37 36 36 40 48 54
40 42 46 45 43 49 49 44 44 40 37 32 32 29 23 19 25 19 15 10 7 7 7 4 2 2 1 1 6 6 8 6 6 20 29 33 32 35 38 37 40 43 54
39 48 44 47 58 52 45 47 40 52 39 42 40 30 34 29 21 18 22 19 20 18 12 1 4 3 1 4 9 13 10 9 10 14 8 22 28 34 34 33 37 42 46
38 38 38 38 48 46 48 50 44 42 38 45 46 42 40 34 24 19 21 22 23 22 21 13 11 6 5 5 7 9 14 19 25 31 29 10 22 22 26 29 35 40 41
36 37 38 43 43 46 49 43 42 39 39 39 42 44 45 35 31 30 29 25 26 23 14 17 10 9 10 10 9 8 6 9 5 6 10 13 11 11 11 13 17 24 30
33 34 39 42 41 43 49 47 40 33 34 29 30 33 38 41 40 32 39 32 29 22 19 18 16 15 14 13 13 13 11 6 7 5 6 4 4 5 1 2 1 3 8